[[{"header":{"parameterUnit":"m.s-1","parameterCategory":1,"la1":31.0,"la2":29.5877,"lo1":-88.7671,"lo2":-86.6584,"dy":0.0162,"dx":0.0185,"nx":115,"ny":88,"refTime":"2023-03-31T18:00:00:Z","depth":0,"parameterNumber":2,"parameterNumberName":"U-component_of_WINDS"},"data":[0.0,0.0,0.0,0.0,0.0,0.0,0.0,0.0,0.0,0.0,0.0,0.0,0.0,0.0,0.0,0.0,0.0,0.0,0.0,0.0,0.0,0.0,0.0,0.0,0.0,0.0,0.0,0.0,0.0,0.0,0.0,0.0,0.0,0.0,0.0,0.0,0.0,0.0,0.0,0.0,0.0,0.0,0.0,0.0,0.0,0.0,0.0,0.0,0.0,0.0,0.0,0.0,0.0,0.0,0.0,0.0,0.0,0.0,0.0,0.0,0.0,0.0,0.0,0.0,0.0,0.0,0.0,0.0,0.0,0.0,0.0,0.0,0.0,0.0,0.0,0.0,0.0,0.0,0.0,0.0,0.0,0.0,0.0,0.0,0.0,0.0,0.0,0.0,0.0,0.0,0.0,0.0,0.0,0.0,0.0,0.0,0.0,0.0,0.0,0.0,0.0,0.0,0.0,0.0,0.0,0.0,0.0,0.0,0.0,0.0,0.0,0.0,0.0,0.0,0.0,0.0,0.0,0.0,0.0,0.0,0.0,0.0,0.0,0.0,0.0,0.0,0.0,0.0,0.0,0.0,0.0,0.0,0.0,0.0,0.0,0.0,0.0,0.0,0.0,0.0,0.0,0.0,0.0,0.0,0.0,0.0,0.0,0.0,0.0,0.0,0.0,0.0,0.0,0.0,0.0,0.0,0.0,0.0,0.0,0.0,0.0,0.0,0.0,0.0,0.0,0.0,0.0,0.0,0.0,0.0,0.0,0.0,0.0,0.0,0.0,0.0,0.0,0.0,0.0,0.0,0.0,0.0,0.0,0.0,0.0,0.0,0.0,0.0,0.0,0.0,0.0,0.0,0.0,0.0,0.0,0.0,0.0,0.0,0.0,0.0,0.0,0.0,0.0,0.0,0.0,0.0,0.0,0.0,0.0,0.0,0.0,0.0,0.0,0.0,0.0,0.0,0.0,0.0,0.0,0.0,0.0,0.0,0.0,0.0,0.0,0.0,0.0,0.0,0.0,0.0,0.0,0.0,0.0,0.0,0.0,0.0,0.0,0.0,0.0,0.0,0.0,0.0,0.0,0.0,0.0,0.0,0.0,0.0,0.0,0.0,0.0,0.0,0.0,0.0,0.0,0.0,0.0,0.0,0.0,0.0,0.0,0.0,0.0,0.0,0.0,0.0,0.0,0.0,0.0,0.0,0.0,0.0,0.0,0.0,0.0,0.0,0.0,0.0,0.0,0.0,0.0,0.0,0.0,0.0,0.0,0.0,0.0,0.0,0.0,0.0,0.0,0.0,0.0,0.0,0.0,0.0,0.0,0.0,0.0,0.0,0.0,0.0,0.0,0.0,0.0,0.0,0.0,0.0,0.0,0.0,0.0,0.0,0.0,0.0,0.0,0.0,0.0,0.0,0.0,0.0,0.0,0.0,0.0,0.0,0.0,0.0,0.0,0.0,0.0,0.0,0.0,0.0,0.0,0.0,0.0,0.0,0.0,0.0,0.0,0.0,0.0,0.0,0.0,0.0,0.0,0.0,0.0,0.0,0.0,0.0,0.0,0.0,0.0,0.0,0.0,0.0,0.0,0.0,0.0,0.0,0.0,0.0,0.0,0.0,0.0,0.0,0.0,0.0,0.0,0.0,0.0,0.0,0.0,0.0,0.0,0.0,0.0,0.0,0.0,0.0,0.0,0.0,0.0,0.0,0.0,0.0,0.0,0.0,0.0,0.0,0.0,0.0,0.0,0.0,0.0,0.0,0.0,0.0,0.0,0.0,0.0,0.0,0.0,0.0,0.0,0.0,0.0,0.0,0.0,0.0,0.0,0.0,0.0,0.0,0.0,0.0,0.0,0.0,0.0,0.0,0.0,0.0,0.0,0.0,0.0,0.0,0.0,0.0,0.0,0.0,0.0,0.0,0.0,0.0,0.0,0.0,0.0,0.0,0.0,0.0,0.0,0.0,0.0,0.0,0.0,0.0,0.0,0.0,0.0,0.0,0.0,0.0,0.0,0.0,0.0,0.0,0.0,0.0,0.0,0.0,0.0,0.0,0.0,0.0,0.0,0.0,0.0,0.0,0.0,0.0,0.0,0.0,0.0,0.0,0.0,0.0,0.0,0.0,0.0,0.0,0.0,0.0,0.0,0.0,0.0,0.0,0.0,0.0,0.0,0.0,0.0,0.0,0.0,0.0,0.0,0.0,0.0,0.0,0.0,0.0,0.0,0.0,0.0,0.0,0.0,0.0,0.0,0.0,0.0,0.0,0.0,0.0,0.0,0.0,0.0,0.0,0.0,0.0,0.0,0.0,0.0,0.0,0.0,0.0,0.0,0.0,0.0,0.0,0.0,0.0,0.0,0.0,0.0,0.0,0.0,0.0,0.0,0.0,0.0,0.0,0.0,0.0,0.0,0.0,0.0,0.0,0.0,0.0,0.0,0.0,0.0,0.0,0.0,0.0,0.0,0.0,0.0,0.0,0.0,0.0,0.0,0.0,0.0,0.0,0.0,0.0,0.0,0.0,0.0,0.0,0.0,0.0,0.0,0.0,0.0,0.0,0.0,0.0,0.0,0.0,0.0,0.0,0.0,0.0,0.0,0.0,0.0,0.0,0.0,0.0,0.0,0.0,0.0,0.0,0.0,0.0,0.0,0.0,0.0,0.0,0.0,0.0,0.0,0.0,0.0,0.0,0.0,0.0,0.0,0.0,0.0,0.0,0.0,0.0,0.0,0.0,0.0,0.0,0.0,0.0,0.0,0.0,0.0,0.0,0.0,0.0,0.0,0.0,0.0,0.0,0.0,0.0,0.0,0.0,0.0,0.0,0.0,0.0,0.0,0.0,0.0,0.0,0.0,0.0,0.0,0.0,0.0,0.0,0.0,0.0,0.0,0.0,0.0,0.0,0.0,0.0,0.0,0.0,0.0,0.0,0.0,0.0,0.0,0.0,0.0,0.0,0.0,0.0,0.0,0.0,0.0,0.0,0.0,0.0,0.0,0.0,0.0,0.0,0.0,0.0,0.0,0.0,0.0,0.0,0.0,0.0,0.0,0.0,0.0,0.0,0.0,0.0,0.0,0.0,0.0,0.0,0.0,0.0,0.0,0.0,0.0,0.0,0.0,0.0,0.0,0.0,0.0,0.0,0.0,0.0,0.0,0.0,0.0,0.0,0.0,0.0,0.0,0.0,0.0,0.0,0.0,0.0,0.0,0.0,0.0,0.0,0.0,0.0,0.0,0.0,0.0,0.0,0.0,0.0,0.0,0.0,0.0,0.0,0.0,0.0,0.0,0.0,0.0,0.0,0.0,0.0,0.0,0.0,0.0,0.0,0.0,0.0,0.0,0.0,0.0,0.0,0.0,0.0,0.0,0.0,0.0,0.0,0.0,0.0,0.0,0.0,0.0,0.0,0.0,0.0,0.0,0.0,0.0,0.0,0.0,0.0,0.0,0.0,0.0,0.0,0.0,0.0,0.0,0.0,0.0,0.0,0.0,0.0,0.0,0.0,0.0,0.0,0.0,0.0,0.0,0.0,0.0,0.0,0.0,0.0,0.0,0.0,0.0,0.0,0.0,0.0,0.0,0.0,0.0,0.0,0.0,0.0,0.0,0.0,0.0,0.0,0.0,0.0,0.0,0.0,0.0,0.0,0.0,0.0,0.0,0.0,0.0,0.0,0.0,0.0,0.0,0.0,0.0,0.0,0.0,0.0,0.0,0.0,0.0,0.0,0.0,0.0,0.0,0.0,0.0,0.0,0.0,0.0,0.0,0.0,0.0,0.0,0.0,0.0,0.0,0.0,0.0,0.0,0.0,0.0,0.0,0.0,0.0,0.0,0.0,0.0,0.0,0.0,0.0,0.0,0.0,0.0,0.0,0.0,0.0,0.0,0.0,0.0,0.0,0.0,0.0,0.0,0.0,0.0,0.0,0.0,0.0,0.0,0.0,0.0,0.0,0.0,0.0,0.0,0.0,0.0,0.0,0.0,0.0,0.0,0.0,0.0,0.0,0.0,0.0,0.0,0.0,0.0,0.0,0.0,0.0,0.0,0.0,0.0,0.0,0.0,0.0,0.0,0.0,0.0,0.0,0.0,0.0,0.0,0.0,0.0,0.0,0.0,0.0,0.0,0.0,0.0,0.0,0.0,0.0,0.0,0.0,0.0,0.0,0.0,0.0,0.0,0.0,0.0,0.0,0.0,0.0,0.0,0.0,0.0,0.0,0.0,0.0,0.0,0.0,0.0,0.0,0.0,0.0,0.0,0.0,0.0,0.0,0.0,0.0,0.0,-6.3215,0.0,0.0,0.0,0.0,0.0,0.0,0.0,0.0,0.0,0.0,0.0,0.0,0.0,0.0,0.0,0.0,0.0,0.0,0.0,0.0,0.0,0.0,0.0,0.0,0.0,0.0,0.0,0.0,0.0,0.0,0.0,0.0,0.0,0.0,0.0,0.0,0.0,0.0,0.0,0.0,0.0,0.0,0.0,0.0,0.0,0.0,0.0,0.0,0.0,0.0,0.0,0.0,0.0,0.0,0.0,0.0,0.0,0.0,0.0,0.0,0.0,0.0,0.0,0.0,0.0,0.0,0.0,0.0,0.0,0.0,0.0,0.0,0.0,0.0,0.0,0.0,0.0,0.0,0.0,0.0,0.0,0.0,0.0,0.0,0.0,0.0,0.0,0.0,0.0,0.0,0.0,0.0,0.0,0.0,0.0,0.0,0.0,0.0,0.0,0.0,0.0,0.0,0.0,0.0,0.0,0.0,0.0,0.0,0.0,0.0,-6.6688,-6.6258,-6.5829,-6.4982,-6.3692,0.0,0.0,0.0,0.0,0.0,0.0,0.0,0.0,0.0,0.0,0.0,0.0,0.0,0.0,0.0,0.0,0.0,0.0,0.0,0.0,0.0,0.0,0.0,0.0,0.0,0.0,0.0,0.0,0.0,0.0,0.0,0.0,0.0,0.0,0.0,0.0,0.0,0.0,0.0,0.0,0.0,0.0,0.0,0.0,0.0,0.0,0.0,0.0,0.0,0.0,0.0,0.0,0.0,0.0,0.0,0.0,0.0,0.0,0.0,0.0,0.0,0.0,0.0,0.0,0.0,0.0,0.0,0.0,0.0,0.0,0.0,0.0,0.0,0.0,0.0,0.0,0.0,0.0,0.0,0.0,0.0,0.0,0.0,0.0,0.0,0.0,0.0,0.0,0.0,0.0,0.0,0.0,0.0,0.0,0.0,0.0,0.0,0.0,0.0,0.0,0.0,0.0,0.0,0.0,0.0,0.0,0.0,0.0,0.0,0.0,0.0,0.0,-6.6188,-6.5338,-6.4219,0.0,0.0,0.0,0.0,0.0,0.0,0.0,0.0,0.0,0.0,0.0,0.0,0.0,0.0,0.0,0.0,0.0,0.0,0.0,0.0,0.0,0.0,0.0,0.0,0.0,0.0,0.0,0.0,0.0,0.0,0.0,0.0,0.0,0.0,0.0,0.0,0.0,0.0,0.0,0.0,0.0,0.0,0.0,0.0,0.0,0.0,0.0,0.0,0.0,0.0,0.0,0.0,0.0,0.0,0.0,0.0,0.0,0.0,0.0,0.0,0.0,0.0,0.0,0.0,0.0,0.0,0.0,0.0,0.0,0.0,0.0,0.0,0.0,0.0,0.0,0.0,0.0,0.0,0.0,0.0,0.0,0.0,0.0,0.0,0.0,0.0,0.0,0.0,0.0,0.0,0.0,0.0,0.0,0.0,0.0,0.0,0.0,0.0,0.0,0.0,0.0,0.0,0.0,0.0,0.0,0.0,0.0,0.0,0.0,0.0,-6.6868,-6.6813,-6.6713,0.0,-6.4258,0.0,0.0,0.0,0.0,0.0,0.0,0.0,0.0,0.0,0.0,0.0,0.0,0.0,0.0,0.0,0.0,0.0,0.0,0.0,0.0,0.0,0.0,0.0,0.0,0.0,0.0,0.0,0.0,0.0,0.0,0.0,0.0,0.0,0.0,0.0,0.0,0.0,0.0,0.0,0.0,0.0,0.0,0.0,0.0,0.0,0.0,0.0,0.0,0.0,0.0,0.0,0.0,0.0,0.0,0.0,0.0,0.0,0.0,0.0,0.0,0.0,0.0,0.0,0.0,0.0,0.0,0.0,0.0,0.0,0.0,0.0,0.0,0.0,0.0,0.0,0.0,0.0,0.0,0.0,0.0,0.0,0.0,0.0,0.0,0.0,0.0,0.0,0.0,0.0,0.0,0.0,0.0,0.0,0.0,0.0,0.0,0.0,0.0,0.0,0.0,0.0,0.0,0.0,0.0,0.0,0.0,0.0,0.0,0.0,0.0,-6.6892,-6.6866,-6.5861,-6.497,0.0,0.0,0.0,0.0,0.0,0.0,0.0,0.0,0.0,0.0,0.0,0.0,0.0,0.0,0.0,0.0,0.0,0.0,0.0,0.0,0.0,0.0,0.0,0.0,0.0,0.0,0.0,0.0,0.0,0.0,0.0,0.0,0.0,0.0,0.0,0.0,0.0,0.0,0.0,0.0,0.0,0.0,0.0,0.0,0.0,0.0,0.0,0.0,0.0,0.0,0.0,0.0,0.0,0.0,0.0,0.0,0.0,0.0,0.0,0.0,0.0,0.0,0.0,0.0,0.0,0.0,0.0,0.0,0.0,0.0,0.0,0.0,0.0,0.0,0.0,0.0,0.0,0.0,0.0,0.0,0.0,0.0,0.0,0.0,0.0,0.0,0.0,0.0,0.0,0.0,0.0,0.0,0.0,0.0,0.0,0.0,0.0,0.0,0.0,0.0,0.0,0.0,0.0,0.0,0.0,0.0,0.0,0.0,0.0,0.0,-6.6582,-6.6894,-6.6814,-6.5203,-6.4294,-6.4304,0.0,0.0,0.0,0.0,0.0,0.0,0.0,0.0,0.0,0.0,0.0,0.0,0.0,0.0,0.0,0.0,0.0,0.0,0.0,0.0,0.0,0.0,0.0,0.0,0.0,0.0,0.0,0.0,0.0,0.0,0.0,0.0,0.0,0.0,0.0,0.0,0.0,0.0,0.0,0.0,0.0,0.0,0.0,0.0,0.0,0.0,0.0,0.0,0.0,0.0,0.0,0.0,0.0,0.0,0.0,0.0,0.0,0.0,0.0,0.0,0.0,0.0,0.0,0.0,0.0,0.0,0.0,0.0,0.0,0.0,0.0,0.0,0.0,0.0,0.0,0.0,0.0,0.0,0.0,0.0,0.0,0.0,0.0,0.0,0.0,0.0,0.0,0.0,0.0,0.0,0.0,0.0,0.0,0.0,0.0,0.0,0.0,0.0,0.0,0.0,0.0,0.0,0.0,0.0,0.0,0.0,0.0,0.0,-6.6777,-6.6855,-6.6874,-6.6833,-6.5208,-6.4302,0.0,0.0,0.0,0.0,0.0,0.0,0.0,0.0,0.0,0.0,0.0,0.0,0.0,0.0,0.0,0.0,0.0,0.0,0.0,0.0,0.0,0.0,0.0,0.0,0.0,0.0,0.0,0.0,0.0,0.0,0.0,0.0,0.0,0.0,0.0,0.0,0.0,0.0,0.0,0.0,0.0,0.0,0.0,0.0,0.0,0.0,0.0,0.0,0.0,0.0,0.0,0.0,0.0,0.0,0.0,0.0,0.0,0.0,0.0,0.0,0.0,0.0,0.0,0.0,0.0,0.0,0.0,0.0,0.0,0.0,0.0,0.0,0.0,0.0,0.0,0.0,0.0,0.0,0.0,0.0,0.0,0.0,0.0,0.0,0.0,0.0,0.0,0.0,0.0,0.0,0.0,0.0,0.0,0.0,0.0,0.0,0.0,0.0,0.0,0.0,0.0,0.0,0.0,0.0,0.0,0.0,0.0,0.0,0.0,-6.6054,-6.5527,-6.5234,-6.5193,-6.4098,-6.347,0.0,0.0,0.0,0.0,0.0,0.0,0.0,0.0,0.0,0.0,0.0,0.0,0.0,0.0,0.0,0.0,0.0,0.0,0.0,0.0,0.0,0.0,0.0,0.0,0.0,0.0,0.0,0.0,0.0,0.0,0.0,0.0,0.0,0.0,0.0,0.0,0.0,0.0,0.0,0.0,0.0,0.0,0.0,0.0,0.0,0.0,0.0,0.0,0.0,0.0,0.0,0.0,0.0,0.0,0.0,0.0,0.0,0.0,0.0,0.0,0.0,0.0,0.0,0.0,0.0,0.0,0.0,0.0,0.0,0.0,0.0,0.0,0.0,0.0,0.0,0.0,0.0,0.0,0.0,0.0,0.0,0.0,0.0,0.0,0.0,0.0,0.0,0.0,0.0,0.0,0.0,0.0,0.0,0.0,0.0,0.0,0.0,0.0,0.0,0.0,0.0,0.0,0.0,0.0,0.0,0.0,0.0,0.0,0.0,-6.5211,0.0,-6.4296,-6.4277,-6.3436,-6.2986,0.0,0.0,0.0,0.0,0.0,0.0,0.0,0.0,0.0,0.0,0.0,0.0,0.0,0.0,0.0,0.0,0.0,0.0,0.0,0.0,0.0,0.0,0.0,0.0,0.0,0.0,0.0,0.0,0.0,0.0,0.0,0.0,0.0,0.0,0.0,0.0,0.0,0.0,0.0,0.0,0.0,0.0,0.0,0.0,0.0,0.0,0.0,0.0,0.0,0.0,0.0,0.0,0.0,0.0,0.0,0.0,0.0,0.0,0.0,0.0,0.0,0.0,0.0,0.0,0.0,0.0,0.0,0.0,0.0,0.0,0.0,0.0,0.0,0.0,0.0,0.0,0.0,0.0,0.0,0.0,0.0,0.0,0.0,0.0,0.0,0.0,0.0,0.0,0.0,0.0,0.0,0.0,0.0,0.0,0.0,0.0,0.0,0.0,0.0,0.0,0.0,0.0,0.0,0.0,0.0,0.0,0.0,0.0,-6.5127,-6.4326,-6.4234,-6.4178,-6.4236,-6.3398,-6.2968,0.0,0.0,0.0,0.0,0.0,0.0,0.0,0.0,0.0,0.0,0.0,0.0,0.0,0.0,0.0,0.0,0.0,0.0,0.0,0.0,0.0,0.0,0.0,0.0,0.0,0.0,0.0,0.0,0.0,0.0,0.0,0.0,0.0,0.0,0.0,0.0,0.0,0.0,0.0,0.0,0.0,0.0,0.0,0.0,0.0,0.0,0.0,0.0,0.0,0.0,0.0,0.0,0.0,0.0,0.0,0.0,0.0,0.0,0.0,0.0,0.0,0.0,0.0,0.0,0.0,0.0,0.0,0.0,0.0,0.0,0.0,0.0,0.0,0.0,0.0,0.0,0.0,0.0,0.0,0.0,0.0,0.0,0.0,0.0,0.0,0.0,0.0,0.0,0.0,0.0,0.0,0.0,0.0,0.0,0.0,0.0,0.0,0.0,0.0,0.0,0.0,0.0,0.0,0.0,0.0,0.0,0.0,0.0,0.0,-6.338,-6.2817,-6.2511,-6.2497,-6.2245,-6.2109,0.0,0.0,0.0,0.0,0.0,0.0,0.0,0.0,0.0,0.0,0.0,0.0,0.0,0.0,0.0,0.0,0.0,0.0,0.0,0.0,0.0,0.0,0.0,0.0,0.0,0.0,0.0,0.0,0.0,0.0,0.0,0.0,0.0,0.0,0.0,0.0,0.0,0.0,0.0,0.0,0.0,0.0,0.0,0.0,0.0,0.0,0.0,0.0,0.0,0.0,0.0,0.0,0.0,0.0,0.0,0.0,0.0,0.0,0.0,0.0,0.0,0.0,0.0,0.0,0.0,0.0,0.0,0.0,0.0,0.0,0.0,0.0,0.0,0.0,0.0,0.0,0.0,0.0,0.0,0.0,0.0,0.0,0.0,0.0,0.0,0.0,0.0,0.0,0.0,0.0,0.0,0.0,0.0,0.0,0.0,0.0,0.0,0.0,0.0,0.0,0.0,0.0,0.0,0.0,0.0,0.0,0.0,0.0,0.0,-6.2366,-6.1952,-6.1699,-6.1711,-6.1715,-6.1717,-6.1699,0.0,0.0,0.0,0.0,0.0,0.0,0.0,0.0,0.0,0.0,0.0,0.0,0.0,0.0,0.0,0.0,0.0,0.0,0.0,0.0,0.0,0.0,0.0,0.0,0.0,0.0,0.0,0.0,0.0,0.0,0.0,0.0,0.0,0.0,0.0,0.0,0.0,0.0,0.0,0.0,0.0,0.0,0.0,0.0,0.0,0.0,0.0,0.0,0.0,0.0,0.0,0.0,0.0,0.0,0.0,0.0,0.0,0.0,0.0,0.0,0.0,0.0,0.0,0.0,0.0,0.0,0.0,0.0,0.0,0.0,0.0,0.0,0.0,0.0,0.0,0.0,0.0,0.0,0.0,0.0,0.0,0.0,0.0,0.0,0.0,0.0,0.0,0.0,0.0,0.0,0.0,0.0,0.0,0.0,0.0,0.0,0.0,0.0,0.0,0.0,0.0,0.0,0.0,0.0,0.0,0.0,0.0,0.0,-6.1406,-6.1584,-6.1679,-6.1676,-6.171,-6.1716,0.0,0.0,0.0,0.0,0.0,0.0,0.0,0.0,0.0,0.0,0.0,0.0,0.0,0.0,0.0,0.0,0.0,0.0,0.0,0.0,0.0,0.0,0.0,0.0,0.0,0.0,0.0,0.0,0.0,0.0,0.0,0.0,0.0,0.0,0.0,0.0,0.0,0.0,0.0,0.0,0.0,0.0,0.0,0.0,0.0,0.0,0.0,0.0,0.0,0.0,0.0,0.0,0.0,0.0,0.0,0.0,0.0,0.0,0.0,0.0,0.0,0.0,0.0,0.0,0.0,0.0,0.0,0.0,0.0,0.0,0.0,0.0,0.0,0.0,0.0,0.0,0.0,0.0,0.0,0.0,0.0,0.0,0.0,0.0,0.0,0.0,0.0,0.0,0.0,0.0,0.0,0.0,0.0,0.0,0.0,0.0,0.0,0.0,0.0,0.0,0.0,0.0,0.0,0.0,0.0,0.0,0.0,0.0,0.0,-6.1406,-6.1448,-6.1534,-6.1634,-6.1683,-6.1704,0.0,0.0,0.0,0.0,0.0,0.0,0.0,0.0,0.0,0.0,0.0,0.0,0.0,0.0,0.0,0.0,0.0,0.0,0.0,0.0,0.0,0.0,0.0,0.0,0.0,0.0,0.0,0.0,0.0,0.0,0.0,0.0,0.0,0.0,0.0,0.0,0.0,0.0,0.0,0.0,0.0,0.0,0.0,0.0,0.0,0.0,0.0,0.0,0.0,0.0,0.0,0.0,0.0,0.0,0.0,0.0,0.0,0.0,0.0,0.0,0.0,0.0,0.0,0.0,0.0,0.0,0.0,0.0,0.0,0.0,0.0,0.0,0.0,0.0,0.0,0.0,0.0,0.0,0.0,0.0,0.0,0.0,0.0,0.0,0.0,0.0,0.0,0.0,0.0,0.0,0.0,0.0,0.0,0.0,0.0,0.0,0.0,0.0,0.0,0.0,0.0,0.0,0.0,0.0,0.0,0.0,0.0,0.0,-6.1298,-6.1267,-6.1301,-6.135,-6.145,-6.1588,-6.1657,0.0,0.0,0.0,0.0,0.0,0.0,0.0,0.0,0.0,0.0,0.0,0.0,0.0,0.0,0.0,0.0,0.0,0.0,0.0,0.0,0.0,0.0,0.0,0.0,0.0,0.0,0.0,0.0,0.0,0.0,0.0,0.0,0.0,0.0,0.0,0.0,0.0,0.0,0.0,0.0,0.0,0.0,0.0,0.0,0.0,0.0,0.0,0.0,0.0,0.0,0.0,0.0,0.0,0.0,0.0,0.0,0.0,0.0,0.0,0.0,0.0,0.0,0.0,0.0,0.0,0.0,0.0,0.0,0.0,0.0,0.0,0.0,0.0,0.0,0.0,0.0,0.0,0.0,0.0,0.0,0.0,0.0,0.0,0.0,0.0,0.0,0.0,0.0,0.0,0.0,0.0,0.0,0.0,0.0,0.0,0.0,0.0,0.0,0.0,0.0,0.0,0.0,0.0,0.0,0.0,0.0,0.0,0.0,-6.1169,-6.1099,-6.1161,-6.1228,-6.1287,-6.1475,-6.1588,0.0,0.0,0.0,0.0,0.0,0.0,0.0,0.0,0.0,0.0,0.0,0.0,0.0,0.0,0.0,0.0,0.0,0.0,0.0,0.0,0.0,0.0,0.0,0.0,0.0,0.0,0.0,0.0,0.0,0.0,0.0,0.0,0.0,0.0,0.0,0.0,0.0,0.0,0.0,0.0,0.0,0.0,0.0,0.0,0.0,0.0,0.0,0.0,0.0,0.0,0.0,0.0,0.0,0.0,0.0,0.0,0.0,0.0,0.0,0.0,0.0,0.0,0.0,0.0,0.0,0.0,0.0,0.0,0.0,0.0,0.0,0.0,0.0,0.0,0.0,0.0,0.0,0.0,0.0,0.0,0.0,0.0,0.0,0.0,0.0,0.0,0.0,0.0,0.0,0.0,0.0,0.0,0.0,0.0,0.0,0.0,0.0,0.0,0.0,0.0,0.0,0.0,0.0,0.0,0.0,0.0,0.0,0.0,-6.1098,-6.1099,-6.1117,-6.1136,-6.1145,-6.1329,-6.1485,0.0,0.0,0.0,0.0,0.0,0.0,0.0,0.0,0.0,0.0,0.0,0.0,0.0,0.0,0.0,0.0,0.0,0.0,0.0,0.0,0.0,0.0,0.0,0.0,0.0,0.0,0.0,0.0,0.0,0.0,0.0,0.0,0.0,0.0,0.0,0.0,0.0,0.0,0.0,0.0,0.0,0.0,0.0,0.0,0.0,0.0,0.0,0.0,-6.3389,0.0,0.0,0.0,0.0,0.0,0.0,0.0,0.0,0.0,0.0,0.0,0.0,0.0,0.0,0.0,0.0,0.0,0.0,0.0,0.0,0.0,0.0,0.0,0.0,0.0,0.0,0.0,0.0,0.0,0.0,0.0,0.0,0.0,0.0,0.0,0.0,0.0,0.0,0.0,0.0,0.0,0.0,0.0,0.0,0.0,0.0,0.0,0.0,0.0,0.0,0.0,0.0,0.0,0.0,0.0,0.0,0.0,0.0,0.0,-6.1051,-6.106,-6.106,-6.106,-6.1051,-6.1141,-6.1289,0.0,0.0,0.0,0.0,0.0,0.0,0.0,0.0,0.0,0.0,0.0,0.0,0.0,0.0,0.0,0.0,0.0,0.0,0.0,0.0,0.0,0.0,0.0,0.0,0.0,0.0,0.0,0.0,0.0,0.0,0.0,0.0,0.0,0.0,0.0,0.0,0.0,0.0,0.0,0.0,0.0,0.0,0.0,0.0,0.0,0.0,0.0,0.0,0.0,0.0,0.0,0.0,0.0,0.0,0.0,0.0,0.0,0.0,0.0,0.0,0.0,0.0,0.0,0.0,0.0,0.0,0.0,0.0,0.0,0.0,0.0,0.0,0.0,0.0,0.0,0.0,0.0,0.0,0.0,0.0,0.0,0.0,0.0,0.0,0.0,0.0,0.0,0.0,0.0,0.0,0.0,0.0,0.0,0.0,0.0,0.0,0.0,0.0,0.0,0.0,0.0,0.0,0.0,0.0,0.0,0.0,0.0,-6.1011,-6.101,-6.1017,-6.1006,-6.1006,-6.1006,-6.1,-6.1059,-6.124,0.0,0.0,0.0,0.0,0.0,0.0,0.0,0.0,0.0,0.0,0.0,0.0,0.0,0.0,0.0,0.0,0.0,0.0,0.0,0.0,0.0,0.0,0.0,0.0,0.0,0.0,0.0,0.0,0.0,0.0,0.0,0.0,0.0,0.0,0.0,0.0,0.0,0.0,-6.0704,-6.1326,0.0,0.0,0.0,0.0,0.0,0.0,0.0,0.0,-6.1963,0.0,0.0,0.0,0.0,0.0,0.0,0.0,0.0,0.0,0.0,0.0,0.0,0.0,0.0,0.0,0.0,0.0,0.0,0.0,0.0,0.0,0.0,0.0,0.0,0.0,0.0,0.0,0.0,0.0,0.0,0.0,0.0,0.0,0.0,0.0,0.0,0.0,0.0,0.0,0.0,0.0,0.0,0.0,0.0,0.0,0.0,0.0,0.0,0.0,0.0,0.0,0.0,0.0,0.0,0.0,0.0,-6.1008,-6.1008,-6.0997,-6.1006,-6.1006,-6.1006,-6.1006,-6.0997,-6.101,-6.1051,0.0,0.0,0.0,0.0,0.0,0.0,0.0,0.0,0.0,0.0,0.0,0.0,0.0,0.0,0.0,0.0,0.0,0.0,0.0,0.0,0.0,0.0,0.0,0.0,0.0,0.0,0.0,0.0,0.0,0.0,0.0,0.0,0.0,0.0,0.0,0.0,0.0,0.0,0.0,-6.0751,-6.0828,0.0,0.0,0.0,0.0,0.0,0.0,0.0,0.0,-6.1074,0.0,0.0,0.0,0.0,0.0,0.0,0.0,0.0,0.0,0.0,0.0,0.0,0.0,0.0,0.0,0.0,0.0,0.0,0.0,0.0,0.0,0.0,0.0,0.0,0.0,0.0,0.0,0.0,0.0,0.0,0.0,0.0,0.0,0.0,0.0,0.0,0.0,0.0,0.0,0.0,0.0,0.0,0.0,0.0,0.0,0.0,0.0,0.0,0.0,0.0,0.0,0.0,0.0,0.0,0.0,-6.0891,-6.0891,-6.11,-6.1489,-6.11,-6.1123,-6.1527,-6.1164,-6.0946,0.0,0.0,0.0,0.0,0.0,0.0,0.0,0.0,0.0,0.0,0.0,0.0,0.0,0.0,0.0,0.0,0.0,0.0,0.0,0.0,0.0,0.0,0.0,0.0,0.0,0.0,0.0,0.0,0.0,0.0,0.0,0.0,0.0,0.0,0.0,0.0,0.0,0.0,0.0,0.0,-6.0499,-6.0485,-6.0406,0.0,0.0,0.0,0.0,0.0,0.0,-6.0704,-6.0704,0.0,0.0,0.0,0.0,0.0,0.0,0.0,0.0,0.0,0.0,0.0,0.0,0.0,0.0,0.0,0.0,0.0,0.0,0.0,0.0,0.0,0.0,0.0,0.0,0.0,0.0,0.0,0.0,0.0,0.0,0.0,0.0,0.0,0.0,0.0,0.0,0.0,0.0,0.0,0.0,0.0,0.0,0.0,0.0,0.0,0.0,0.0,0.0,0.0,0.0,0.0,0.0,0.0,0.0,0.0,-6.0765,-6.0753,-6.1132,-6.1902,-6.1337,-6.143,-6.2269,-6.1713,-6.137,0.0,0.0,0.0,0.0,0.0,0.0,0.0,0.0,0.0,0.0,0.0,0.0,0.0,0.0,0.0,0.0,0.0,0.0,0.0,0.0,0.0,0.0,0.0,0.0,0.0,0.0,0.0,0.0,0.0,0.0,0.0,0.0,0.0,0.0,0.0,0.0,0.0,0.0,0.0,0.0,0.0,-6.0285,-6.0173,-6.028,0.0,0.0,0.0,0.0,-6.0493,-6.0493,0.0,0.0,0.0,0.0,0.0,0.0,0.0,0.0,0.0,0.0,0.0,0.0,0.0,0.0,0.0,0.0,0.0,0.0,0.0,0.0,0.0,0.0,0.0,0.0,0.0,0.0,0.0,0.0,0.0,0.0,0.0,0.0,0.0,0.0,0.0,0.0,0.0,0.0,0.0,0.0,0.0,0.0,0.0,0.0,0.0,0.0,0.0,0.0,0.0,0.0,0.0,0.0,0.0,0.0,0.0,0.0,-6.0629,-6.0546,-6.0967,-6.1786,-6.171,-6.2113,-6.3041,-6.3045,-6.3031,0.0,0.0,0.0,0.0,0.0,0.0,0.0,0.0,0.0,0.0,0.0,0.0,0.0,0.0,0.0,0.0,0.0,0.0,0.0,0.0,0.0,0.0,0.0,0.0,0.0,0.0,0.0,0.0,0.0,0.0,0.0,0.0,0.0,0.0,0.0,0.0,0.0,0.0,0.0,0.0,0.0,-6.0041,-6.0026,-5.996,-5.9858,0.0,0.0,-6.003,-6.0148,-6.0163,0.0,0.0,0.0,0.0,0.0,0.0,0.0,0.0,0.0,0.0,0.0,0.0,0.0,0.0,0.0,0.0,0.0,0.0,0.0,0.0,0.0,0.0,0.0,0.0,0.0,0.0,0.0,0.0,0.0,0.0,0.0,0.0,0.0,0.0,0.0,0.0,0.0,0.0,0.0,0.0,0.0,0.0,0.0,0.0,0.0,0.0,0.0,0.0,0.0,0.0,0.0,0.0,0.0,0.0,0.0,-6.0485,-6.0504,-6.0365,-6.1,-6.2304,-6.1926,-6.2336,-6.3685,-6.3332,-6.3142,0.0,0.0,0.0,0.0,0.0,0.0,0.0,0.0,0.0,0.0,0.0,0.0,0.0,0.0,0.0,0.0,0.0,0.0,0.0,0.0,0.0,0.0,0.0,0.0,0.0,0.0,0.0,0.0,0.0,0.0,0.0,0.0,0.0,0.0,0.0,0.0,0.0,0.0,0.0,0.0,0.0,0.0,-5.9631,-5.9594,0.0,0.0,0.0,-5.9708,-5.9741,0.0,0.0,0.0,0.0,0.0,0.0,0.0,0.0,0.0,0.0,0.0,0.0,0.0,0.0,0.0,0.0,0.0,0.0,0.0,0.0,0.0,0.0,0.0,0.0,0.0,0.0,0.0,0.0,0.0,0.0,0.0,0.0,0.0,0.0,0.0,0.0,0.0,0.0,0.0,0.0,0.0,0.0,0.0,0.0,0.0,0.0,0.0,0.0,0.0,0.0,0.0,0.0,0.0,0.0,0.0,0.0,0.0,-6.0256,-6.0125,-6.0822,-6.2284,-6.1789,-6.2292,-6.3963,-6.3551,0.0,0.0,0.0,0.0,0.0,0.0,0.0,0.0,0.0,0.0,0.0,0.0,0.0,0.0,0.0,0.0,0.0,0.0,0.0,0.0,0.0,0.0,0.0,0.0,0.0,0.0,0.0,-6.0552,0.0,0.0,0.0,0.0,0.0,0.0,0.0,0.0,0.0,0.0,0.0,0.0,0.0,0.0,-5.9308,-5.9253,-5.9271,-5.929,0.0,0.0,-5.9362,-5.938,-5.938,-5.9398,0.0,0.0,0.0,0.0,0.0,0.0,0.0,0.0,0.0,0.0,0.0,0.0,0.0,0.0,0.0,0.0,0.0,0.0,0.0,0.0,0.0,0.0,0.0,0.0,0.0,0.0,0.0,0.0,0.0,0.0,0.0,0.0,0.0,0.0,0.0,0.0,0.0,0.0,0.0,0.0,0.0,0.0,0.0,0.0,0.0,0.0,0.0,0.0,0.0,0.0,0.0,0.0,0.0,0.0,-6.0019,-5.9842,-5.976,-6.0181,-6.109,-6.1134,-6.2026,-6.3826,-6.3982,-6.4397,0.0,0.0,0.0,0.0,0.0,0.0,0.0,0.0,0.0,0.0,0.0,0.0,0.0,0.0,0.0,0.0,0.0,0.0,0.0,0.0,0.0,0.0,0.0,0.0,0.0,0.0,0.0,0.0,0.0,0.0,0.0,0.0,0.0,0.0,0.0,0.0,0.0,0.0,0.0,0.0,0.0,-5.9102,-5.9121,-5.9063,-5.8945,0.0,-5.8924,-5.9062,-5.9043,-5.9043,-5.912,-5.9381,0.0,0.0,0.0,0.0,0.0,0.0,0.0,0.0,0.0,0.0,0.0,0.0,0.0,0.0,0.0,0.0,0.0,0.0,0.0,0.0,0.0,0.0,0.0,0.0,0.0,0.0,0.0,0.0,0.0,0.0,0.0,0.0,0.0,0.0,0.0,0.0,0.0,0.0,0.0,0.0,0.0,0.0,0.0,0.0,0.0,0.0,0.0,0.0,0.0,0.0,0.0,0.0,0.0,-5.9812,-5.9746,-5.9559,-5.9868,-6.0734,-6.1386,-6.2285,-6.351,-6.4244,-6.4816,0.0,0.0,0.0,0.0,0.0,0.0,0.0,0.0,0.0,0.0,0.0,0.0,0.0,0.0,0.0,0.0,0.0,0.0,0.0,0.0,0.0,0.0,0.0,0.0,0.0,0.0,0.0,0.0,-5.9842,-5.9727,-5.9694,0.0,0.0,0.0,0.0,0.0,0.0,0.0,0.0,0.0,0.0,-5.8677,-5.8658,-5.8679,0.0,0.0,-5.87,-5.8821,-5.8803,-5.8821,-5.8843,-5.8945,-5.8965,0.0,0.0,0.0,0.0,0.0,0.0,0.0,0.0,0.0,0.0,0.0,0.0,0.0,0.0,0.0,0.0,0.0,0.0,0.0,0.0,0.0,0.0,0.0,0.0,0.0,0.0,0.0,0.0,0.0,0.0,0.0,0.0,0.0,0.0,0.0,0.0,0.0,0.0,0.0,0.0,0.0,0.0,0.0,0.0,0.0,0.0,0.0,0.0,0.0,0.0,0.0,0.0,-5.963,-5.9489,-5.9309,-5.9496,-6.0096,-6.0811,-6.1582,-6.2429,-6.3461,-6.4136,0.0,0.0,0.0,0.0,0.0,0.0,0.0,0.0,0.0,0.0,0.0,0.0,0.0,0.0,0.0,0.0,0.0,0.0,0.0,0.0,0.0,0.0,0.0,0.0,0.0,0.0,0.0,0.0,-5.9505,-5.9307,-5.9215,0.0,0.0,0.0,0.0,0.0,0.0,0.0,0.0,0.0,0.0,-5.8411,-5.8411,-5.844,-5.8465,-5.8465,-5.8569,-5.8612,-5.8612,-5.8612,-5.8612,-5.8612,0.0,0.0,0.0,0.0,0.0,0.0,0.0,0.0,0.0,0.0,0.0,0.0,0.0,0.0,0.0,0.0,0.0,0.0,0.0,0.0,0.0,0.0,0.0,0.0,0.0,0.0,0.0,0.0,0.0,0.0,-6.08,0.0,0.0,0.0,0.0,0.0,0.0,0.0,0.0,0.0,0.0,0.0,0.0,0.0,0.0,0.0,0.0,0.0,0.0,0.0,0.0,0.0,0.0,-5.9419,-5.9024,-5.9004,-5.9001,-5.8937,-5.9038,-5.9568,-6.0489,-6.1392,-6.2238,-6.3028,0.0,0.0,0.0,0.0,0.0,0.0,0.0,0.0,0.0,0.0,0.0,0.0,0.0,0.0,0.0,0.0,0.0,0.0,0.0,0.0,0.0,0.0,0.0,0.0,0.0,0.0,-5.9485,-5.9197,-5.8885,0.0,0.0,0.0,0.0,0.0,0.0,0.0,0.0,0.0,0.0,-5.8411,-5.8411,-5.8411,-5.8411,-5.8393,-5.8393,-5.8393,-5.8393,-5.8415,-5.8415,-5.8411,0.0,0.0,0.0,0.0,0.0,0.0,0.0,0.0,0.0,0.0,0.0,0.0,0.0,0.0,0.0,0.0,0.0,0.0,0.0,0.0,0.0,0.0,0.0,0.0,0.0,0.0,0.0,-6.0476,-6.071,0.0,0.0,0.0,0.0,0.0,0.0,0.0,0.0,0.0,0.0,0.0,-5.9675,-5.9658,0.0,0.0,0.0,0.0,0.0,0.0,0.0,0.0,0.0,0.0,0.0,0.0,-5.9004,-5.8847,-5.8698,-5.859,-5.8585,-5.9239,-5.9754,-6.0056,-6.1081,-6.1985,-6.2751,0.0,0.0,0.0,0.0,0.0,0.0,0.0,0.0,0.0,0.0,0.0,0.0,0.0,0.0,0.0,0.0,0.0,0.0,0.0,0.0,0.0,0.0,0.0,0.0,0.0,-5.8948,0.0,0.0,0.0,0.0,0.0,0.0,0.0,0.0,0.0,0.0,0.0,-5.8242,-5.8152,-5.8152,-5.8152,-5.8129,-5.8219,-5.8264,0.0,0.0,0.0,0.0,0.0,0.0,0.0,0.0,0.0,0.0,0.0,0.0,0.0,0.0,-5.8483,-5.8483,-5.8483,-5.8502,-5.844,0.0,0.0,0.0,0.0,0.0,0.0,0.0,0.0,0.0,0.0,0.0,0.0,0.0,0.0,-6.0585,0.0,-6.048,0.0,0.0,0.0,0.0,0.0,0.0,0.0,0.0,-5.9779,-5.9575,-5.927,-5.9252,-5.9122,0.0,-5.8946,-5.914,0.0,0.0,0.0,0.0,0.0,0.0,0.0,0.0,-5.8723,-5.8658,-5.8483,-5.8411,-5.8411,-5.9026,-5.939,-5.939,-6.0601,-6.1614,-6.2451,-6.2476,-6.2127,0.0,0.0,0.0,0.0,0.0,0.0,0.0,0.0,0.0,0.0,0.0,0.0,0.0,0.0,0.0,0.0,0.0,0.0,0.0,0.0,0.0,0.0,0.0,-5.8574,0.0,0.0,0.0,0.0,0.0,0.0,0.0,0.0,0.0,-5.8111,-5.8111,-5.8106,-5.802,-5.7978,-5.7978,-5.7978,0.0,0.0,0.0,0.0,0.0,0.0,0.0,-5.7751,-5.771,-5.7945,-5.8152,-5.8197,-5.8219,-5.8264,-5.8264,0.0,0.0,-5.8371,-5.8411,-5.8393,-5.8349,-5.8327,-5.8327,-5.8264,-5.8282,-5.8264,0.0,0.0,0.0,0.0,0.0,0.0,0.0,0.0,-6.0453,-6.0373,0.0,-6.0198,0.0,0.0,0.0,0.0,0.0,-5.9861,0.0,0.0,-5.9271,-5.9046,-5.8808,-5.8788,-5.8658,-5.8393,-5.8393,-5.8505,-5.8698,-5.8946,0.0,0.0,0.0,0.0,0.0,0.0,-5.859,-5.8393,-5.8371,-5.839,-5.8371,-5.839,-5.8371,-5.8448,-5.9944,-6.1145,-6.1907,-6.2182,-6.1942,-6.1143,-6.0415,0.0,0.0,0.0,0.0,0.0,0.0,0.0,0.0,0.0,0.0,0.0,0.0,0.0,0.0,0.0,0.0,0.0,0.0,0.0,0.0,-5.8371,0.0,0.0,0.0,0.0,0.0,0.0,0.0,0.0,0.0,0.0,-5.7918,-5.7937,-5.7978,-5.7937,0.0,0.0,0.0,0.0,-5.7629,-5.6854,-5.6744,-5.6447,-5.5564,-5.6072,-5.652,-5.6408,0.0,0.0,-5.7732,-5.7867,-5.7997,-5.7997,-5.7997,-5.8084,-5.8327,-5.8371,-5.8349,-5.8219,-5.8197,-5.8152,-5.8024,-5.802,-5.7997,-5.6463,0.0,0.0,0.0,0.0,-5.9946,-6.0015,-5.9925,-5.9925,-5.9858,-5.9741,-5.9708,0.0,0.0,0.0,0.0,0.0,0.0,-5.9344,-5.9046,-5.8948,-5.8749,-5.8434,-5.8489,-5.8396,-5.8129,-5.8215,-5.8286,-5.8334,-5.8425,-5.8596,-5.8843,0.0,0.0,0.0,0.0,-5.8286,-5.8111,-5.802,-5.7909,-5.7815,-5.7927,-5.802,-5.8129,-5.9692,-6.063,-6.0869,-6.2002,-6.229,-6.1479,-6.0711,0.0,0.0,0.0,0.0,0.0,0.0,0.0,0.0,0.0,0.0,0.0,0.0,0.0,0.0,0.0,0.0,0.0,0.0,0.0,-5.8111,-5.802,-5.795,0.0,0.0,0.0,0.0,0.0,0.0,0.0,0.0,0.0,-5.6935,-5.7374,-5.7502,0.0,0.0,-5.6643,-5.6095,-5.6003,-5.593,-5.5711,-5.5651,0.0,-5.5318,-5.5441,-5.5605,-5.5541,-5.6197,-5.675,-5.6797,-5.7295,-5.7721,-5.7721,-5.7739,-5.7745,-5.7815,-5.7997,-5.8106,-5.8065,-5.8042,-5.8042,-5.7997,-5.7927,-5.7857,-5.6246,-5.7356,-5.8271,-5.907,-5.9689,-5.9708,-5.9658,-5.9594,-5.9575,-5.9542,-5.9417,-5.9417,-5.938,-5.9344,-5.9361,0.0,0.0,0.0,-5.8909,-5.8624,-5.8537,-5.8366,-5.8205,-5.8242,-5.8174,-5.8038,-5.8065,-5.8111,-5.8129,-5.8129,-5.8201,-5.8356,0.0,0.0,-5.8242,-5.8106,-5.7973,-5.7857,-5.7768,-5.7673,-5.7583,-5.7673,-5.7745,-5.7852,-5.9413,-6.0256,-6.0274,-6.1787,-6.2281,-6.1464,-6.0677,-5.9883,0.0,0.0,0.0,0.0,0.0,0.0,0.0,0.0,0.0,0.0,0.0,-5.8205,-5.8174,0.0,0.0,0.0,-5.7904,-5.7857,-5.7857,-5.7768,0.0,0.0,0.0,0.0,0.0,0.0,0.0,-5.6489,-5.6721,-5.6673,-5.5909,-5.6146,-5.6255,-5.5955,-5.5947,-5.5741,-5.5267,0.0,-5.5085,-5.4775,-5.4738,-5.4588,-5.4214,-5.4433,-5.481,-5.5454,-5.5957,-5.6454,-5.6764,-5.7267,-5.7583,-5.7583,-5.7583,-5.7583,-5.7583,-5.7745,-5.7839,-5.7839,-5.7839,-5.7839,-5.7839,-5.7768,-5.7721,-5.5919,-5.6945,-5.7837,-5.8645,-5.9363,-5.9381,-5.9363,-5.9345,-5.9345,-5.9308,-5.9272,-5.9253,-5.9159,-5.9045,-5.9121,0.0,-5.8766,-5.8626,-5.8412,-5.8174,-5.8042,-5.7978,-5.7978,-5.7978,-5.7978,-5.7978,-5.7978,-5.7978,-5.7978,-5.7997,-5.7927,-5.7815,-5.8042,-5.8088,-5.7973,-5.7839,-5.7721,-5.7601,-5.7601,-5.7577,-5.7601,-5.7577,-5.7601,-5.7601,-5.9096,-5.9942,-6.0026,-6.1485,-6.1995,-6.1321,-6.0518,-5.9734,-5.8932,0.0,0.0,0.0,0.0,0.0,0.0,0.0,0.0,0.0,0.0,0.0,0.0,0.0,0.0,0.0,-5.7583,0.0,-5.7601,-5.7577,0.0,0.0,0.0,-5.7553,-5.7553,-5.7553,-5.7261,-5.6514,0.0,0.0,-5.4961,-5.4596,-5.453,-5.4914,-5.4997,-5.5033,-5.4961,-5.4888,-5.4711,-5.3923,-5.3832,-5.3536,-5.2854,-5.3303,-5.4205,-5.5359,-5.5976,-5.6394,-5.7011,-5.7376,-5.7492,-5.7486,-5.7528,-5.7528,-5.751,-5.7504,-5.7553,-5.7528,-5.7577,-5.7583,-5.7607,-5.7601,-5.7601,-5.5816,-5.7334,-5.7481,-5.814,-5.9082,-5.9101,-5.9004,-5.8864,-5.8864,-5.8864,-5.8842,-5.8723,-5.8638,-5.8572,-5.8593,-5.8508,-5.8338,-5.8316,-5.8205,-5.8061,-5.802,-5.7978,-5.7978,-5.7978,-5.7978,-5.7978,-5.7978,-5.7978,-5.7997,-5.7904,-5.7815,-5.7792,-5.7768,-5.7721,-5.7715,-5.7673,-5.7577,-5.7455,-5.7455,-5.7455,-5.7437,-5.7455,-5.7486,-5.7601,-5.8567,-5.937,-5.999,-6.0956,-6.1685,-6.2087,-6.1357,-6.0537,-5.9734,-5.8969,0.0,0.0,0.0,0.0,0.0,0.0,0.0,0.0,0.0,-5.7504,-5.7486,0.0,-5.7601,0.0,-5.7553,-5.7559,-5.7461,-5.7338,0.0,0.0,-5.7206,-5.7156,-5.7156,-5.7138,-5.7033,-5.6732,-5.6122,-5.5422,-5.4665,-5.4004,-5.3374,-5.2937,-5.3376,-5.3538,-5.2961,-5.2834,-5.278,-5.2618,-5.2582,-5.2473,-5.2377,-5.2895,-5.3562,-5.3873,-5.4943,-5.5797,-5.6013,-5.658,-5.6984,-5.7003,-5.7003,-5.7003,-5.7003,-5.6984,-5.7003,-5.7028,-5.7332,-5.7583,-5.7583,-5.751,-5.7437,-5.6032,-5.7344,-5.7696,-5.8187,-5.8721,-5.8762,-5.8721,-5.8614,-5.859,-5.8569,-5.8548,-5.8422,-5.8334,-5.8286,-5.826,-5.8174,-5.8111,-5.8129,-5.8065,-5.7997,-5.7978,-5.7978,-5.7978,-5.7978,-5.7978,-5.7978,-5.795,-5.7927,-5.7904,-5.7768,-5.7673,-5.7607,-5.7553,-5.748,-5.7412,-5.748,-5.7437,-5.7332,-5.7313,-5.7313,-5.7332,-5.7313,-5.7338,-5.7431,-5.8212,-5.883,-5.9285,-6.0412,-6.1067,-6.1131,-6.1067,-6.0477,-5.9263,-5.8783,-5.8166,0.0,0.0,0.0,0.0,0.0,0.0,0.0,0.0,0.0,0.0,0.0,-5.7307,-5.7213,-5.7239,-5.7213,-5.7156,-5.7079,-5.7028,-5.701,-5.6933,-5.6925,-5.6925,-5.6925,-5.6729,-5.6309,-5.5538,-5.474,-5.3961,-5.3146,-5.2415,-5.1967,-5.229,-5.2483,-5.2186,-5.2084,-5.206,-5.192,-5.1878,-5.2021,-5.2344,-5.2909,-5.354,-5.4223,-5.5014,-5.5698,-5.6075,-5.6489,-5.6794,-5.6794,-5.6794,-5.6794,-5.6794,-5.6794,-5.6794,-5.6847,-5.701,-5.7232,-5.7239,-5.7188,-5.7185,-5.6144,-5.7008,-5.7814,-5.8203,-5.8267,-5.8295,-5.8375,-5.8486,-5.8418,-5.8393,-5.8371,-5.826,-5.8197,-5.8174,-5.8061,-5.7978,-5.7978,-5.7978,-5.7978,-5.7978,-5.7978,-5.7978,-5.7978,-5.7978,-5.7997,-5.7973,-5.7857,-5.781,-5.7768,-5.7649,-5.7528,-5.7406,-5.7363,-5.7313,-5.7213,-5.7313,-5.7313,-5.7188,-5.7188,-5.7188,-5.7188,-5.7188,-5.7188,-5.7224,-5.7876,-5.8293,-5.8412,-5.9733,-6.0177,-5.9616,-6.0214,-5.9907,-5.842,-5.8311,-5.7951,0.0,-5.7121,0.0,0.0,0.0,0.0,0.0,0.0,0.0,0.0,-5.6951,-5.6977,-5.6977,-5.6873,-5.6794,-5.6768,-5.6768,-5.6768,-5.6768,-5.6768,-5.6768,-5.6768,-5.6768,-5.6498,-5.5772,-5.495,-5.412,-5.3386,-5.2408,-5.1876,-5.1751,-5.1701,-5.1794,-5.198,-5.1987,-5.1846,-5.1612,-5.1701,-5.2126,-5.2705,-5.3232,-5.4022,-5.5251,-5.5568,-5.5881,-5.6518,-5.6626,-5.6662,-5.6689,-5.6689,-5.6715,-5.6742,-5.676,-5.6742,-5.6715,-5.6742,-5.6786,-5.6839,-5.6991,-5.7172,-5.5251,-5.614,-5.6242,-5.6741,-5.7414,-5.7309,-5.774,-5.8396,-5.8415,-5.8349,-5.826,-5.8219,-5.8152,-5.8042,-5.802,-5.7978,-5.7978,-5.7978,-5.7978,-5.7978,-5.7978,-5.7978,-5.7978,-5.7978,-5.795,-5.7839,-5.7792,-5.7745,-5.7649,-5.7504,-5.7412,-5.7406,-5.7289,-5.7213,-5.7188,0.0,0.0,0.0,-5.7188,-5.7188,-5.7188,-5.7188,-5.7188,-5.7188,-5.7351,0.0,-5.821,-5.8535,-5.8879,-5.9276,-5.9411,0.0,0.0,0.0,0.0,0.0,0.0,0.0,0.0,0.0,0.0,0.0,-5.6492,-5.6546,-5.668,-5.668,-5.6715,-5.6821,-5.6839,-5.6742,-5.6635,-5.6653,-5.6653,-5.6653,-5.6635,-5.6653,-5.6635,-5.6635,-5.651,-5.6295,-5.5544,-5.4732,-5.3903,-5.3161,-5.2429,-5.1833,-5.1513,-5.1487,-5.174,-5.1589,-5.1436,-5.1402,-5.208,-5.2654,-5.2876,-5.3973,-5.4829,-5.5276,-5.5622,-5.5885,-5.6063,-5.607,-5.607,-5.607,-5.6282,-5.6482,-5.6482,-5.6482,-5.6492,-5.6482,-5.6482,-5.6546,-5.676,-5.7334,-5.7819,-5.4945,0.0,-5.5788,-5.6046,0.0,-5.6393,-5.6632,-5.7055,-5.7847,-5.8174,-5.8088,-5.8088,-5.8065,-5.7978,-5.7978,-5.7978,-5.7978,-5.7978,-5.7978,-5.7978,-5.7978,-5.7978,-5.7978,-5.7909,-5.7881,-5.7792,-5.7655,-5.7559,-5.7486,-5.7381,-5.7289,-5.7307,-5.7213,-5.7188,-5.7188,-5.7188,-5.7188,-5.7188,-5.7188,-5.7188,-5.7188,-5.7138,-5.7105,-5.7087,-5.7054,0.0,0.0,0.0,0.0,0.0,0.0,0.0,0.0,0.0,0.0,-5.729,-5.7236,-5.7002,-5.6555,-5.6492,-5.6465,-5.6383,-5.6383,-5.6428,-5.6492,-5.651,-5.6519,-5.66,-5.66,-5.6573,-5.6492,-5.6492,-5.6492,-5.6492,-5.6492,-5.6437,-5.6282,-5.6255,-5.6172,-5.595,-5.5368,-5.4784,-5.4393,-5.3485,-5.2779,-5.2315,-5.1821,-5.1505,-5.1487,-5.1384,-5.1413,-5.1759,-5.2218,-5.2953,-5.3718,-5.4501,-5.5401,-5.5713,-5.5867,-5.5911,-5.5918,-5.5804,-5.5671,-5.5735,-5.5964,-5.6162,-5.6162,-5.6273,-5.6383,-5.6383,-5.6383,-5.6616,-5.7038,-5.7513,-5.805,-5.4564,-5.5192,-5.53,-5.5371,-5.5394,-5.5518,-5.5573,-5.5666,0.0,0.0,0.0,-5.7556,-5.7574,-5.7574,-5.7574,-5.7574,-5.7574,-5.7574,-5.7648,-5.7776,-5.7795,-5.7868,-5.7955,-5.7839,-5.7768,-5.7721,-5.7528,-5.7406,-5.7363,-5.7239,-5.7188,-5.7188,-5.7188,-5.7188,-5.7188,-5.7188,-5.7206,-5.7163,-5.7163,-5.7163,-5.7163,-5.7054,-5.6977,-5.6977,-5.6847,-5.6812,-5.6786,-5.7415,-5.7424,-5.6805,-5.799,-5.8142,-5.6895,-5.7414,-5.7413,-5.6696,-5.6597,-5.6516,-5.6318,-5.63,-5.629,-5.6245,-5.6263,-5.6245,-5.6318,-5.63,-5.63,-5.6263,-5.629,-5.6318,-5.6245,-5.63,-5.63,-5.629,-5.6318,-5.6189,-5.5918,-5.589,-5.5833,-5.556,-5.5228,-5.4892,-5.478,-5.3985,-5.3179,-5.285,-5.2264,-5.1777,-5.1571,-5.1572,-5.1723,-5.2245,-5.2759,-5.3442,-5.4516,-5.5203,-5.566,-5.6112,-5.6014,-5.5833,-5.5804,-5.5648,-5.5531,-5.5619,-5.5822,-5.5975,-5.6021,-5.6217,-5.6373,-5.6346,-5.63,-5.6532,-5.7206,-5.7544,-5.8143,-5.3463,-5.3555,-5.3576,-5.3959,-5.4564,-5.4586,-5.4972,-5.5633,-5.5831,-5.5945,-5.5945,-5.5923,-5.5923,-5.5923,-5.5941,-5.5923,-5.5941,-5.5941,-5.6308,-5.6969,-5.6969,-5.7267,-5.7797,-5.7792,-5.7655,-5.748,-5.7412,-5.7338,-5.7239,-5.7206,-5.7188,-5.7188,-5.7188,-5.7188,-5.7188,-5.7188,-5.7156,-5.7036,-5.7028,-5.7028,-5.701,-5.6899,-5.6839,-5.6821,-5.6794,-5.6742,-5.6635,-5.6734,-5.668,-5.6482,-5.667,-5.6973,-5.7455,-5.7563,-5.7553,-5.7463,-5.7445,-5.7003,-5.6057,-5.5993,-5.5861,-5.5648,-5.5619,-5.5718,-5.5947,-5.5975,-5.5844,-5.5677,-5.5833,-5.5861,-5.5677,-5.585,-5.5936,-5.5839,-5.5908,-5.589,-5.5746,-5.5833,-5.589,-5.5786,-5.5791,-5.5542,-5.5185,-5.492,-5.4277,-5.3217,-5.2703,-5.2316,-5.229,-5.2236,-5.2254,-5.2608,-5.3798,-5.4786,-5.5186,-5.5757,-5.6059,-5.5986,-5.5746,-5.559,-5.559,-5.5561,-5.5561,-5.5793,-5.6032,-5.6245,-5.6273,-5.6373,-5.6273,-5.606,-5.6003,-5.6166,-5.6723,-5.7334,-5.8247,-5.3185,-5.3185,-5.3185,-5.3408,-5.3757,-5.3757,-5.394,-5.4289,-5.4289,-5.506,-5.6161,-5.5794,-5.5831,-5.6198,-5.5776,-5.5614,-5.5611,-5.6051,-5.6455,-5.6822,-5.7244,-5.7579,-5.7774,-5.7739,-5.7583,-5.7406,-5.7313,-5.7282,-5.7188,-5.7188,-5.7188,-5.7188,-5.7188,-5.7188,-5.7188,-5.7188,-5.7138,-5.7003,-5.7003,-5.6977,-5.6899,-5.6591,-5.6411,-5.6411,-5.6209,-5.606,-5.6003,-5.6003,-5.6032,-5.6116,-5.6116,-5.6377,-5.69,-5.6963,-5.6936,-5.6936,-5.6779,-5.645,-5.5936,-5.5775,-5.5572,-5.5366,-5.5425,-5.5472,-5.5425,-5.5572,-5.5631,-5.5502,-5.5601,-5.5648,-5.5531,-5.5601,-5.5677,-5.559,-5.5793,-5.5804,-5.5677,-5.5775,-5.5815,-5.5718,-5.5804,-5.5805,-5.5608,-5.5364,-5.5027,-5.4206,-5.3682,-5.3265,-5.3265,-5.3664,-5.3913,-5.3985,-5.4679,-5.5222,-5.5522,-5.5849,-5.5986,-5.5718,-5.5572,-5.5519,-5.5519,-5.5519,-5.5561,-5.5677,-5.5918,-5.6088,-5.6134,-5.6134,-5.6032,-5.5947,-5.5775,-5.593,-5.6503,-5.7526,-5.8721,-5.3185,-5.3185,-5.3185,-5.3185,-5.3185,-5.3185,-5.3185,-5.3185,-5.3203,-5.4454,-5.6271,-5.5684,-5.5757,-5.6418,-5.5684,-5.5427,-5.5669,-5.6051,-5.6455,-5.6859,-5.7446,-5.7744,-5.7774,-5.7673,-5.751,-5.7406,-5.7264,-5.7188,-5.7188,-5.7188,-5.7188,-5.7188,-5.7188,-5.7188,-5.7188,-5.7181,-5.7087,-5.6951,-5.6855,-5.675,-5.6635,-5.6265,-5.6042,-5.5957,-5.566,-5.5519,-5.5519,-5.5519,-5.5648,-5.589,-5.5918,-5.606,-5.6373,-5.6373,-5.6346,-5.6318,-5.6049,-5.5804,-5.5671,-5.5396,-5.5174,-5.5048,-5.5156,-5.5113,-5.493,-5.5113,-5.5247,-5.5294,-5.5324,-5.5354,-5.5294,-5.5354,-5.5401,-5.5371,-5.5543,-5.5572,-5.5413,-5.5561,-5.5631,-5.5425,-5.5572,-5.5718,-5.5727,-5.5545,-5.5293,-5.5089,-5.4625,-5.4304,-5.4358,-5.4973,-5.5437,-5.5473,-5.5473,-5.5605,-5.5953,-5.6014,-5.5918,-5.5631,-5.5619,-5.5619,-5.5619,-5.5619,-5.5648,-5.5764,-5.589,-5.6003,-5.5947,-5.5918,-5.5861,-5.5689,-5.5484,-5.5599,-5.623,-5.7108,-5.8489,-5.3185,-5.3185,-5.3185,-5.3185,-5.3185,-5.3185,-5.3185,-5.3185,-5.3185,-5.4142,-5.5592,-5.4858,-5.5005,-5.5519,-5.4913,-5.495,-5.55,-5.4913,-5.5445,-5.673,-5.6877,-5.7231,-5.7755,-5.7673,-5.751,-5.7388,-5.7264,-5.7188,-5.7188,-5.7188,-5.7188,-5.7188,-5.7188,-5.7188,-5.7188,-5.7061,-5.6933,-5.6821,-5.6402,-5.6164,-5.6154,-5.5996,-5.5804,-5.5561,-5.5514,-5.5519,-5.5472,-5.5519,-5.5601,-5.589,-5.589,-5.6032,-5.6328,-5.6281,-5.6225,-5.6179,-5.5897,-5.5531,-5.5096,-5.4603,-5.4431,-5.4526,-5.4463,-5.4431,-5.4526,-5.4606,-5.4606,-5.4652,-5.49,-5.4913,-5.4652,-5.4852,-5.4992,-5.4917,-5.5022,-5.5022,-5.4948,-5.5009,-5.5083,-5.5035,-5.5174,-5.5187,-5.5525,-5.568,-5.5652,-5.5374,-5.5223,-5.5098,-5.5152,-5.5669,-5.6151,-5.6222,-5.6258,-5.6231,-5.63,-5.6346,-5.6134,-5.589,-5.5861,-5.5833,-5.5833,-5.5861,-5.5947,-5.6106,-5.6217,-5.6162,-5.6003,-5.589,-5.5689,-5.5306,-5.5148,-5.5187,-5.5583,-5.5983,-5.6866,-5.3185,-5.3185,-5.3185,-5.3185,-5.3185,-5.3185,-5.3185,-5.3185,-5.3185,-5.4106,-5.5467,-5.5244,-5.5537,-5.6253,-5.5464,-5.5302,-5.5574,-5.5739,-5.6161,-5.684,-5.7281,-5.7551,-5.7679,-5.7625,-5.7504,-5.7307,-5.7232,-5.7188,-5.7188,-5.7188,-5.7188,-5.7188,-5.7188,-5.7188,-5.7206,-5.7061,-5.6855,-5.6519,-5.6429,-5.6182,-5.5758,-5.5514,-5.5306,-5.5217,-5.5204,-5.5204,-5.5204,-5.5204,-5.5425,-5.5815,-5.5572,-5.5601,-5.606,-5.5925,-5.5782,-5.5764,-5.5472,-5.5066,-5.4589,-5.4431,-5.435,-5.4318,-5.4367,-5.4399,-5.448,-5.4512,-5.4512,-5.4512,-5.4637,-5.462,-5.4526,-5.462,-5.4683,-5.4669,-5.4838,-5.4961,-5.4917,-5.5161,-5.5294,-5.5294,-5.5294,-5.5324,-5.5502,-5.5718,-5.589,-5.5855,-5.5901,-5.5838,-5.5919,-5.6204,-5.6347,-5.6383,-5.6383,-5.63,-5.6189,-5.6116,-5.5993,-5.5804,-5.5786,-5.589,-5.5947,-5.6088,-5.6245,-5.6401,-5.6245,-5.6106,-5.5947,-5.5572,-5.5247,-5.4974,-5.4776,-5.479,-5.4908,-5.5464,-5.6338,-5.3683,-5.3812,-5.3628,-5.3427,-5.3185,-5.3185,-5.3185,-5.3185,-5.3185,-5.4106,-5.5519,-5.5614,-5.6161,-5.6932,-5.629,-5.6014,-5.6271,-5.6638,-5.6932,-5.7171,-5.7717,-5.7839,-5.7673,-5.7577,-5.7437,-5.7282,-5.7232,-5.7188,-5.7188,-5.7188,-5.7188,-5.7188,-5.7188,-5.7138,-5.7028,-5.6881,-5.6626,-5.6302,-5.6292,-5.606,-5.5648,-5.5294,-5.5144,-5.5144,-5.5144,-5.5126,-5.5144,-5.5161,-5.5366,-5.5861,-5.5396,-5.5366,-5.5861,-5.5601,-5.5366,-5.5312,-5.5083,-5.4762,-5.4303,-5.4367,-5.4367,-5.4303,-5.4367,-5.4431,-5.448,-5.4512,-5.4512,-5.4512,-5.4512,-5.4512,-5.4512,-5.4512,-5.4512,-5.4512,-5.4714,-5.4869,-5.4886,-5.5113,-5.5187,-5.5217,-5.5096,-5.5264,-5.5354,-5.5514,-5.5711,-5.6014,-5.6098,-5.6189,-5.6245,-5.6245,-5.629,-5.6401,-5.6383,-5.63,-5.6088,-5.6088,-5.5936,-5.5879,-5.5964,-5.606,-5.6032,-5.6273,-5.6401,-5.6373,-5.6088,-5.5861,-5.5718,-5.5336,-5.5053,-5.4992,-5.4869,-5.4762,-5.4956,-5.5465,-5.5779,-5.4785,-5.5299,-5.4675,-5.394,-5.3222,-5.3259,-5.3222,-5.3277,-5.3259,-5.4161,-5.5482,-5.5629,-5.6473,-5.7813,-5.7079,-5.7171,-5.7666,-5.7152,-5.7244,-5.7808,-5.7844,-5.7792,-5.7768,-5.7553,-5.7406,-5.7356,-5.7257,-5.7188,-5.7188,-5.7188,-5.7188,-5.7188,-5.7188,-5.7028,-5.6715,-5.6492,-5.6257,-5.6108,-5.5833,-5.5706,-5.5815,-5.5601,-5.5502,-5.5472,-5.5472,-5.5472,-5.5472,-5.5472,-5.5601,-5.589,-5.5572,-5.559,-5.5815,-5.5449,-5.5096,-5.4873,-5.4811,-5.4717,-5.4494,-5.4335,-5.4303,-5.4399,-5.4335,-5.4303,-5.448,-5.4512,-5.4512,-5.4512,-5.4512,-5.4512,-5.4512,-5.4512,-5.4512,-5.4512,-5.4512,-5.4543,-5.4543,-5.4606,-5.4575,-5.4606,-5.462,-5.4776,-5.5022,-5.5022,-5.5277,-5.5561,-5.559,-5.5735,-5.5975,-5.5975,-5.6116,-5.6328,-5.6383,-5.6383,-5.6373,-5.63,-5.6318,-5.6263,-5.6189,-5.6346,-5.6373,-5.6401,-5.6401,-5.6328,-5.6032,-5.5775,-5.5514,-5.5324,-5.5144,-5.5083,-5.5234,-5.5234,-5.5083,-5.5035,-5.5331,-5.4858,-5.5556,-5.528,-5.4987,-5.4748,-5.473,-5.4436,-5.4032,-5.4509,-5.5042,-5.5629,-5.6124,-5.6969,-5.7978,-5.7703,-5.7721,-5.7941,-5.7685,-5.7694,-5.7862,-5.7815,-5.7721,-5.7553,-5.7455,-5.7338,-5.7264,-5.7213,-5.7188,-5.7188,-5.7188,-5.7188,-5.7188,-5.7188,-5.7061,-5.6873,-5.6697,-5.6438,-5.6136,-5.606,-5.6021,-5.5918,-5.6021,-5.5993,-5.5758,-5.5746,-5.566,-5.5519,-5.5519,-5.5619,-5.589,-5.5264,-5.5113,-5.5514,-5.5096,-5.4714,-5.4606,-5.4606,-5.4575,-5.4494,-5.4448,-5.4416,-5.448,-5.4448,-5.4416,-5.448,-5.4512,-5.4512,-5.4512,-5.4512,-5.4512,-5.4512,-5.4512,-5.4512,-5.4512,-5.4512,-5.448,-5.4512,-5.4512,-5.4512,-5.4512,-5.4512,-5.462,-5.493,-5.5174,-5.5443,-5.5718,-5.5936,-5.6077,-5.6162,-5.6217,-5.6245,-5.6373,-5.6383,-5.6383,-5.6383,-5.6383,-5.6401,-5.6401,-5.6383,-5.6383,-5.6401,-5.6401,-5.6383,-5.6328,-5.6032,-5.5775,-5.5543,-5.5531,-5.5324,-5.5341,-5.5443,-5.5618,-5.5174,-5.5436,-5.5397,-5.5702,-5.5959,-5.5978,-5.5812,-5.5633,-5.5614,-5.5321,-5.4858,-5.5376,-5.5721,-5.6069,-5.6565,-5.7244,-5.7905,-5.7978,-5.7978,-5.7978,-5.7978,-5.7927,-5.7792,-5.7745,-5.7607,-5.7431,-5.7338,-5.7307,-5.7213,-5.7188,-5.7188,-5.7188,-5.7188,-5.7188,-5.7188,-5.7188,-5.7087,-5.6899,-5.6742,-5.6438,-5.6182,-5.6199,-5.6162,-5.6077,-5.6172,-5.6134,-5.5918,-5.5815,-5.5689,-5.5519,-5.5519,-5.559,-5.5631,-5.5083,-5.4807,-5.5083,-5.4745,-5.4512,-5.4512,-5.4512,-5.4512,-5.4512,-5.4512,-5.4512,-5.4512,-5.4512,-5.4512,-5.4512,-5.4512,-5.4512,-5.4512,-5.4512,-5.448,-5.4399,-5.4416,-5.4416,-5.4399,-5.4367,-5.4367,-5.4416,-5.4399,-5.4463,-5.4575,-5.4623,-5.4731,-5.4978,-5.5217,-5.5455,-5.5642,-5.5918,-5.6123,-5.6235,-5.6245,-5.63,-5.6355,-5.6383,-5.6383,-5.6383,-5.6383,-5.6383,-5.6383,-5.6383,-5.6383,-5.6383,-5.6383,-5.6355,-5.63,-5.6088,-5.5833,-5.5689,-5.5677,-5.5666,-5.5672,-5.6088,-5.6422,-5.6129,-5.5981,-5.6034,-5.7464,-5.6859,-5.6822,-5.64,-5.5868,-5.5853,-5.5684,-5.5629,-5.5743,-5.618,-5.6657,-5.684,-5.7336,-5.7868,-5.7978,-5.7978,-5.7978,-5.7997,-5.7886,-5.7768,-5.7649,-5.7528,-5.7363,-5.7264,-5.7213,-5.7188,-5.7188,-5.7188,-5.7188,-5.7188,-5.7188,-5.7188,-5.7188,-5.701,-5.6626,-5.6492,-5.6284,-5.6136,-5.6042,-5.6077,-5.63,-5.606,-5.589,-5.5804,-5.5619,-5.5472,-5.5443,-5.546,-5.5443,-5.5425,-5.5144,-5.4824,-5.4589,-5.4512,-5.4512,-5.4512,-5.4512,-5.4512,-5.4512,-5.448,-5.448,-5.4512,-5.4512,-5.448,-5.4512,-5.4512,-5.4512,-5.4512,-5.4512,-5.4448,-5.4303,-5.4222,-5.419,-5.419,-5.4143,-5.4143,-5.4207,-5.4239,-5.4367,-5.4669,-5.478,-5.4873,-5.4992,-5.5174,-5.5336,-5.5378,-5.5543,-5.5793,-5.6021,-5.606,-5.6088,-5.63,-5.6383,-5.6383,-5.6383,-5.6383,-5.6383,-5.6383,-5.6383,-5.6383,-5.6383,-5.6383,-5.6383,-5.6328,-5.6245,-5.5993,-5.5846,-5.5881,-5.6144,-5.625,-5.6794,-5.7087,-5.6856,-5.6667,-5.6844,-5.785,-5.7629,-5.7629,-5.7483,-5.7262,-5.7244,-5.695,-5.651,-5.6987,-5.7079,-5.695,-5.7391,-5.7758,-5.7941,-5.7978,-5.7978,-5.7978,-5.7904,-5.7792,-5.7649,-5.7528,-5.7388,-5.7282,-5.7232,-5.7188,-5.7188,-5.7188,-5.7188,-5.7188,-5.7188,-5.7188,-5.7188,-5.7188,-5.7105,-5.6873,-5.6724,-5.6564,-5.6402,-5.6088,-5.5975,-5.6032,-5.5793,-5.5514,-5.5306,-5.5187,-5.5035,-5.4838,-5.5022,-5.5066,-5.4957,-5.4634,-5.4399,-5.4335,-5.4431,-5.4512,-5.4512,-5.4512,-5.4512,-5.448,-5.4385,-5.4367,-5.4431,-5.4367,-5.4367,-5.448,-5.4512,-5.4512,-5.4512,-5.4512,-5.448,-5.4367,-5.4175,-5.4078,-5.4063,-5.411,-5.4126,-5.419,-5.4448,-5.4637,-5.478,-5.4855,-5.493,-5.5022,-5.5204,-5.5413,-5.5543,-5.5764,-5.6039,-5.6162,-5.6199,-5.6245,-5.6401,-5.6401,-5.6383,-5.6383,-5.6383,-5.6383,-5.6383,-5.6383,-5.6383,-5.6383,-5.6383,-5.6383,-5.6409,-5.6308,-5.6286,-5.6142,-5.6343,-5.6741,-5.6945,-5.7317,-5.7392,-5.725,-5.7377,-5.7602,-5.7978,-5.7978,-5.7978,-5.7978,-5.7978,-5.7978,-5.7721,-5.7354,-5.7776,-5.7703,-5.7428,-5.7758,-5.7978,-5.7978,-5.7978,-5.7978,-5.7973,-5.7792,-5.7673,-5.7601,-5.7461,-5.7332,-5.7213,-5.7188,-5.7188,-5.7188,-5.7188,-5.7188,-5.7188,-5.7188,-5.7188,-5.7188,-5.7188,-5.7112,-5.7003,-5.6873,-5.6689,-5.642,-5.6088,-5.5861,-5.5718,-5.5455,-5.5217,-5.5022,-5.4869,-5.4714,-5.4543,-5.4714,-5.4745,-5.4634,-5.4431,-5.4303,-5.4239,-5.4385,-5.4512,-5.4512,-5.4512,-5.4512,-5.448,-5.4335,-5.4239,-5.4335,-5.4254,-5.4254,-5.4367,-5.4448,-5.4512,-5.4512,-5.4512,-5.448,-5.4367,-5.4207,-5.4045,-5.398,-5.398,-5.4061,-5.419,-5.448,-5.4717,-5.478,-5.4873,-5.4978,-5.5113,-5.5312,-5.5549,-5.5764,-5.6011,-5.6253,-5.6346,-5.6383,-5.6401,-5.6373,-5.6383,-5.6383,-5.6383,-5.6383,-5.6383,-5.6383,-5.6383,-5.6383,-5.6383,-5.6383,-5.6401,-5.6561,-5.656,-5.6934,-5.6872,-5.7463,-5.7865,-5.7942,-5.7862,-5.8062,-5.8125,-5.8223,-5.8359,-5.7978,-5.7978,-5.7978,-5.7978,-5.7978,-5.7978,-5.796,-5.796,-5.7978,-5.796,-5.7941,-5.796,-5.7978,-5.7978,-5.7978,-5.7978,-5.7932,-5.7768,-5.7649,-5.7577,-5.7437,-5.7332,-5.7213,-5.7188,-5.7188,-5.7188,-5.7188,-5.7188,-5.7188,-5.7188,-5.7188,-5.7188,-5.7138,-5.713,-5.6977,-5.6847,-5.651,-5.6164,-5.5975,-5.5735,-5.5472,-5.5144,-5.4961,-5.493,-5.4683,-5.4526,-5.4512,-5.4543,-5.4512,-5.448,-5.4431,-5.4335,-5.4271,-5.4416,-5.4512,-5.4512,-5.4512,-5.4512,-5.4463,-5.4303,-5.419,-5.4239,-5.4222,-5.4207,-5.4239,-5.4416,-5.4512,-5.4512,-5.4512,-5.4448,-5.4303,-5.4207,-5.4143,-5.4013,-5.3948,-5.398,-5.4207,-5.4431,-5.4623,-5.478,-5.4828,-5.4904,-5.5109,-5.5324,-5.5531,-5.5718,-5.5936,-5.6049,-5.6207,-5.6189,-5.63,-5.6273,-5.6189,-5.6217,-5.6162,-5.6217,-5.6245,-5.6383,-5.6401,-5.6418,-5.6525,-5.6579,-5.6668,-5.6811,-5.715,-5.7471,-5.78,-5.8289,-5.8472,-5.8342,-5.8483,-5.8835,-5.8902,-5.8809,-5.8764,-5.7978,-5.7978,-5.7978,-5.7978,-5.7978,-5.7978,-5.7978,-5.7978,-5.7978,-5.7978,-5.7978,-5.7978,-5.7978,-5.7978,-5.7978,-5.7978,-5.7932,-5.7815,-5.7673,-5.7583,-5.7437,-5.7332,-5.7213,-5.7188,-5.7188,-5.7188,-5.7188,-5.7188,-5.7188,-5.7188,-5.7188,-5.7206,-5.6925,-5.6847,-5.6925,-5.651,-5.6247,-5.6052,-5.5775,-5.5425,-5.5126,-5.4807,-5.4637,-5.462,-5.4543,-5.4512,-5.4512,-5.4512,-5.4416,-5.4303,-5.4271,-5.4271,-5.4222,-5.4367,-5.4512,-5.4512,-5.4512,-5.4512,-5.4463,-5.4303,-5.4207,-5.4207,-5.4207,-5.4207,-5.419,-5.4385,-5.448,-5.4512,-5.4512,-5.448,-5.4416,-5.4303,-5.4207,-5.4158,-5.4093,-5.4143,-5.4385,-5.4575,-5.4749,-5.4811,-5.4873,-5.4961,-5.5022,-5.5113,-5.5234,-5.5378,-5.5496,-5.5601,-5.5822,-5.585,-5.5879,-5.5793,-5.5735,-5.5833,-5.5918,-5.5975,-5.6134,-5.6328,-5.6418,-5.6472,-5.6704,-5.6989,-5.7168,-5.7364,-5.7989,-5.8399,-5.8552,-5.8886,-5.8786,-5.8814,-5.899,-5.9257,-5.9052,-5.8908,-5.8925,-5.7978,-5.7978,-5.7978,-5.7978,-5.7978,-5.7978,-5.7978,-5.7978,-5.7978,-5.7978,-5.7978,-5.7978,-5.7978,-5.7978,-5.7978,-5.7978,-5.7997,-5.7881,-5.7703,-5.7577,-5.7406,-5.7282,-5.7213,-5.7188,-5.7188,-5.7188,-5.7188,-5.7188,-5.7188,-5.7188,-5.7156,-5.7003,-5.6742,-5.6582,-5.6456,-5.6182,-5.5815,-5.5642,-5.5396,-5.5126,-5.4807,-5.4589,-5.4543,-5.4512,-5.4512,-5.4512,-5.4512,-5.4512,-5.4399,-5.4271,-5.4271,-5.4303,-5.4222,-5.4416,-5.4512,-5.4512,-5.4512,-5.4512,-5.448,-5.4303,-5.4158,-5.4143,-5.4175,-5.4158,-5.4175,-5.4353,-5.4512,-5.4512,-5.4512,-5.4512,-5.448,-5.4367,-5.4318,-5.4318,-5.4335,-5.4367,-5.4497,-5.4575,-5.4655,-5.4669,-5.4731,-5.4855,-5.4886,-5.4917,-5.5022,-5.5139,-5.5259,-5.5366,-5.5502,-5.5472,-5.549,-5.5472,-5.5561,-5.5746,-5.5982,-5.6085,-5.6365,-5.6577,-5.7096,-5.7025,-5.7239,-5.7596,-5.7818,-5.8192,-5.8799,-5.9204,-5.9236,-5.9342,-5.9523,-5.9545,-5.9626,-5.9399,-5.9165,-5.9012,-5.9012,-5.7978,-5.7978,-5.7978,-5.7978,-5.7978,-5.7978,-5.7978,-5.7978,-5.7978,-5.7978,-5.7978,-5.7978,-5.7978,-5.7978,-5.7978,-5.7978,-5.7978,-5.7904,-5.7745,-5.7577,-5.7381,-5.7188,-5.7188,-5.7188,-5.7188,-5.7188,-5.7188,-5.7188,-5.7188,-5.7188,-5.7036,-5.6847,-5.6635,-5.6338,-5.6042,-5.5775,-5.5425,-5.5156,-5.5096,-5.49,-5.4637,-5.4512,-5.4512,-5.4512,-5.4512,-5.4512,-5.4512,-5.4512,-5.4416,-5.4222,-5.4399,-5.4399,-5.4271,-5.4416,-5.448,-5.4512,-5.4512,-5.4512,-5.448,-5.4335,-5.4175,-5.411,-5.4175,-5.4175,-5.4143,-5.4353,-5.4512,-5.4512,-5.4512,-5.4512,-5.4512,-5.448,-5.448,-5.4463,-5.448,-5.4512,-5.4512,-5.4512,-5.4512,-5.4512,-5.4512,-5.4623,-5.4717,-5.478,-5.4855,-5.4913,-5.4974,-5.5035,-5.5113,-5.5144,-5.5234,-5.5354,-5.5531,-5.5746,-5.6,-5.624,-5.6591,-5.698,-5.7828,-5.8096,-5.8185,-5.8442,-5.8645,-5.8991,-5.9437,-5.9591,-5.9539,-5.9726,-5.991,-5.9791,-5.9516,-5.93,-5.9115,-5.9012,-5.9012,-5.7978,-5.7978,-5.7978,-5.7978,-5.7978,-5.7978,-5.7978,-5.7978,-5.7978,-5.7978,-5.7978,-5.7978,-5.7978,-5.7978,-5.7978,-5.7978,-5.7978,-5.795,-5.7815,-5.7559,-5.7332,-5.7213,-5.7188,-5.7188,-5.7188,-5.7188,-5.7188,-5.7188,-5.7188,-5.7163,-5.7061,-5.6768,-5.6402,-5.6098,-5.5844,-5.5467,-5.5247,-5.5022,-5.4992,-5.4824,-5.4575,-5.4512,-5.4512,-5.4512,-5.4512,-5.4512,-5.4512,-5.4512,-5.448,-5.4448,-5.448,-5.448,-5.4448,-5.448,-5.4512,-5.4512,-5.4512,-5.4512,-5.4512,-5.4448,-5.4353,-5.4207,-5.4289,-5.4335,-5.4207,-5.4353,-5.448,-5.4512,-5.4512,-5.4512,-5.4512,-5.4512,-5.4512,-5.4512,-5.4512,-5.4512,-5.4512,-5.4512,-5.4512,-5.4512,-5.4512,-5.4512,-5.4575,-5.4575,-5.4637,-5.4652,-5.4683,-5.4683,-5.4745,-5.4838,-5.5005,-5.5234,-5.5455,-5.5742,-5.6343,-5.6745,-5.7384,-5.7782,-5.8524,-5.9148,-5.9238,-5.9229,-5.9402,-5.9651,-5.9975,-5.9968,-5.9769,-5.9674,-5.9731,-5.9551,-5.9369,-5.9183,-5.9047,-5.9012,-5.9012,-5.7978,-5.7978,-5.7978,-5.7978,-5.7978,-5.7978,-5.7978,-5.7978,-5.7978,-5.7978,-5.7978,-5.7978,-5.7978,-5.7978,-5.7978,-5.7978,-5.7955,-5.7857,-5.7697,-5.7486,-5.7289,-5.7188,-5.7188,-5.7188,-5.7188,-5.7188,-5.7188,-5.7188,-5.7188,-5.7163,-5.7003,-5.6609,-5.6247,-5.5872,-5.5514,-5.5187,-5.493,-5.4776,-5.4762,-5.4669,-5.4543,-5.4512,-5.4512,-5.4512,-5.4512,-5.4512,-5.4512,-5.4512,-5.4512,-5.4512,-5.4512,-5.4512,-5.4512,-5.4512,-5.4512,-5.4512,-5.4512,-5.4512,-5.4512,-5.4512,-5.4416,-5.4239,-5.4385,-5.4335,-5.4303,-5.4367,-5.448,-5.4512,-5.4512,-5.4512,-5.4512,-5.4512,-5.4512,-5.4512,-5.4512,-5.4512,-5.4512,-5.4512,-5.4512,-5.4512,-5.4512,-5.4512,-5.4512,-5.4512,-5.4512,-5.4606,-5.4589,-5.4589,-5.4793,-5.4886,-5.4974,-5.5187,-5.5396,-5.5824,-5.6551,-5.732,-5.8292,-5.877,-5.9309,-5.9898,-6.0237,-6.0196,-6.0124,-6.0215,-6.0216,-6.0055,-5.9867,-5.9733,-5.9486,-5.9301,-5.9149,-5.9047,-5.9012,-5.9047,-5.9012,-5.7978,-5.7978,-5.7978,-5.7978,-5.7978,-5.7978,-5.7978,-5.7978,-5.7978,-5.7978,-5.7978,-5.7978,-5.7978,-5.7978,-5.7978,-5.7978,-5.7886,-5.7721,-5.7553,-5.7412,-5.7264,-5.7188,-5.7188,-5.7188,-5.7188,-5.7188,-5.7188,-5.7188,-5.7188,-5.7163,-5.6925,-5.6447,-5.6209,-5.5758,-5.5156,-5.4855,-5.4749,-5.4557,-5.4575,-5.4543,-5.4512,-5.4512,-5.4512,-5.4512,-5.4512,-5.4512,-5.4512,-5.4512,-5.4512,-5.4512,-5.4512,-5.4512,-5.4512,-5.4512,-5.4512,-5.4512,-5.4512,-5.4512,-5.4512,-5.4512,-5.4448,-5.4271,-5.4416,-5.4416,-5.4335,-5.4399,-5.448,-5.4512,-5.4512,-5.4512,-5.4512,-5.4512,-5.4512,-5.4512,-5.4512,-5.4512,-5.4512,-5.4512,-5.4512,-5.4512,-5.4512,-5.4512,-5.4512,-5.4512,-5.4512,-5.456,-5.4512,-5.4575,-5.478,-5.5004,-5.5127,-5.5549,-5.5894,-5.6905,-5.7752,-5.8123,-5.9069,-5.952,-6.0024,-6.0297,-6.073,-6.0453,-6.0234,-6.0326,-6.0276,-6.0025,-5.9748,-5.9485,-5.925,-5.9047,-5.9115,-5.9217,-5.9183,-5.9081,-5.9081,-5.7978,-5.7978,-5.7978,-5.7978,-5.7978,-5.7978,-5.7978,-5.7978,-5.7978,-5.7978,-5.7978,-5.7978,-5.7978,-5.7978,-5.7978,-5.795,-5.7815,-5.7673,-5.7528,-5.7388,-5.7264,-5.7188,-5.7188,-5.7188,-5.7188,-5.7188,-5.7188,-5.7188,-5.7188,-5.7163,-5.6855,-5.6447,-5.6172,-5.57,-5.5156,-5.4873,-5.4717,-5.4543,-5.4512,-5.4512,-5.4512,-5.4512,-5.4512,-5.4512,-5.4512,-5.4512,-5.4512,-5.4512,-5.4512,-5.4512,-5.4512,-5.4512,-5.4512,-5.4512,-5.4512,-5.4512,-5.4512,-5.4512,-5.4512,-5.4512,-5.448,-5.448,-5.448,-5.4512,-5.448,-5.448,-5.4512,-5.4512,-5.4512,-5.4512,-5.4512,-5.4512,-5.4512,-5.4512,-5.4512,-5.4512,-5.4512,-5.4512,-5.4512,-5.4512,-5.4512,-5.4512,-5.4512,-5.4543,-5.4623,-5.4637,-5.4637,-5.4745,-5.493,-5.5214,-5.5449,-5.5989,-5.6593,-5.7901,-5.9182,-5.9389,-5.9846,-6.0143,-6.042,-6.0281,-6.049,-6.0307,-6.0234,-6.0171,-5.9993,-5.965,-5.9418,-5.9217,-5.9183,-5.9115,-5.9301,-5.9486,-5.9402,-5.9335,-5.9335,-5.7978,-5.7978,-5.7978,-5.7978,-5.7978,-5.7978,-5.7978,-5.7978,-5.7978,-5.7978,-5.7978,-5.7978,-5.7978,-5.7978,-5.7978,-5.7886,-5.7721,-5.7631,-5.7461,-5.7313,-5.7213,-5.7188,-5.7188,-5.7188,-5.7188,-5.7188,-5.7188,-5.7188,-5.7163,-5.7036,-5.6794,-5.642,-5.6088,-5.5601,-5.5113,-5.4873,-5.4686,-5.4543,-5.4512,-5.4512,-5.4512,-5.4512,-5.4512,-5.4512,-5.4512,-5.4512,-5.4512,-5.4512,-5.4512,-5.4512,-5.4512,-5.4512,-5.4512,-5.4512,-5.4512,-5.4512,-5.4512,-5.4512,-5.4512,-5.4512,-5.4512,-5.4512,-5.4512,-5.4512,-5.4512,-5.4512,-5.4512,-5.4512,-5.4512,-5.4512,-5.4512,-5.4512,-5.4512,-5.4512,-5.4512,-5.4512,-5.4512,-5.4512,-5.4512,-5.4512,-5.4512,-5.4512,-5.4543,-5.4575,-5.4686,-5.4731,-5.4762,-5.4983,-5.5183,-5.5689,-5.6116,-5.6832,-5.7576,-5.8526,-5.9698,-5.9935,-6.0065,-6.0405,-6.053,-6.0374,-6.0216,-6.0025,-5.9896,-5.9831,-5.9584,-5.9351,-5.9217,-5.9081,-5.9149,-5.925,-5.9436,-5.9569,-5.9569,-5.9569,-5.9535,-5.7978,-5.7978,-5.7978,-5.7978,-5.7978,-5.7978,-5.7978,-5.7978,-5.7978,-5.7978,-5.7978,-5.7978,-5.7978,-5.7978,-5.7932,-5.7815,-5.7583,-5.7559,-5.7412,-5.7239,-5.7206,-5.7188,-5.7188,-5.7188,-5.7188,-5.7188,-5.7188,-5.7188,-5.7156,-5.6933,-5.668,-5.6328,-5.5908,-5.5443,-5.5053,-5.4811,-5.4655,-5.4575,-5.4512,-5.4512,-5.4512,-5.4512,-5.4512,-5.4512,-5.4512,-5.4512,-5.4512,-5.4512,-5.4512,-5.4512,-5.4512,-5.4463,-5.4431,-5.448,-5.448,-5.4431,-5.4463,-5.4512,-5.4512,-5.4512,-5.4512,-5.4512,-5.4512,-5.4512,-5.4512,-5.4512,-5.4512,-5.4512,-5.4512,-5.4512,-5.4512,-5.4512,-5.4512,-5.4512,-5.4512,-5.4512,-5.4512,-5.4512,-5.4512,-5.4512,-5.4543,-5.4543,-5.4575,-5.4637,-5.478,-5.5095,-5.5156,-5.5663,-5.5949,-5.6643,-5.7186,-5.7936,-5.8651,-5.9329,-5.9962,-6.0092,-6.0167,-6.0202,-6.0185,-6.0025,-5.9864,-5.97,-5.9602,-5.9518,-5.9418,-5.925,-5.9115,-5.9115,-5.9284,-5.9451,-5.9602,-5.97,-5.9799,-5.9668,-5.9535,-5.7978,-5.7978,-5.7978,-5.7978,-5.7978,-5.7978,-5.7978,-5.7978,-5.7978,-5.7978,-5.7978,-5.7978,-5.7978,-5.7973,-5.7881,-5.7745,-5.7625,-5.7461,-5.7363,-5.7213,-5.7188,-5.7188,-5.7188,-5.7188,-5.7163,-5.7138,-5.7163,-5.7188,-5.7079,-5.6873,-5.6635,-5.63,-5.5729,-5.5271,-5.5022,-5.4731,-5.4526,-5.4512,-5.4512,-5.4512,-5.4512,-5.4512,-5.4512,-5.4512,-5.4512,-5.4512,-5.4512,-5.4512,-5.4512,-5.4512,-5.4512,-5.4399,-5.4303,-5.4399,-5.4385,-5.4335,-5.4367,-5.4512,-5.4512,-5.4512,-5.4512,-5.4512,-5.4512,-5.4512,-5.4512,-5.4512,-5.4512,-5.4512,-5.4512,-5.4512,-5.4512,-5.4512,-5.4512,-5.4512,-5.4512,-5.4512,-5.4512,-5.4512,-5.4512,-5.4575,-5.4637,-5.4606,-5.4589,-5.47,-5.4876,-5.5239,-5.565,-5.619,-5.6744,-5.7457,-5.8247,-5.8975,-5.9203,-5.9796,-5.9867,-6.0076,-6.0019,-5.9961,-5.9781,-5.9617,-5.9518,-5.9418,-5.9284,-5.9217,-5.9183,-5.925,-5.9183,-5.9284,-5.9469,-5.9635,-5.9799,-5.9928,-6.0025,-5.9864,-5.9569,-5.7978,-5.7978,-5.7978,-5.7978,-5.7978,-5.7978,-5.7978,-5.7978,-5.7978,-5.7978,-5.7978,-5.7978,-5.7978,-5.7973,-5.7839,-5.7703,-5.7583,-5.7437,-5.7313,-5.7213,-5.7188,-5.7188,-5.7188,-5.7188,-5.7138,-5.701,-5.6933,-5.6821,-5.6768,-5.6653,-5.6455,-5.6088,-5.5525,-5.5139,-5.4974,-5.4652,-5.4543,-5.4512,-5.4512,-5.4512,-5.4512,-5.4512,-5.4512,-5.4512,-5.4512,-5.4512,-5.4512,-5.4512,-5.4512,-5.4512,-5.4512,-5.4399,-5.4271,-5.4271,-5.4271,-5.4222,-5.4271,-5.4385,-5.448,-5.4512,-5.4512,-5.4512,-5.4512,-5.4512,-5.4512,-5.4512,-5.4512,-5.4512,-5.4512,-5.4512,-5.4512,-5.4512,-5.4512,-5.4512,-5.4512,-5.4512,-5.4512,-5.4512,-5.4512,-5.4637,-5.4766,-5.4801,-5.488,-5.51,-5.5414,-5.5885,-5.64,-5.7045,-5.7628,-5.8275,-5.912,-5.9985,-5.9999,-6.0012,-5.987,-5.9814,-5.9615,-5.9518,-5.9385,-5.925,-5.925,-5.9149,-5.9149,-5.925,-5.9402,-5.9436,-5.9369,-5.9469,-5.9635,-5.9799,-5.9993,-5.9961,-5.9928,-5.9766,-5.9502,-5.7978,-5.7978,-5.7978,-5.7978,-5.7978,-5.7978,-5.7978,-5.7978,-5.7978,-5.7978,-5.7978,-5.7978,-5.7997,-5.7927,-5.7792,-5.7655,-5.7553,-5.7431,-5.7307,-5.7213,-5.7188,-5.7188,-5.7188,-5.7163,-5.7105,-5.6917,-5.6977,-5.6821,-5.6653,-5.6492,-5.6383,-5.5964,-5.5484,-5.5156,-5.5005,-5.4807,-5.4637,-5.4512,-5.4512,-5.4512,-5.4512,-5.4512,-5.4512,-5.4512,-5.4512,-5.4512,-5.4512,-5.4512,-5.4512,-5.4512,-5.4512,-5.4399,-5.4271,-5.4271,-5.4271,-5.4271,-5.4303,-5.4367,-5.448,-5.4512,-5.4512,-5.4512,-5.4512,-5.4512,-5.4512,-5.4512,-5.4512,-5.4512,-5.4512,-5.4512,-5.4512,-5.4512,-5.4512,-5.4512,-5.4512,-5.4512,-5.4512,-5.4512,-5.4575,-5.4717,-5.4911,-5.5191,-5.5318,-5.5549,-5.5962,-5.6526,-5.7163,-5.7871,-5.8489,-5.9099,-5.951,-6.0229,-6.003,-5.9896,-5.9766,-5.9569,-5.9335,-5.9149,-5.9047,-5.9012,-5.9047,-5.9217,-5.9318,-5.9469,-5.9569,-5.9668,-5.9668,-5.97,-5.9733,-5.9799,-5.9799,-5.9799,-5.9733,-5.9569,-5.9418,-5.7978,-5.7978,-5.7978,-5.7978,-5.7978,-5.7978,-5.7978,-5.7978,-5.7978,-5.7978,-5.7978,-5.7978,-5.7927,-5.7815,-5.7673,-5.7534,-5.7412,-5.7282,-5.7213,-5.7213,-5.7188,-5.7188,-5.7188,-5.7206,-5.7181,-5.713,-5.7054,-5.6925,-5.6794,-5.6626,-5.6465,-5.6151,-5.5677,-5.5396,-5.5187,-5.5022,-5.4731,-5.4575,-5.4512,-5.4512,-5.4512,-5.4512,-5.4512,-5.4512,-5.4512,-5.4512,-5.4512,-5.4512,-5.4512,-5.4512,-5.4512,-5.4416,-5.4271,-5.4303,-5.4303,-5.4271,-5.4303,-5.4399,-5.4448,-5.448,-5.4512,-5.4512,-5.4512,-5.4512,-5.4512,-5.4512,-5.4512,-5.4512,-5.4512,-5.4512,-5.4512,-5.4512,-5.4512,-5.4512,-5.4512,-5.4512,-5.4512,-5.4512,-5.4575,-5.478,-5.5095,-5.5531,-5.6208,-5.6549,-5.6798,-5.7346,-5.8277,-5.9006,-5.932,-5.9773,-5.9752,-6.0005,-5.9746,-5.9635,-5.9569,-5.9369,-5.9149,-5.9081,-5.9012,-5.9012,-5.9012,-5.9183,-5.9318,-5.9502,-5.9602,-5.9816,-5.9914,-5.9849,-5.9733,-5.9668,-5.9635,-5.9635,-5.9502,-5.9318,-5.9217,-5.7978,-5.7978,-5.7978,-5.7978,-5.7978,-5.7978,-5.7978,-5.7978,-5.7978,-5.7978,-5.7978,-5.7909,-5.7857,-5.7745,-5.7577,-5.7437,-5.7388,-5.7282,-5.7213,-5.7188,-5.7188,-5.7188,-5.7188,-5.7181,-5.713,-5.7028,-5.6951,-5.6821,-5.6573,-5.6653,-5.6537,-5.6235,-5.5936,-5.5706,-5.5502,-5.5174,-5.4838,-5.4606,-5.4512,-5.4512,-5.4512,-5.4512,-5.4512,-5.4512,-5.4512,-5.4512,-5.4512,-5.4512,-5.4512,-5.4512,-5.4512,-5.4385,-5.4271,-5.4335,-5.4303,-5.4207,-5.4303,-5.4303,-5.4335,-5.4416,-5.4512,-5.4512,-5.4512,-5.4512,-5.4512,-5.4512,-5.4512,-5.4512,-5.4512,-5.4512,-5.4512,-5.4512,-5.4512,-5.4512,-5.4512,-5.4512,-5.4563,-5.4581,-5.49,-5.5213,-5.565,-5.6105,-5.6885,-5.7666,-5.7868,-5.8207,-5.9223,-5.9972,-6.0076,-6.0025,-5.9864,-5.9716,-5.9485,-5.9351,-5.9301,-5.9149,-5.9012,-5.9012,-5.9047,-5.9081,-5.9081,-5.9012,-5.9183,-5.9402,-5.9602,-5.9718,-5.9783,-5.9766,-5.97,-5.9535,-5.9502,-5.9502,-5.9335,-5.9115,-5.9047,-5.7978,-5.7978,-5.7978,-5.7978,-5.7978,-5.7978,-5.7978,-5.7978,-5.7978,-5.7978,-5.7978,-5.7881,-5.7768,-5.7673,-5.7528,-5.7363,-5.7313,-5.7257,-5.7213,-5.7188,-5.7188,-5.7188,-5.7188,-5.7163,-5.713,-5.6951,-5.6907,-5.6803,-5.6715,-5.6653,-5.6626,-5.6519,-5.63,-5.6088,-5.5689,-5.5383,-5.4948,-5.4606,-5.4731,-5.462,-5.4557,-5.4637,-5.4575,-5.4543,-5.4512,-5.4512,-5.4512,-5.4512,-5.4512,-5.4512,-5.448,-5.4448,-5.4335,-5.4271,-5.4271,-5.4239,-5.4207,-5.4158,-5.4207,-5.4303,-5.4399,-5.4367,-5.448,-5.448,-5.4512,-5.4512,-5.4512,-5.4512,-5.4512,-5.4512,-5.4512,-5.4512,-5.4512,-5.4512,-5.4512,-5.4529,-5.4684,-5.477,-5.5228,-5.5698,-5.6174,-5.6721,-5.753,-5.8299,-5.8657,-5.886,-5.9278,-5.98,-5.9791,-5.97,-5.9451,-5.9351,-5.9217,-5.9115,-5.9012,-5.9012,-5.9047,-5.9284,-5.9284,-5.9268,-5.9268,-5.9149,-5.9183,-5.9469,-5.9602,-5.9602,-5.9569,-5.9535,-5.9502,-5.9385,-5.9351,-5.9284,-5.9217,-5.9047,-5.9047,-5.7978,-5.7978,-5.7978,-5.7978,-5.7978,-5.7978,-5.7978,-5.7978,-5.7978,-5.7978,-5.7955,-5.7839,-5.7721,-5.7601,-5.7455,-5.7313,-5.7239,-5.7213,-5.7188,-5.7188,-5.7188,-5.7188,-5.7188,-5.7188,-5.7181,-5.7188,-5.7138,-5.7087,-5.7105,-5.7054,-5.6951,-5.6742,-5.6528,-5.6265,-5.5872,-5.5601,-5.5144,-5.47,-5.5131,-5.49,-5.4683,-5.4714,-5.4669,-5.4575,-5.4512,-5.4512,-5.4512,-5.4512,-5.4512,-5.4512,-5.4512,-5.448,-5.4448,-5.4448,-5.4385,-5.4239,-5.4207,-5.4143,-5.4045,-5.4143,-5.4207,-5.4271,-5.4399,-5.4512,-5.4512,-5.4512,-5.4512,-5.4512,-5.4512,-5.4512,-5.4512,-5.4512,-5.4512,-5.4512,-5.4512,-5.4684,-5.4839,-5.5063,-5.5522,-5.6329,-5.6826,-5.7307,-5.8118,-5.8842,-5.9286,-5.9543,-5.9598,-5.9635,-5.9569,-5.9418,-5.9183,-5.9149,-5.9081,-5.9047,-5.9012,-5.9012,-5.9081,-5.9385,-5.9469,-5.9335,-5.9369,-5.9385,-5.9451,-5.9569,-5.9502,-5.9385,-5.9351,-5.9301,-5.925,-5.9183,-5.9115,-5.9047,-5.9012,-5.9012,-5.9012,-5.7978,-5.7978,-5.7978,-5.7978,-5.7978,-5.7978,-5.7978,-5.7978,-5.7978,-5.795,-5.7839,-5.7721,-5.7601,-5.748,-5.7338,-5.7239,-5.7213,-5.7188,-5.7188,-5.7188,-5.7188,-5.7188,-5.7188,-5.7188,-5.7188,-5.7188,-5.7188,-5.7188,-5.7163,-5.7188,-5.7036,-5.6821,-5.6347,-5.6003,-5.5631,-5.5306,-5.49,-5.4606,-5.47,-5.47,-5.4526,-5.462,-5.4637,-5.4512,-5.4512,-5.4512,-5.4512,-5.4512,-5.4512,-5.4512,-5.4512,-5.4512,-5.4512,-5.4512,-5.4399,-5.4239,-5.4207,-5.4078,-5.3915,-5.3882,-5.3963,-5.4126,-5.4335,-5.448,-5.4512,-5.4512,-5.4512,-5.4512,-5.4512,-5.4512,-5.4512,-5.4512,-5.4512,-5.4512,-5.4598,-5.4908,-5.5132,-5.5391,-5.5855,-5.6973,-5.773,-5.8092,-5.8747,-5.8836,-5.9214,-5.9335,-5.9301,-5.9284,-5.9217,-5.9183,-5.9047,-5.9047,-5.9012,-5.9012,-5.9012,-5.9012,-5.9047,-5.9284,-5.925,-5.9115,-5.925,-5.9485,-5.9385,-5.9284,-5.9217,-5.9165,-5.9149,-5.9149,-5.9081,-5.9012,-5.8978,-5.8978,-5.8944,-5.8978,-5.9012,-5.7978,-5.7978,-5.7978,-5.7978,-5.7978,-5.7978,-5.7978,-5.7978,-5.795,-5.7881,-5.7786,-5.7625,-5.7504,-5.7406,-5.7264,-5.7188,-5.7188,-5.7188,-5.7188,-5.7188,-5.7188,-5.7188,-5.7188,-5.7188,-5.7188,-5.7188,-5.7188,-5.7188,-5.7188,-5.7188,-5.6959,-5.6519,-5.5993,-5.5783,-5.5552,-5.5418,-5.4992,-5.4745,-5.4762,-5.4807,-5.4652,-5.4589,-5.462,-5.4543,-5.4512,-5.4512,-5.4512,-5.4512,-5.4512,-5.4512,-5.4512,-5.4512,-5.4512,-5.448,-5.4399,-5.4271,-5.4045,-5.3915,-5.3701,-5.3717,-5.3849,-5.3963,-5.4222,-5.4399,-5.448,-5.4512,-5.4512,-5.4512,-5.4512,-5.448,-5.448,-5.448,-5.45,-5.4517,-5.4847,-5.5174,-5.5403,-5.5661,-5.6383,-5.7499,-5.8169,-5.8633,-5.896,-5.8926,-5.8978,-5.8961,-5.8892,-5.8927,-5.8944,-5.8944,-5.8944,-5.8944,-5.8978,-5.8978,-5.8978,-5.9012,-5.9081,-5.9183,-5.9149,-5.9081,-5.925,-5.9502,-5.925,-5.9012,-5.9081,-5.9064,-5.9047,-5.9012,-5.8978,-5.8978,-5.8909,-5.8927,-5.8927,-5.8875,-5.8875,-5.7978,-5.7978,-5.7978,-5.7978,-5.7978,-5.7978,-5.7978,-5.7973,-5.7862,-5.7792,-5.7745,-5.7486,-5.7406,-5.7381,-5.7239,-5.7188,-5.7188,-5.7188,-5.7188,-5.7188,-5.7188,-5.7188,-5.7188,-5.7188,-5.7138,-5.7163,-5.7138,-5.7087,-5.7163,-5.7245,-5.6966,-5.6397,-5.593,-5.5933,-5.5999,-5.5676,-5.5226,-5.4974,-5.4859,-5.4842,-5.4589,-5.4714,-5.4669,-5.4575,-5.4512,-5.4512,-5.4512,-5.4512,-5.4512,-5.4512,-5.4512,-5.4512,-5.4512,-5.4512,-5.4367,-5.4175,-5.3882,-5.3701,-5.3584,-5.3634,-5.3684,-5.3799,-5.4028,-5.4271,-5.4399,-5.448,-5.448,-5.4431,-5.4431,-5.4448,-5.4448,-5.4471,-5.4542,-5.4802,-5.5132,-5.5393,-5.5653,-5.6167,-5.697,-5.7723,-5.8168,-5.8546,-5.8737,-5.8754,-5.8754,-5.8719,-5.8736,-5.8754,-5.8788,-5.884,-5.884,-5.8858,-5.8875,-5.8944,-5.8944,-5.8944,-5.9047,-5.9115,-5.9268,-5.9268,-5.9436,-5.9436,-5.9217,-5.9047,-5.9012,-5.9012,-5.9012,-5.8978,-5.8978,-5.8961,-5.8858,-5.884,-5.884,-5.8701,-5.8631,-5.7978,-5.7978,-5.7978,-5.7978,-5.7978,-5.7904,-5.7857,-5.7839,-5.7815,-5.7721,-5.7504,-5.7431,-5.7356,-5.7257,-5.7232,-5.7188,-5.7188,-5.7188,-5.7188,-5.7188,-5.7188,-5.7188,-5.7188,-5.7188,-5.7105,-5.7003,-5.6951,-5.6977,-5.6999,-5.7163,-5.7051,-5.6535,-5.63,-5.6554,-5.6478,-5.605,-5.5635,-5.5277,-5.514,-5.4735,-5.4575,-5.462,-5.4575,-5.4543,-5.4512,-5.4512,-5.4512,-5.4512,-5.4512,-5.4512,-5.4512,-5.4512,-5.4512,-5.448,-5.4385,-5.4078,-5.3849,-5.3668,-5.3517,-5.3534,-5.3618,-5.3717,-5.3915,-5.411,-5.4271,-5.4367,-5.4431,-5.4399,-5.4353,-5.437,-5.4546,-5.4636,-5.4777,-5.5105,-5.5533,-5.5996,-5.6252,-5.673,-5.748,-5.7872,-5.8351,-5.8386,-5.8561,-5.8596,-5.8561,-5.8561,-5.8561,-5.8544,-5.8614,-5.8684,-5.8719,-5.8719,-5.8719,-5.8788,-5.8823,-5.884,-5.8961,-5.9098,-5.92,-5.9268,-5.9217,-5.9149,-5.9115,-5.9047,-5.9012,-5.9012,-5.9012,-5.8978,-5.8961,-5.8823,-5.8736,-5.8753,-5.8718,-5.8542,-5.8419,-5.7978,-5.7978,-5.7978,-5.7973,-5.7927,-5.7839,-5.7745,-5.7649,-5.7667,-5.7553,-5.7406,-5.7356,-5.7282,-5.7213,-5.7188,-5.7188,-5.7188,-5.7188,-5.7188,-5.7188,-5.7188,-5.7188,-5.7188,-5.7163,-5.7054,-5.6899,-5.6873,-5.6951,-5.6841,-5.673,-5.6598,-5.6638,-5.6743,-5.7074,-5.7067,-5.671,-5.6439,-5.5943,-5.5458,-5.4736,-5.4529,-5.4546,-5.4512,-5.4512,-5.4512,-5.4512,-5.4512,-5.4512,-5.4512,-5.448,-5.4448,-5.4385,-5.4367,-5.4303,-5.4175,-5.3915,-5.3783,-5.3634,-5.3517,-5.3501,-5.3551,-5.3685,-5.3917,-5.4013,-5.4175,-5.4303,-5.4385,-5.4416,-5.4323,-5.4312,-5.4607,-5.4868,-5.516,-5.5451,-5.6048,-5.666,-5.7,-5.7322,-5.7713,-5.8123,-5.8312,-5.8331,-5.8384,-5.8384,-5.8384,-5.8331,-5.8295,-5.8207,-5.8331,-5.8473,-5.8544,-5.8596,-5.8596,-5.8596,-5.8648,-5.8718,-5.884,-5.8927,-5.9012,-5.9047,-5.8978,-5.9012,-5.9047,-5.9012,-5.9012,-5.8978,-5.8978,-5.8927,-5.8875,-5.8736,-5.8544,-5.849,-5.8419,-5.8312,-5.8224,-5.7978,-5.7978,-5.7978,-5.7927,-5.781,-5.7792,-5.7649,-5.7412,-5.7406,-5.7363,-5.7356,-5.7282,-5.7206,-5.7188,-5.7188,-5.7188,-5.7188,-5.7188,-5.7188,-5.7188,-5.7188,-5.7188,-5.7188,-5.7163,-5.7036,-5.6977,-5.6899,-5.6829,-5.6591,-5.6555,-5.6605,-5.6588,-5.6348,-5.6885,-5.7936,-5.7285,-5.7097,-5.7213,-5.6059,-5.5012,-5.477,-5.4649,-5.4546,-5.4512,-5.4512,-5.4512,-5.4512,-5.4512,-5.4497,-5.4399,-5.4335,-5.4239,-5.4379,-5.4348,-5.4168,-5.424,-5.436,-5.4295,-5.4211,-5.4161,-5.4025,-5.4042,-5.4022,-5.4222,-5.4472,-5.4389,-5.4434,-5.4694,-5.4718,-5.4881,-5.5191,-5.5553,-5.5894,-5.6183,-5.6657,-5.7046,-5.7299,-5.7552,-5.7808,-5.808,-5.8116,-5.8152,-5.8188,-5.8188,-5.8188,-5.8135,-5.8099,-5.7991,-5.8027,-5.8224,-5.8295,-5.8384,-5.8348,-5.8348,-5.8455,-5.8561,-5.8701,-5.8788,-5.8875,-5.8978,-5.8978,-5.8978,-5.9012,-5.9012,-5.9012,-5.8978,-5.8961,-5.8909,-5.8771,-5.8596,-5.8438,-5.826,-5.8135,-5.808,-5.8044,-5.7978,-5.7978,-5.7978,-5.7927,-5.7792,-5.7697,-5.7553,-5.7388,-5.7289,-5.7239,-5.7257,-5.7213,-5.7188,-5.7188,-5.7188,-5.7188,-5.7188,-5.7188,-5.7188,-5.7188,-5.7188,-5.7188,-5.7188,-5.7188,-5.7036,-5.6899,-5.6794,-5.6635,-5.6288,-5.6421,-5.6774,-5.6909,-5.6921,-5.7769,-5.8782,-5.8077,-5.7871,-5.8142,-5.7025,-5.5805,-5.5408,-5.5253,-5.5167,-5.4753,-5.4512,-5.4512,-5.4512,-5.4512,-5.4416,-5.4303,-5.4222,-5.4499,-5.5048,-5.5032,-5.5325,-5.5669,-5.5585,-5.5433,-5.5349,-5.5213,-5.5145,-5.5298,-5.5349,-5.511,-5.4903,-5.4664,-5.4672,-5.4989,-5.5236,-5.5481,-5.5791,-5.6218,-5.6522,-5.6841,-5.7107,-5.7309,-5.7509,-5.7645,-5.7814,-5.7918,-5.7954,-5.7954,-5.7991,-5.7991,-5.7954,-5.7954,-5.7954,-5.7918,-5.7918,-5.8027,-5.8063,-5.8116,-5.8063,-5.808,-5.8224,-5.8384,-5.8525,-5.8666,-5.8788,-5.8892,-5.8995,-5.8978,-5.9012,-5.9012,-5.8978,-5.8961,-5.8909,-5.8823,-5.8718,-5.849,-5.8331,-5.8152,-5.8027,-5.7954,-5.7918,-5.7978,-5.7997,-5.7932,-5.7792,-5.7625,-5.7553,-5.7455,-5.7313,-5.7213,-5.7188,-5.7188,-5.7188,-5.7188,-5.7188,-5.7188,-5.7188,-5.7188,-5.7188,-5.7188,-5.7188,-5.7188,-5.7188,-5.7188,-5.7188,-5.7028,-5.6847,-5.6715,-5.6455,-5.6095,-5.6447,-5.6917,-5.7079,-5.7612,-5.8337,-5.9144,-5.8666,-5.8441,-5.8626,-5.7665,-5.6874,-5.6115,-5.577,-5.5253,-5.4736,-5.4512,-5.4512,-5.4512,-5.4512,-5.4448,-5.4475,-5.4533,-5.4678,-5.5158,-5.5432,-5.5858,-5.6149,-5.6285,-5.6371,-5.632,-5.6269,-5.6184,-5.6201,-5.6167,-5.5672,-5.557,-5.5344,-5.5201,-5.5478,-5.5686,-5.5911,-5.6406,-5.6865,-5.6776,-5.6906,-5.6953,-5.7105,-5.7137,-5.7188,-5.7526,-5.7918,-5.7918,-5.7918,-5.7918,-5.7918,-5.7918,-5.7918,-5.7918,-5.7881,-5.7881,-5.7881,-5.7881,-5.7881,-5.7881,-5.7918,-5.8044,-5.8188,-5.8331,-5.849,-5.8666,-5.8823,-5.8961,-5.8978,-5.9012,-5.8978,-5.8927,-5.8875,-5.8823,-5.8718,-5.8525,-5.8331,-5.8188,-5.8044,-5.7954,-5.7881,-5.7881,-5.7973,-5.795,-5.7839,-5.7649,-5.7431,-5.7406,-5.7313,-5.7213,-5.7188,-5.7188,-5.7188,-5.7188,-5.7188,-5.7188,-5.7188,-5.7188,-5.7188,-5.7188,-5.7188,-5.7188,-5.7188,-5.7188,-5.7188,-5.7163,-5.7028,-5.6873,-5.6689,-5.6508,-5.6276,-5.6588,-5.6799,-5.7047,-5.7595,-5.8219,-5.8702,-5.8961,-5.8926,-5.8736,-5.8133,-5.7478,-5.6771,-5.6029,-5.527,-5.477,-5.4512,-5.4512,-5.4512,-5.4512,-5.4512,-5.4817,-5.5068,-5.5415,-5.5655,-5.6065,-5.6491,-5.6833,-5.7004,-5.6919,-5.6782,-5.6799,-5.661,-5.6473,-5.6423,-5.6355,-5.6268,-5.6167,-5.6064,-5.6029,-5.6235,-5.6509,-5.7003,-5.7206,-5.7065,-5.6718,-5.6733,-5.6833,-5.6833,-5.685,-5.7289,-5.778,-5.7881,-5.7881,-5.7881,-5.7881,-5.7881,-5.7881,-5.7881,-5.7881,-5.7881,-5.7881,-5.7881,-5.7881,-5.7881,-5.7918,-5.7918,-5.7991,-5.8152,-5.8295,-5.8473,-5.8719,-5.8927,-5.8944,-5.8944,-5.8909,-5.8892,-5.8823,-5.8631,-5.8455,-5.8295,-5.8152,-5.808,-5.7971,-5.7918,-5.7881,-5.7881,-5.7857,-5.7857,-5.7792,-5.7649,-5.7431,-5.7406,-5.7332,-5.7213,-5.7188,-5.7188,-5.7188,-5.7188,-5.7188,-5.7188,-5.7188,-5.7188,-5.7188,-5.7188,-5.7188,-5.7188,-5.7188,-5.7188,-5.7188,-5.7163,-5.7087,-5.6925,-5.6734,-5.6593,-5.6303,-5.6362,-5.6551,-5.6886,-5.7511,-5.7978,-5.815,-5.8478,-5.8823,-5.8564,-5.8116,-5.7409,-5.6702,-5.596,-5.5253,-5.4805,-5.4512,-5.4512,-5.4512,-5.4512,-5.4795,-5.5233,-5.5737,-5.6218,-5.6577,-5.6866,-5.7328,-5.7671,-5.7791,-5.7773,-5.7704,-5.7617,-5.7461,-5.7458,-5.7409,-5.7219,-5.7235,-5.7303,-5.7085,-5.6831,-5.6985,-5.7141,-5.7465,-5.7464,-5.7308,-5.6536,-5.6262,-5.653,-5.6681,-5.685,-5.7154,-5.7577,-5.7881,-5.7881,-5.7881,-5.7881,-5.7881,-5.7881,-5.7881,-5.7881,-5.7881,-5.7881,-5.7881,-5.7881,-5.7881,-5.7881,-5.7918,-5.7918,-5.8027,-5.8152,-5.8331,-5.8596,-5.8788,-5.8961,-5.8961,-5.8892,-5.8806,-5.8683,-5.849,-5.826,-5.8152,-5.8027,-5.7954,-5.7918,-5.7881,-5.7881,-5.7881]},{"header":{"parameterUnit":"m.s-1","parameterCategory":1,"la1":31.0,"la2":29.5877,"lo1":-88.7671,"lo2":-86.6584,"dy":0.0162,"dx":0.0185,"nx":115,"ny":88,"refTime":"2023-03-31T18:00:00:Z","depth":0,"parameterNumber":3,"parameterNumberName":"V-component_of_WINDS"},"data":[0.0,0.0,0.0,0.0,0.0,0.0,0.0,0.0,0.0,0.0,0.0,0.0,0.0,0.0,0.0,0.0,0.0,0.0,0.0,0.0,0.0,0.0,0.0,0.0,0.0,0.0,0.0,0.0,0.0,0.0,0.0,0.0,0.0,0.0,0.0,0.0,0.0,0.0,0.0,0.0,0.0,0.0,0.0,0.0,0.0,0.0,0.0,0.0,0.0,0.0,0.0,0.0,0.0,0.0,0.0,0.0,0.0,0.0,0.0,0.0,0.0,0.0,0.0,0.0,0.0,0.0,0.0,0.0,0.0,0.0,0.0,0.0,0.0,0.0,0.0,0.0,0.0,0.0,0.0,0.0,0.0,0.0,0.0,0.0,0.0,0.0,0.0,0.0,0.0,0.0,0.0,0.0,0.0,0.0,0.0,0.0,0.0,0.0,0.0,0.0,0.0,0.0,0.0,0.0,0.0,0.0,0.0,0.0,0.0,0.0,0.0,0.0,0.0,0.0,0.0,0.0,0.0,0.0,0.0,0.0,0.0,0.0,0.0,0.0,0.0,0.0,0.0,0.0,0.0,0.0,0.0,0.0,0.0,0.0,0.0,0.0,0.0,0.0,0.0,0.0,0.0,0.0,0.0,0.0,0.0,0.0,0.0,0.0,0.0,0.0,0.0,0.0,0.0,0.0,0.0,0.0,0.0,0.0,0.0,0.0,0.0,0.0,0.0,0.0,0.0,0.0,0.0,0.0,0.0,0.0,0.0,0.0,0.0,0.0,0.0,0.0,0.0,0.0,0.0,0.0,0.0,0.0,0.0,0.0,0.0,0.0,0.0,0.0,0.0,0.0,0.0,0.0,0.0,0.0,0.0,0.0,0.0,0.0,0.0,0.0,0.0,0.0,0.0,0.0,0.0,0.0,0.0,0.0,0.0,0.0,0.0,0.0,0.0,0.0,0.0,0.0,0.0,0.0,0.0,0.0,0.0,0.0,0.0,0.0,0.0,0.0,0.0,0.0,0.0,0.0,0.0,0.0,0.0,0.0,0.0,0.0,0.0,0.0,0.0,0.0,0.0,0.0,0.0,0.0,0.0,0.0,0.0,0.0,0.0,0.0,0.0,0.0,0.0,0.0,0.0,0.0,0.0,0.0,0.0,0.0,0.0,0.0,0.0,0.0,0.0,0.0,0.0,0.0,0.0,0.0,0.0,0.0,0.0,0.0,0.0,0.0,0.0,0.0,0.0,0.0,0.0,0.0,0.0,0.0,0.0,0.0,0.0,0.0,0.0,0.0,0.0,0.0,0.0,0.0,0.0,0.0,0.0,0.0,0.0,0.0,0.0,0.0,0.0,0.0,0.0,0.0,0.0,0.0,0.0,0.0,0.0,0.0,0.0,0.0,0.0,0.0,0.0,0.0,0.0,0.0,0.0,0.0,0.0,0.0,0.0,0.0,0.0,0.0,0.0,0.0,0.0,0.0,0.0,0.0,0.0,0.0,0.0,0.0,0.0,0.0,0.0,0.0,0.0,0.0,0.0,0.0,0.0,0.0,0.0,0.0,0.0,0.0,0.0,0.0,0.0,0.0,0.0,0.0,0.0,0.0,0.0,0.0,0.0,0.0,0.0,0.0,0.0,0.0,0.0,0.0,0.0,0.0,0.0,0.0,0.0,0.0,0.0,0.0,0.0,0.0,0.0,0.0,0.0,0.0,0.0,0.0,0.0,0.0,0.0,0.0,0.0,0.0,0.0,0.0,0.0,0.0,0.0,0.0,0.0,0.0,0.0,0.0,0.0,0.0,0.0,0.0,0.0,0.0,0.0,0.0,0.0,0.0,0.0,0.0,0.0,0.0,0.0,0.0,0.0,0.0,0.0,0.0,0.0,0.0,0.0,0.0,0.0,0.0,0.0,0.0,0.0,0.0,0.0,0.0,0.0,0.0,0.0,0.0,0.0,0.0,0.0,0.0,0.0,0.0,0.0,0.0,0.0,0.0,0.0,0.0,0.0,0.0,0.0,0.0,0.0,0.0,0.0,0.0,0.0,0.0,0.0,0.0,0.0,0.0,0.0,0.0,0.0,0.0,0.0,0.0,0.0,0.0,0.0,0.0,0.0,0.0,0.0,0.0,0.0,0.0,0.0,0.0,0.0,0.0,0.0,0.0,0.0,0.0,0.0,0.0,0.0,0.0,0.0,0.0,0.0,0.0,0.0,0.0,0.0,0.0,0.0,0.0,0.0,0.0,0.0,0.0,0.0,0.0,0.0,0.0,0.0,0.0,0.0,0.0,0.0,0.0,0.0,0.0,0.0,0.0,0.0,0.0,0.0,0.0,0.0,0.0,0.0,0.0,0.0,0.0,0.0,0.0,0.0,0.0,0.0,0.0,0.0,0.0,0.0,0.0,0.0,0.0,0.0,0.0,0.0,0.0,0.0,0.0,0.0,0.0,0.0,0.0,0.0,0.0,0.0,0.0,0.0,0.0,0.0,0.0,0.0,0.0,0.0,0.0,0.0,0.0,0.0,0.0,0.0,0.0,0.0,0.0,0.0,0.0,0.0,0.0,0.0,0.0,0.0,0.0,0.0,0.0,0.0,0.0,0.0,0.0,0.0,0.0,0.0,0.0,0.0,0.0,0.0,0.0,0.0,0.0,0.0,0.0,0.0,0.0,0.0,0.0,0.0,0.0,0.0,0.0,0.0,0.0,0.0,0.0,0.0,0.0,0.0,0.0,0.0,0.0,0.0,0.0,0.0,0.0,0.0,0.0,0.0,0.0,0.0,0.0,0.0,0.0,0.0,0.0,0.0,0.0,0.0,0.0,0.0,0.0,0.0,0.0,0.0,0.0,0.0,0.0,0.0,0.0,0.0,0.0,0.0,0.0,0.0,0.0,0.0,0.0,0.0,0.0,0.0,0.0,0.0,0.0,0.0,0.0,0.0,0.0,0.0,0.0,0.0,0.0,0.0,0.0,0.0,0.0,0.0,0.0,0.0,0.0,0.0,0.0,0.0,0.0,0.0,0.0,0.0,0.0,0.0,0.0,0.0,0.0,0.0,0.0,0.0,0.0,0.0,0.0,0.0,0.0,0.0,0.0,0.0,0.0,0.0,0.0,0.0,0.0,0.0,0.0,0.0,0.0,0.0,0.0,0.0,0.0,0.0,0.0,0.0,0.0,0.0,0.0,0.0,0.0,0.0,0.0,0.0,0.0,0.0,0.0,0.0,0.0,0.0,0.0,0.0,0.0,0.0,0.0,0.0,0.0,0.0,0.0,0.0,0.0,0.0,0.0,0.0,0.0,0.0,0.0,0.0,0.0,0.0,0.0,0.0,0.0,0.0,0.0,0.0,0.0,0.0,0.0,0.0,0.0,0.0,0.0,0.0,0.0,0.0,0.0,0.0,0.0,0.0,0.0,0.0,0.0,0.0,0.0,0.0,0.0,0.0,0.0,0.0,0.0,0.0,0.0,0.0,0.0,0.0,0.0,0.0,0.0,0.0,0.0,0.0,0.0,0.0,0.0,0.0,0.0,0.0,0.0,0.0,0.0,0.0,0.0,0.0,0.0,0.0,0.0,0.0,0.0,0.0,0.0,0.0,0.0,0.0,0.0,0.0,0.0,0.0,0.0,0.0,0.0,0.0,0.0,0.0,0.0,0.0,0.0,0.0,0.0,0.0,0.0,0.0,0.0,0.0,0.0,0.0,0.0,0.0,0.0,0.0,0.0,0.0,0.0,0.0,0.0,0.0,0.0,0.0,0.0,0.0,0.0,0.0,0.0,0.0,0.0,0.0,0.0,0.0,0.0,0.0,0.0,0.0,0.0,0.0,0.0,0.0,0.0,0.0,0.0,0.0,0.0,0.0,0.0,0.0,0.0,0.0,0.0,0.0,0.0,0.0,0.0,0.0,0.0,0.0,0.0,0.0,0.0,0.0,0.0,0.0,0.0,0.0,0.0,0.0,0.0,0.0,0.0,0.0,0.0,0.0,0.0,0.0,0.0,0.0,0.0,0.0,0.0,0.0,0.0,0.0,0.0,0.0,0.0,0.0,0.0,0.0,0.0,0.0,0.0,0.0,0.0,0.0,0.0,0.0,0.0,0.0,0.0,0.0,0.0,0.0,0.0,0.0,0.0,0.0,0.0,0.0,0.0,0.0,0.0,0.0,0.0,0.0,0.0,0.0,0.0,0.0,0.0,0.0,0.0,0.0,0.0,0.0,0.0,0.0,0.0,0.0,0.0,0.0,0.0,0.0,0.0,0.0,0.0,0.0,0.0,0.0,0.0,0.0,0.0,-0.2898,0.0,0.0,0.0,0.0,0.0,0.0,0.0,0.0,0.0,0.0,0.0,0.0,0.0,0.0,0.0,0.0,0.0,0.0,0.0,0.0,0.0,0.0,0.0,0.0,0.0,0.0,0.0,0.0,0.0,0.0,0.0,0.0,0.0,0.0,0.0,0.0,0.0,0.0,0.0,0.0,0.0,0.0,0.0,0.0,0.0,0.0,0.0,0.0,0.0,0.0,0.0,0.0,0.0,0.0,0.0,0.0,0.0,0.0,0.0,0.0,0.0,0.0,0.0,0.0,0.0,0.0,0.0,0.0,0.0,0.0,0.0,0.0,0.0,0.0,0.0,0.0,0.0,0.0,0.0,0.0,0.0,0.0,0.0,0.0,0.0,0.0,0.0,0.0,0.0,0.0,0.0,0.0,0.0,0.0,0.0,0.0,0.0,0.0,0.0,0.0,0.0,0.0,0.0,0.0,0.0,0.0,0.0,0.0,0.0,0.0,-0.1237,-0.2024,-0.2011,-0.2198,-0.2711,0.0,0.0,0.0,0.0,0.0,0.0,0.0,0.0,0.0,0.0,0.0,0.0,0.0,0.0,0.0,0.0,0.0,0.0,0.0,0.0,0.0,0.0,0.0,0.0,0.0,0.0,0.0,0.0,0.0,0.0,0.0,0.0,0.0,0.0,0.0,0.0,0.0,0.0,0.0,0.0,0.0,0.0,0.0,0.0,0.0,0.0,0.0,0.0,0.0,0.0,0.0,0.0,0.0,0.0,0.0,0.0,0.0,0.0,0.0,0.0,0.0,0.0,0.0,0.0,0.0,0.0,0.0,0.0,0.0,0.0,0.0,0.0,0.0,0.0,0.0,0.0,0.0,0.0,0.0,0.0,0.0,0.0,0.0,0.0,0.0,0.0,0.0,0.0,0.0,0.0,0.0,0.0,0.0,0.0,0.0,0.0,0.0,0.0,0.0,0.0,0.0,0.0,0.0,0.0,0.0,0.0,0.0,0.0,0.0,0.0,0.0,0.0,-0.1733,-0.2068,-0.2734,0.0,0.0,0.0,0.0,0.0,0.0,0.0,0.0,0.0,0.0,0.0,0.0,0.0,0.0,0.0,0.0,0.0,0.0,0.0,0.0,0.0,0.0,0.0,0.0,0.0,0.0,0.0,0.0,0.0,0.0,0.0,0.0,0.0,0.0,0.0,0.0,0.0,0.0,0.0,0.0,0.0,0.0,0.0,0.0,0.0,0.0,0.0,0.0,0.0,0.0,0.0,0.0,0.0,0.0,0.0,0.0,0.0,0.0,0.0,0.0,0.0,0.0,0.0,0.0,0.0,0.0,0.0,0.0,0.0,0.0,0.0,0.0,0.0,0.0,0.0,0.0,0.0,0.0,0.0,0.0,0.0,0.0,0.0,0.0,0.0,0.0,0.0,0.0,0.0,0.0,0.0,0.0,0.0,0.0,0.0,0.0,0.0,0.0,0.0,0.0,0.0,0.0,0.0,0.0,0.0,0.0,0.0,0.0,0.0,0.0,-0.0948,-0.175,-0.182,0.0,-0.2735,0.0,0.0,0.0,0.0,0.0,0.0,0.0,0.0,0.0,0.0,0.0,0.0,0.0,0.0,0.0,0.0,0.0,0.0,0.0,0.0,0.0,0.0,0.0,0.0,0.0,0.0,0.0,0.0,0.0,0.0,0.0,0.0,0.0,0.0,0.0,0.0,0.0,0.0,0.0,0.0,0.0,0.0,0.0,0.0,0.0,0.0,0.0,0.0,0.0,0.0,0.0,0.0,0.0,0.0,0.0,0.0,0.0,0.0,0.0,0.0,0.0,0.0,0.0,0.0,0.0,0.0,0.0,0.0,0.0,0.0,0.0,0.0,0.0,0.0,0.0,0.0,0.0,0.0,0.0,0.0,0.0,0.0,0.0,0.0,0.0,0.0,0.0,0.0,0.0,0.0,0.0,0.0,0.0,0.0,0.0,0.0,0.0,0.0,0.0,0.0,0.0,0.0,0.0,0.0,0.0,0.0,0.0,0.0,0.0,0.0,-0.0511,-0.1094,-0.1509,-0.1985,0.0,0.0,0.0,0.0,0.0,0.0,0.0,0.0,0.0,0.0,0.0,0.0,0.0,0.0,0.0,0.0,0.0,0.0,0.0,0.0,0.0,0.0,0.0,0.0,0.0,0.0,0.0,0.0,0.0,0.0,0.0,0.0,0.0,0.0,0.0,0.0,0.0,0.0,0.0,0.0,0.0,0.0,0.0,0.0,0.0,0.0,0.0,0.0,0.0,0.0,0.0,0.0,0.0,0.0,0.0,0.0,0.0,0.0,0.0,0.0,0.0,0.0,0.0,0.0,0.0,0.0,0.0,0.0,0.0,0.0,0.0,0.0,0.0,0.0,0.0,0.0,0.0,0.0,0.0,0.0,0.0,0.0,0.0,0.0,0.0,0.0,0.0,0.0,0.0,0.0,0.0,0.0,0.0,0.0,0.0,0.0,0.0,0.0,0.0,0.0,0.0,0.0,0.0,0.0,0.0,0.0,0.0,0.0,0.0,0.0,0.0,-0.0219,-0.0583,-0.1209,-0.1684,-0.2035,0.0,0.0,0.0,0.0,0.0,0.0,0.0,0.0,0.0,0.0,0.0,0.0,0.0,0.0,0.0,0.0,0.0,0.0,0.0,0.0,0.0,0.0,0.0,0.0,0.0,0.0,0.0,0.0,0.0,0.0,0.0,0.0,0.0,0.0,0.0,0.0,0.0,0.0,0.0,0.0,0.0,0.0,0.0,0.0,0.0,0.0,0.0,0.0,0.0,0.0,0.0,0.0,0.0,0.0,0.0,0.0,0.0,0.0,0.0,0.0,0.0,0.0,0.0,0.0,0.0,0.0,0.0,0.0,0.0,0.0,0.0,0.0,0.0,0.0,0.0,0.0,0.0,0.0,0.0,0.0,0.0,0.0,0.0,0.0,0.0,0.0,0.0,0.0,0.0,0.0,0.0,0.0,0.0,0.0,0.0,0.0,0.0,0.0,0.0,0.0,0.0,0.0,0.0,0.0,0.0,0.0,0.0,0.0,0.0,0.0,-0.0219,-0.0583,-0.0925,-0.1333,0.0,0.0,0.0,0.0,0.0,0.0,0.0,0.0,0.0,0.0,0.0,0.0,0.0,0.0,0.0,0.0,0.0,0.0,0.0,0.0,0.0,0.0,0.0,0.0,0.0,0.0,0.0,0.0,0.0,0.0,0.0,0.0,0.0,0.0,0.0,0.0,0.0,0.0,0.0,0.0,0.0,0.0,0.0,0.0,0.0,0.0,0.0,0.0,0.0,0.0,0.0,0.0,0.0,0.0,0.0,0.0,0.0,0.0,0.0,0.0,0.0,0.0,0.0,0.0,0.0,0.0,0.0,0.0,0.0,0.0,0.0,0.0,0.0,0.0,0.0,0.0,0.0,0.0,0.0,0.0,0.0,0.0,0.0,0.0,0.0,0.0,0.0,0.0,0.0,0.0,0.0,0.0,0.0,0.0,0.0,0.0,0.0,0.0,0.0,0.0,0.0,0.0,0.0,0.0,0.0,0.0,0.0,0.0,0.0,0.036,0.0286,0.0,-0.0569,-0.0699,-0.09,0.0,0.0,0.0,0.0,0.0,0.0,0.0,0.0,0.0,0.0,0.0,0.0,0.0,0.0,0.0,0.0,0.0,0.0,0.0,0.0,0.0,0.0,0.0,0.0,0.0,0.0,0.0,0.0,0.0,0.0,0.0,0.0,0.0,0.0,0.0,0.0,0.0,0.0,0.0,0.0,0.0,0.0,0.0,0.0,0.0,0.0,0.0,0.0,0.0,0.0,0.0,0.0,0.0,0.0,0.0,0.0,0.0,0.0,0.0,0.0,0.0,0.0,0.0,0.0,0.0,0.0,0.0,0.0,0.0,0.0,0.0,0.0,0.0,0.0,0.0,0.0,0.0,0.0,0.0,0.0,0.0,0.0,0.0,0.0,0.0,0.0,0.0,0.0,0.0,0.0,0.0,0.0,0.0,0.0,0.0,0.0,0.0,0.0,0.0,0.0,0.0,0.0,0.0,0.0,0.0,0.0,0.0,0.0,0.0,0.0711,0.0,0.0281,-0.021,-0.0346,-0.055,0.0,0.0,0.0,0.0,0.0,0.0,0.0,0.0,0.0,0.0,0.0,0.0,0.0,0.0,0.0,0.0,0.0,0.0,0.0,0.0,0.0,0.0,0.0,0.0,0.0,0.0,0.0,0.0,0.0,0.0,0.0,0.0,0.0,0.0,0.0,0.0,0.0,0.0,0.0,0.0,0.0,0.0,0.0,0.0,0.0,0.0,0.0,0.0,0.0,0.0,0.0,0.0,0.0,0.0,0.0,0.0,0.0,0.0,0.0,0.0,0.0,0.0,0.0,0.0,0.0,0.0,0.0,0.0,0.0,0.0,0.0,0.0,0.0,0.0,0.0,0.0,0.0,0.0,0.0,0.0,0.0,0.0,0.0,0.0,0.0,0.0,0.0,0.0,0.0,0.0,0.0,0.0,0.0,0.0,0.0,0.0,0.0,0.0,0.0,0.0,0.0,0.0,0.0,0.0,0.0,0.0,0.0,0.0,0.1137,0.1123,0.0701,0.049,0.0491,0.0207,-0.0137,0.0,0.0,0.0,0.0,0.0,0.0,0.0,0.0,0.0,0.0,0.0,0.0,0.0,0.0,0.0,0.0,0.0,0.0,0.0,0.0,0.0,0.0,0.0,0.0,0.0,0.0,0.0,0.0,0.0,0.0,0.0,0.0,0.0,0.0,0.0,0.0,0.0,0.0,0.0,0.0,0.0,0.0,0.0,0.0,0.0,0.0,0.0,0.0,0.0,0.0,0.0,0.0,0.0,0.0,0.0,0.0,0.0,0.0,0.0,0.0,0.0,0.0,0.0,0.0,0.0,0.0,0.0,0.0,0.0,0.0,0.0,0.0,0.0,0.0,0.0,0.0,0.0,0.0,0.0,0.0,0.0,0.0,0.0,0.0,0.0,0.0,0.0,0.0,0.0,0.0,0.0,0.0,0.0,0.0,0.0,0.0,0.0,0.0,0.0,0.0,0.0,0.0,0.0,0.0,0.0,0.0,0.0,0.0,0.0,0.1521,0.1371,0.1023,0.0545,0.0407,0.0203,0.0,0.0,0.0,0.0,0.0,0.0,0.0,0.0,0.0,0.0,0.0,0.0,0.0,0.0,0.0,0.0,0.0,0.0,0.0,0.0,0.0,0.0,0.0,0.0,0.0,0.0,0.0,0.0,0.0,0.0,0.0,0.0,0.0,0.0,0.0,0.0,0.0,0.0,0.0,0.0,0.0,0.0,0.0,0.0,0.0,0.0,0.0,0.0,0.0,0.0,0.0,0.0,0.0,0.0,0.0,0.0,0.0,0.0,0.0,0.0,0.0,0.0,0.0,0.0,0.0,0.0,0.0,0.0,0.0,0.0,0.0,0.0,0.0,0.0,0.0,0.0,0.0,0.0,0.0,0.0,0.0,0.0,0.0,0.0,0.0,0.0,0.0,0.0,0.0,0.0,0.0,0.0,0.0,0.0,0.0,0.0,0.0,0.0,0.0,0.0,0.0,0.0,0.0,0.0,0.0,0.0,0.0,0.0,0.0,0.3064,0.2231,0.1548,0.0943,0.0673,0.0404,0.0202,0.0,0.0,0.0,0.0,0.0,0.0,0.0,0.0,0.0,0.0,0.0,0.0,0.0,0.0,0.0,0.0,0.0,0.0,0.0,0.0,0.0,0.0,0.0,0.0,0.0,0.0,0.0,0.0,0.0,0.0,0.0,0.0,0.0,0.0,0.0,0.0,0.0,0.0,0.0,0.0,0.0,0.0,0.0,0.0,0.0,0.0,0.0,0.0,0.0,0.0,0.0,0.0,0.0,0.0,0.0,0.0,0.0,0.0,0.0,0.0,0.0,0.0,0.0,0.0,0.0,0.0,0.0,0.0,0.0,0.0,0.0,0.0,0.0,0.0,0.0,0.0,0.0,0.0,0.0,0.0,0.0,0.0,0.0,0.0,0.0,0.0,0.0,0.0,0.0,0.0,0.0,0.0,0.0,0.0,0.0,0.0,0.0,0.0,0.0,0.0,0.0,0.0,0.0,0.0,0.0,0.0,0.0,0.0,0.5372,0.343,0.2221,0.1682,0.101,0.0539,0.0,0.0,0.0,0.0,0.0,0.0,0.0,0.0,0.0,0.0,0.0,0.0,0.0,0.0,0.0,0.0,0.0,0.0,0.0,0.0,0.0,0.0,0.0,0.0,0.0,0.0,0.0,0.0,0.0,0.0,0.0,0.0,0.0,0.0,0.0,0.0,0.0,0.0,0.0,0.0,0.0,0.0,0.0,0.0,0.0,0.0,0.0,0.0,0.0,0.0,0.0,0.0,0.0,0.0,0.0,0.0,0.0,0.0,0.0,0.0,0.0,0.0,0.0,0.0,0.0,0.0,0.0,0.0,0.0,0.0,0.0,0.0,0.0,0.0,0.0,0.0,0.0,0.0,0.0,0.0,0.0,0.0,0.0,0.0,0.0,0.0,0.0,0.0,0.0,0.0,0.0,0.0,0.0,0.0,0.0,0.0,0.0,0.0,0.0,0.0,0.0,0.0,0.0,0.0,0.0,0.0,0.0,0.0,0.0,0.5372,0.5106,0.4235,0.2826,0.2087,0.1346,0.0,0.0,0.0,0.0,0.0,0.0,0.0,0.0,0.0,0.0,0.0,0.0,0.0,0.0,0.0,0.0,0.0,0.0,0.0,0.0,0.0,0.0,0.0,0.0,0.0,0.0,0.0,0.0,0.0,0.0,0.0,0.0,0.0,0.0,0.0,0.0,0.0,0.0,0.0,0.0,0.0,0.0,0.0,0.0,0.0,0.0,0.0,0.0,0.0,0.0,0.0,0.0,0.0,0.0,0.0,0.0,0.0,0.0,0.0,0.0,0.0,0.0,0.0,0.0,0.0,0.0,0.0,0.0,0.0,0.0,0.0,0.0,0.0,0.0,0.0,0.0,0.0,0.0,0.0,0.0,0.0,0.0,0.0,0.0,0.0,0.0,0.0,0.0,0.0,0.0,0.0,0.0,0.0,0.0,0.0,0.0,0.0,0.0,0.0,0.0,0.0,0.0,0.0,0.0,0.0,0.0,0.0,0.0,0.6849,0.6777,0.6646,0.5975,0.4836,0.3362,0.2288,0.0,0.0,0.0,0.0,0.0,0.0,0.0,0.0,0.0,0.0,0.0,0.0,0.0,0.0,0.0,0.0,0.0,0.0,0.0,0.0,0.0,0.0,0.0,0.0,0.0,0.0,0.0,0.0,0.0,0.0,0.0,0.0,0.0,0.0,0.0,0.0,0.0,0.0,0.0,0.0,0.0,0.0,0.0,0.0,0.0,0.0,0.0,0.0,0.0,0.0,0.0,0.0,0.0,0.0,0.0,0.0,0.0,0.0,0.0,0.0,0.0,0.0,0.0,0.0,0.0,0.0,0.0,0.0,0.0,0.0,0.0,0.0,0.0,0.0,0.0,0.0,0.0,0.0,0.0,0.0,0.0,0.0,0.0,0.0,0.0,0.0,0.0,0.0,0.0,0.0,0.0,0.0,0.0,0.0,0.0,0.0,0.0,0.0,0.0,0.0,0.0,0.0,0.0,0.0,0.0,0.0,0.0,0.0,0.7917,0.8587,0.7984,0.745,0.7118,0.4771,0.3362,0.0,0.0,0.0,0.0,0.0,0.0,0.0,0.0,0.0,0.0,0.0,0.0,0.0,0.0,0.0,0.0,0.0,0.0,0.0,0.0,0.0,0.0,0.0,0.0,0.0,0.0,0.0,0.0,0.0,0.0,0.0,0.0,0.0,0.0,0.0,0.0,0.0,0.0,0.0,0.0,0.0,0.0,0.0,0.0,0.0,0.0,0.0,0.0,0.0,0.0,0.0,0.0,0.0,0.0,0.0,0.0,0.0,0.0,0.0,0.0,0.0,0.0,0.0,0.0,0.0,0.0,0.0,0.0,0.0,0.0,0.0,0.0,0.0,0.0,0.0,0.0,0.0,0.0,0.0,0.0,0.0,0.0,0.0,0.0,0.0,0.0,0.0,0.0,0.0,0.0,0.0,0.0,0.0,0.0,0.0,0.0,0.0,0.0,0.0,0.0,0.0,0.0,0.0,0.0,0.0,0.0,0.0,0.0,0.8451,0.8587,0.8454,0.832,0.8253,0.6378,0.4637,0.0,0.0,0.0,0.0,0.0,0.0,0.0,0.0,0.0,0.0,0.0,0.0,0.0,0.0,0.0,0.0,0.0,0.0,0.0,0.0,0.0,0.0,0.0,0.0,0.0,0.0,0.0,0.0,0.0,0.0,0.0,0.0,0.0,0.0,0.0,0.0,0.0,0.0,0.0,0.0,0.0,0.0,0.0,0.0,0.0,0.0,0.0,0.0,1.004,0.0,0.0,0.0,0.0,0.0,0.0,0.0,0.0,0.0,0.0,0.0,0.0,0.0,0.0,0.0,0.0,0.0,0.0,0.0,0.0,0.0,0.0,0.0,0.0,0.0,0.0,0.0,0.0,0.0,0.0,0.0,0.0,0.0,0.0,0.0,0.0,0.0,0.0,0.0,0.0,0.0,0.0,0.0,0.0,0.0,0.0,0.0,0.0,0.0,0.0,0.0,0.0,0.0,0.0,0.0,0.0,0.0,0.0,0.0,0.892,0.9125,0.9125,0.9125,0.9056,0.7982,0.6577,0.0,0.0,0.0,0.0,0.0,0.0,0.0,0.0,0.0,0.0,0.0,0.0,0.0,0.0,0.0,0.0,0.0,0.0,0.0,0.0,0.0,0.0,0.0,0.0,0.0,0.0,0.0,0.0,0.0,0.0,0.0,0.0,0.0,0.0,0.0,0.0,0.0,0.0,0.0,0.0,0.0,0.0,0.0,0.0,0.0,0.0,0.0,0.0,0.0,0.0,0.0,0.0,0.0,0.0,0.0,0.0,0.0,0.0,0.0,0.0,0.0,0.0,0.0,0.0,0.0,0.0,0.0,0.0,0.0,0.0,0.0,0.0,0.0,0.0,0.0,0.0,0.0,0.0,0.0,0.0,0.0,0.0,0.0,0.0,0.0,0.0,0.0,0.0,0.0,0.0,0.0,0.0,0.0,0.0,0.0,0.0,0.0,0.0,0.0,0.0,0.0,0.0,0.0,0.0,0.0,0.0,0.0,0.9186,0.9322,0.9664,0.9731,0.9731,0.9731,0.9389,0.8446,0.6842,0.0,0.0,0.0,0.0,0.0,0.0,0.0,0.0,0.0,0.0,0.0,0.0,0.0,0.0,0.0,0.0,0.0,0.0,0.0,0.0,0.0,0.0,0.0,0.0,0.0,0.0,0.0,0.0,0.0,0.0,0.0,0.0,0.0,0.0,0.0,0.0,0.0,0.0,1.1251,1.1435,0.0,0.0,0.0,0.0,0.0,0.0,0.0,0.0,1.0647,0.0,0.0,0.0,0.0,0.0,0.0,0.0,0.0,0.0,0.0,0.0,0.0,0.0,0.0,0.0,0.0,0.0,0.0,0.0,0.0,0.0,0.0,0.0,0.0,0.0,0.0,0.0,0.0,0.0,0.0,0.0,0.0,0.0,0.0,0.0,0.0,0.0,0.0,0.0,0.0,0.0,0.0,0.0,0.0,0.0,0.0,0.0,0.0,0.0,0.0,0.0,0.0,0.0,0.0,0.0,0.0,0.9594,0.9594,0.9661,0.9731,0.9731,0.9731,0.9731,0.9661,0.9322,0.8648,0.0,0.0,0.0,0.0,0.0,0.0,0.0,0.0,0.0,0.0,0.0,0.0,0.0,0.0,0.0,0.0,0.0,0.0,0.0,0.0,0.0,0.0,0.0,0.0,0.0,0.0,0.0,0.0,0.0,0.0,0.0,0.0,0.0,0.0,0.0,0.0,0.0,0.0,0.0,1.174,1.1755,0.0,0.0,0.0,0.0,0.0,0.0,0.0,0.0,1.0632,0.0,0.0,0.0,0.0,0.0,0.0,0.0,0.0,0.0,0.0,0.0,0.0,0.0,0.0,0.0,0.0,0.0,0.0,0.0,0.0,0.0,0.0,0.0,0.0,0.0,0.0,0.0,0.0,0.0,0.0,0.0,0.0,0.0,0.0,0.0,0.0,0.0,0.0,0.0,0.0,0.0,0.0,0.0,0.0,0.0,0.0,0.0,0.0,0.0,0.0,0.0,0.0,0.0,0.0,0.0,1.019,1.019,1.0362,1.0635,1.0362,1.0228,1.0296,1.0098,0.9857,0.0,0.0,0.0,0.0,0.0,0.0,0.0,0.0,0.0,0.0,0.0,0.0,0.0,0.0,0.0,0.0,0.0,0.0,0.0,0.0,0.0,0.0,0.0,0.0,0.0,0.0,0.0,0.0,0.0,0.0,0.0,0.0,0.0,0.0,0.0,0.0,0.0,0.0,0.0,0.0,1.2309,1.2375,1.2565,0.0,0.0,0.0,0.0,0.0,0.0,1.1251,1.1251,0.0,0.0,0.0,0.0,0.0,0.0,0.0,0.0,0.0,0.0,0.0,0.0,0.0,0.0,0.0,0.0,0.0,0.0,0.0,0.0,0.0,0.0,0.0,0.0,0.0,0.0,0.0,0.0,0.0,0.0,0.0,0.0,0.0,0.0,0.0,0.0,0.0,0.0,0.0,0.0,0.0,0.0,0.0,0.0,0.0,0.0,0.0,0.0,0.0,0.0,0.0,0.0,0.0,0.0,0.0,1.092,1.0986,1.1192,1.1543,1.1161,1.097,1.105,1.0604,1.0407,0.0,0.0,0.0,0.0,0.0,0.0,0.0,0.0,0.0,0.0,0.0,0.0,0.0,0.0,0.0,0.0,0.0,0.0,0.0,0.0,0.0,0.0,0.0,0.0,0.0,0.0,0.0,0.0,0.0,0.0,0.0,0.0,0.0,0.0,0.0,0.0,0.0,0.0,0.0,0.0,0.0,1.3227,1.3547,1.3157,0.0,0.0,0.0,0.0,1.2239,1.2239,0.0,0.0,0.0,0.0,0.0,0.0,0.0,0.0,0.0,0.0,0.0,0.0,0.0,0.0,0.0,0.0,0.0,0.0,0.0,0.0,0.0,0.0,0.0,0.0,0.0,0.0,0.0,0.0,0.0,0.0,0.0,0.0,0.0,0.0,0.0,0.0,0.0,0.0,0.0,0.0,0.0,0.0,0.0,0.0,0.0,0.0,0.0,0.0,0.0,0.0,0.0,0.0,0.0,0.0,0.0,0.0,1.1648,1.1975,1.2058,1.194,1.1925,1.1793,1.1613,1.1258,1.1114,0.0,0.0,0.0,0.0,0.0,0.0,0.0,0.0,0.0,0.0,0.0,0.0,0.0,0.0,0.0,0.0,0.0,0.0,0.0,0.0,0.0,0.0,0.0,0.0,0.0,0.0,0.0,0.0,0.0,0.0,0.0,0.0,0.0,0.0,0.0,0.0,0.0,0.0,0.0,0.0,0.0,1.4207,1.4272,1.4464,1.4716,0.0,0.0,1.3997,1.3748,1.3682,0.0,0.0,0.0,0.0,0.0,0.0,0.0,0.0,0.0,0.0,0.0,0.0,0.0,0.0,0.0,0.0,0.0,0.0,0.0,0.0,0.0,0.0,0.0,0.0,0.0,0.0,0.0,0.0,0.0,0.0,0.0,0.0,0.0,0.0,0.0,0.0,0.0,0.0,0.0,0.0,0.0,0.0,0.0,0.0,0.0,0.0,0.0,0.0,0.0,0.0,0.0,0.0,0.0,0.0,0.0,1.2375,1.2379,1.2762,1.2966,1.303,1.274,1.2682,1.2812,1.2382,1.2131,0.0,0.0,0.0,0.0,0.0,0.0,0.0,0.0,0.0,0.0,0.0,0.0,0.0,0.0,0.0,0.0,0.0,0.0,0.0,0.0,0.0,0.0,0.0,0.0,0.0,0.0,0.0,0.0,0.0,0.0,0.0,0.0,0.0,0.0,0.0,0.0,0.0,0.0,0.0,0.0,0.0,0.0,1.5839,1.5829,0.0,0.0,0.0,1.5233,1.5103,0.0,0.0,0.0,0.0,0.0,0.0,0.0,0.0,0.0,0.0,0.0,0.0,0.0,0.0,0.0,0.0,0.0,0.0,0.0,0.0,0.0,0.0,0.0,0.0,0.0,0.0,0.0,0.0,0.0,0.0,0.0,0.0,0.0,0.0,0.0,0.0,0.0,0.0,0.0,0.0,0.0,0.0,0.0,0.0,0.0,0.0,0.0,0.0,0.0,0.0,0.0,0.0,0.0,0.0,0.0,0.0,0.0,1.3358,1.3674,1.4042,1.4308,1.384,1.3739,1.3961,1.3363,0.0,0.0,0.0,0.0,0.0,0.0,0.0,0.0,0.0,0.0,0.0,0.0,0.0,0.0,0.0,0.0,0.0,0.0,0.0,0.0,0.0,0.0,0.0,0.0,0.0,0.0,0.0,1.2045,0.0,0.0,0.0,0.0,0.0,0.0,0.0,0.0,0.0,0.0,0.0,0.0,0.0,0.0,1.6866,1.713,1.6996,1.6931,0.0,0.0,1.6532,1.6467,1.6467,1.6403,0.0,0.0,0.0,0.0,0.0,0.0,0.0,0.0,0.0,0.0,0.0,0.0,0.0,0.0,0.0,0.0,0.0,0.0,0.0,0.0,0.0,0.0,0.0,0.0,0.0,0.0,0.0,0.0,0.0,0.0,0.0,0.0,0.0,0.0,0.0,0.0,0.0,0.0,0.0,0.0,0.0,0.0,0.0,0.0,0.0,0.0,0.0,0.0,0.0,0.0,0.0,0.0,0.0,0.0,1.4132,1.4782,1.5108,1.5354,1.5586,1.5172,1.4891,1.4662,1.3965,1.3615,0.0,0.0,0.0,0.0,0.0,0.0,0.0,0.0,0.0,0.0,0.0,0.0,0.0,0.0,0.0,0.0,0.0,0.0,0.0,0.0,0.0,0.0,0.0,0.0,0.0,0.0,0.0,0.0,0.0,0.0,0.0,0.0,0.0,0.0,0.0,0.0,0.0,0.0,0.0,0.0,0.0,1.7437,1.7442,1.7706,1.8162,0.0,1.8296,1.7846,1.784,1.784,1.7582,1.6608,0.0,0.0,0.0,0.0,0.0,0.0,0.0,0.0,0.0,0.0,0.0,0.0,0.0,0.0,0.0,0.0,0.0,0.0,0.0,0.0,0.0,0.0,0.0,0.0,0.0,0.0,0.0,0.0,0.0,0.0,0.0,0.0,0.0,0.0,0.0,0.0,0.0,0.0,0.0,0.0,0.0,0.0,0.0,0.0,0.0,0.0,0.0,0.0,0.0,0.0,0.0,0.0,0.0,1.4982,1.5243,1.5959,1.6462,1.67,1.6233,1.6036,1.6056,1.5275,1.4889,0.0,0.0,0.0,0.0,0.0,0.0,0.0,0.0,0.0,0.0,0.0,0.0,0.0,0.0,0.0,0.0,0.0,0.0,0.0,0.0,0.0,0.0,0.0,0.0,0.0,0.0,0.0,0.0,1.4782,1.5238,1.5368,0.0,0.0,0.0,0.0,0.0,0.0,0.0,0.0,0.0,0.0,1.9136,1.913,1.9066,0.0,0.0,1.9002,1.8688,1.8682,1.8688,1.8553,1.8162,1.8098,0.0,0.0,0.0,0.0,0.0,0.0,0.0,0.0,0.0,0.0,0.0,0.0,0.0,0.0,0.0,0.0,0.0,0.0,0.0,0.0,0.0,0.0,0.0,0.0,0.0,0.0,0.0,0.0,0.0,0.0,0.0,0.0,0.0,0.0,0.0,0.0,0.0,0.0,0.0,0.0,0.0,0.0,0.0,0.0,0.0,0.0,0.0,0.0,0.0,0.0,0.0,0.0,1.5769,1.6219,1.6936,1.7412,1.7659,1.7222,1.7078,1.7166,1.656,1.6288,0.0,0.0,0.0,0.0,0.0,0.0,0.0,0.0,0.0,0.0,0.0,0.0,0.0,0.0,0.0,0.0,0.0,0.0,0.0,0.0,0.0,0.0,0.0,0.0,0.0,0.0,0.0,0.0,1.6084,1.6726,1.705,0.0,0.0,0.0,0.0,0.0,0.0,0.0,0.0,0.0,0.0,2.0113,2.0113,1.9909,1.9775,1.9775,1.9526,1.9398,1.9398,1.9398,1.9398,1.9398,0.0,0.0,0.0,0.0,0.0,0.0,0.0,0.0,0.0,0.0,0.0,0.0,0.0,0.0,0.0,0.0,0.0,0.0,0.0,0.0,0.0,0.0,0.0,0.0,0.0,0.0,0.0,0.0,0.0,0.0,1.0721,0.0,0.0,0.0,0.0,0.0,0.0,0.0,0.0,0.0,0.0,0.0,0.0,0.0,0.0,0.0,0.0,0.0,0.0,0.0,0.0,0.0,0.0,1.6618,1.7905,1.7969,1.8179,1.8583,1.8191,1.7928,1.7774,1.7677,1.7773,1.7924,0.0,0.0,0.0,0.0,0.0,0.0,0.0,0.0,0.0,0.0,0.0,0.0,0.0,0.0,0.0,0.0,0.0,0.0,0.0,0.0,0.0,0.0,0.0,0.0,0.0,0.0,1.6009,1.7184,1.8355,0.0,0.0,0.0,0.0,0.0,0.0,0.0,0.0,0.0,0.0,2.0113,2.0113,2.0113,2.0113,2.0106,2.0106,2.0106,2.0106,2.0043,2.0043,2.0113,0.0,0.0,0.0,0.0,0.0,0.0,0.0,0.0,0.0,0.0,0.0,0.0,0.0,0.0,0.0,0.0,0.0,0.0,0.0,0.0,0.0,0.0,0.0,0.0,0.0,0.0,0.0,1.0868,1.1115,0.0,0.0,0.0,0.0,0.0,0.0,0.0,0.0,0.0,0.0,0.0,1.5364,1.5429,0.0,0.0,0.0,0.0,0.0,0.0,0.0,0.0,0.0,0.0,0.0,0.0,1.7969,1.8413,1.9072,1.9462,1.9602,1.9176,1.8912,1.8864,1.8456,1.8434,1.8737,0.0,0.0,0.0,0.0,0.0,0.0,0.0,0.0,0.0,0.0,0.0,0.0,0.0,0.0,0.0,0.0,0.0,0.0,0.0,0.0,0.0,0.0,0.0,0.0,0.0,1.7952,0.0,0.0,0.0,0.0,0.0,0.0,0.0,0.0,0.0,0.0,0.0,2.0482,2.0736,2.0736,2.0736,2.0799,2.0545,2.0418,0.0,0.0,0.0,0.0,0.0,0.0,0.0,0.0,0.0,0.0,0.0,0.0,0.0,0.0,1.9781,1.9781,1.9781,1.9788,1.9909,0.0,0.0,0.0,0.0,0.0,0.0,0.0,0.0,0.0,0.0,0.0,0.0,0.0,0.0,1.1776,0.0,1.2305,0.0,0.0,0.0,0.0,0.0,0.0,0.0,0.0,1.5113,1.5824,1.6786,1.685,1.7302,0.0,1.8092,1.7448,0.0,0.0,0.0,0.0,0.0,0.0,0.0,0.0,1.8868,1.913,1.9781,2.0113,2.0113,1.9822,1.9656,1.9656,1.9471,1.9575,1.9841,1.9699,1.944,0.0,0.0,0.0,0.0,0.0,0.0,0.0,0.0,0.0,0.0,0.0,0.0,0.0,0.0,0.0,0.0,0.0,0.0,0.0,0.0,0.0,0.0,0.0,1.9386,0.0,0.0,0.0,0.0,0.0,0.0,0.0,0.0,0.0,2.0792,2.0792,2.0862,2.1046,2.1102,2.1102,2.1102,0.0,0.0,0.0,0.0,0.0,0.0,0.0,2.0522,2.0578,2.0733,2.0736,2.0609,2.0545,2.0418,2.0418,0.0,0.0,2.017,2.0113,2.0106,2.0234,2.0297,2.0297,2.0418,2.0425,2.0418,0.0,0.0,0.0,0.0,0.0,0.0,0.0,0.0,1.2437,1.2626,0.0,1.3346,0.0,0.0,0.0,0.0,0.0,1.4786,0.0,0.0,1.6856,1.756,1.8472,1.8536,1.913,2.0106,2.0106,1.9717,1.9072,1.8092,0.0,0.0,0.0,0.0,0.0,0.0,1.9462,2.0106,2.017,2.0176,2.017,2.0176,2.017,2.0125,2.064,2.1054,2.1241,2.073,2.0276,2.0014,1.9412,0.0,0.0,0.0,0.0,0.0,0.0,0.0,0.0,0.0,0.0,0.0,0.0,0.0,0.0,0.0,0.0,0.0,0.0,0.0,0.0,2.017,0.0,0.0,0.0,0.0,0.0,0.0,0.0,0.0,0.0,0.0,2.1152,2.1159,2.1102,2.1159,0.0,0.0,0.0,0.0,2.0975,2.0764,2.0723,2.0684,2.0706,2.0965,2.1273,2.1512,0.0,0.0,2.1657,2.1348,2.1109,2.1109,2.1109,2.0926,2.0297,2.017,2.0234,2.0545,2.0609,2.0736,2.0976,2.1046,2.1109,1.3882,0.0,0.0,0.0,0.0,1.384,1.4063,1.4525,1.4525,1.4716,1.5103,1.5233,0.0,0.0,0.0,0.0,0.0,0.0,1.6597,1.756,1.7952,1.8594,1.9623,1.9641,2.0036,2.0799,2.0615,2.0354,2.0157,1.9833,1.9322,1.8553,0.0,0.0,0.0,0.0,2.0354,2.0792,2.1046,2.1292,2.1544,2.1299,2.1046,2.0799,2.1358,2.1694,2.1779,2.2032,2.1982,2.1696,2.135,0.0,0.0,0.0,0.0,0.0,0.0,0.0,0.0,0.0,0.0,0.0,0.0,0.0,0.0,0.0,0.0,0.0,0.0,0.0,2.0792,2.1046,2.1235,0.0,0.0,0.0,0.0,0.0,0.0,0.0,0.0,0.0,2.15,2.1665,2.1714,0.0,0.0,2.1389,2.1182,2.1148,2.112,2.1037,2.1084,0.0,2.1027,2.1143,2.1206,2.132,2.1572,2.1713,2.1589,2.1707,2.1796,2.1796,2.1803,2.1734,2.1544,2.1109,2.0862,2.0919,2.0982,2.0982,2.1109,2.1299,2.1488,1.5268,1.45,1.4461,1.4728,1.5229,1.5233,1.5429,1.5829,1.5824,1.6024,1.6408,1.6408,1.6467,1.6597,1.6462,0.0,0.0,0.0,1.808,1.9048,1.9374,1.9884,2.0469,2.0482,2.0672,2.1052,2.0919,2.0792,2.0799,2.0799,2.0539,2.0094,0.0,0.0,2.0482,2.0862,2.1172,2.1488,2.167,2.1922,2.2104,2.1922,2.1734,2.1558,2.2066,2.2379,2.2386,2.3024,2.3209,2.2828,2.2535,2.2315,0.0,0.0,0.0,0.0,0.0,0.0,0.0,0.0,0.0,0.0,0.0,2.0469,2.0672,0.0,0.0,0.0,2.1362,2.1488,2.1488,2.167,0.0,0.0,0.0,0.0,0.0,0.0,0.0,2.1684,2.2058,2.2181,2.1882,2.2187,2.223,2.1549,2.1406,2.1397,2.1215,0.0,2.1145,2.1026,2.1012,2.1023,2.1015,2.1099,2.1314,2.1704,2.176,2.1883,2.2003,2.2054,2.2104,2.2104,2.2104,2.2104,2.2104,2.1734,2.1481,2.1481,2.1481,2.1481,2.1481,2.167,2.1796,1.663,1.6463,1.6039,1.6195,1.6602,1.6608,1.6672,1.6737,1.6737,1.6866,1.7136,1.7201,1.7383,1.77,1.7372,0.0,1.867,1.8978,1.9686,2.0672,2.0982,2.1102,2.1102,2.1102,2.1102,2.1102,2.1102,2.1102,2.1102,2.1109,2.1299,2.1544,2.0982,2.0856,2.1172,2.1481,2.1796,2.2111,2.2111,2.2174,2.2111,2.2174,2.2111,2.2111,2.2685,2.2935,2.3042,2.3602,2.3798,2.3539,2.3231,2.293,2.2622,0.0,0.0,0.0,0.0,0.0,0.0,0.0,0.0,0.0,0.0,0.0,0.0,0.0,0.0,0.0,2.2104,0.0,2.2111,2.2174,0.0,0.0,0.0,2.2237,2.2237,2.2237,2.2124,2.1835,0.0,0.0,2.2206,2.2684,2.2587,2.1424,2.1318,2.1332,2.1304,2.1276,2.1138,2.0902,2.0866,2.0819,2.0953,2.1198,2.1625,2.2367,2.2403,2.2356,2.2601,2.2529,2.2285,2.2355,2.2299,2.2299,2.2292,2.2362,2.2237,2.2299,2.2174,2.2104,2.2041,2.2111,2.2111,1.827,1.8146,1.8262,1.8053,1.7641,1.7647,1.7969,1.8489,1.8489,1.8489,1.8623,1.8868,1.9194,1.9456,1.9392,1.9647,2.0087,2.0151,2.0469,2.0989,2.1046,2.1102,2.1102,2.1102,2.1102,2.1102,2.1102,2.1102,2.1109,2.1362,2.1544,2.1607,2.167,2.1796,2.1866,2.1922,2.2174,2.2487,2.2487,2.2487,2.248,2.2487,2.2355,2.2111,2.2482,2.279,2.3028,2.3399,2.3679,2.3833,2.3553,2.3238,2.293,2.2636,0.0,0.0,0.0,0.0,0.0,0.0,0.0,0.0,0.0,2.2362,2.2355,0.0,2.2111,0.0,2.2237,2.2167,2.2418,2.2731,0.0,0.0,2.3113,2.3238,2.3238,2.323,2.3333,2.3499,2.339,2.324,2.2923,2.2784,2.2518,2.1995,2.2109,2.2176,2.1937,2.1885,2.1862,2.1795,2.178,2.1735,2.1762,2.2045,2.2323,2.2591,2.2969,2.3255,2.3345,2.3509,2.3604,2.3611,2.3611,2.3611,2.3611,2.3604,2.3611,2.3549,2.2801,2.2104,2.2104,2.2292,2.248,1.9225,1.9187,1.9305,1.9187,1.8938,1.881,1.8938,1.9328,1.9462,1.9526,1.959,1.9903,2.0157,2.0354,2.0488,2.0672,2.0792,2.0799,2.0919,2.1109,2.1102,2.1102,2.1102,2.1102,2.1102,2.1102,2.1235,2.1299,2.1362,2.167,2.1922,2.2041,2.2237,2.2425,2.2543,2.2425,2.248,2.2801,2.2793,2.2793,2.2801,2.2793,2.2731,2.255,2.2857,2.31,2.3278,2.3721,2.3978,2.408,2.3978,2.3823,2.3494,2.3378,2.3133,0.0,0.0,0.0,0.0,0.0,0.0,0.0,0.0,0.0,0.0,0.0,2.2863,2.3043,2.2981,2.3043,2.3238,2.3425,2.3549,2.3542,2.3728,2.3798,2.3798,2.3798,2.3861,2.3902,2.3718,2.3448,2.3183,2.2902,2.2723,2.2529,2.2669,2.2616,2.2219,2.2108,2.2165,2.2441,2.249,2.2552,2.2692,2.2663,2.2726,2.3016,2.3352,2.3642,2.3802,2.3978,2.4108,2.4108,2.4108,2.4108,2.4108,2.4108,2.4108,2.3984,2.3542,2.305,2.2981,2.3106,2.3322,1.9675,1.9629,1.9625,1.9757,1.9992,1.9789,1.9674,1.9711,1.9973,2.0106,2.017,2.0488,2.0609,2.0672,2.0989,2.1102,2.1102,2.1102,2.1102,2.1102,2.1102,2.1102,2.1102,2.1102,2.1109,2.1172,2.1488,2.1614,2.167,2.1985,2.2299,2.2613,2.2668,2.2793,2.3043,2.2793,2.2793,2.3106,2.3106,2.3106,2.3106,2.3106,2.3106,2.312,2.3384,2.3552,2.3674,2.421,2.4466,2.4238,2.4481,2.4509,2.4273,2.4228,2.4078,0.0,2.3733,0.0,0.0,0.0,0.0,0.0,0.0,0.0,0.0,2.3736,2.3673,2.3673,2.3922,2.4108,2.417,2.417,2.417,2.417,2.417,2.417,2.417,2.417,2.4055,2.3817,2.3751,2.3602,2.3282,2.3129,2.3029,2.2973,2.3086,2.2925,2.24,2.2335,2.2611,2.3046,2.3086,2.314,2.3328,2.3146,2.314,2.3595,2.3946,2.4008,2.4355,2.4402,2.4417,2.4355,2.4355,2.4293,2.4232,2.4239,2.4232,2.4293,2.4232,2.4177,2.4053,2.4045,2.4268,1.9565,1.9331,1.9572,1.9745,1.9769,2.0013,2.0023,2.0036,2.0043,2.0234,2.0488,2.0545,2.0736,2.0982,2.1046,2.1102,2.1102,2.1102,2.1102,2.1102,2.1102,2.1102,2.1102,2.1102,2.1235,2.1481,2.1607,2.1734,2.1985,2.2362,2.2543,2.2613,2.2856,2.3043,2.3106,0.0,0.0,0.0,2.3106,2.3106,2.3106,2.3106,2.3106,2.3106,2.3171,0.0,2.3963,2.4096,2.4389,2.4857,2.4989,0.0,0.0,0.0,0.0,0.0,0.0,0.0,0.0,0.0,0.0,0.0,2.4857,2.4734,2.4425,2.4425,2.4293,2.4046,2.4053,2.4232,2.4479,2.4487,2.4487,2.4487,2.4479,2.4487,2.4479,2.4479,2.4571,2.477,2.4585,2.4297,2.3999,2.3599,2.3275,2.3077,2.3408,2.3464,2.2901,2.3239,2.3576,2.3697,2.3529,2.3443,2.3473,2.3889,2.4125,2.4466,2.5129,2.5542,2.5623,2.57,2.57,2.57,2.528,2.4926,2.4926,2.4926,2.4857,2.4926,2.4926,2.4734,2.4239,2.4337,2.4543,1.9727,0.0,1.9687,1.9778,0.0,1.997,2.0054,2.0204,2.0485,2.0672,2.0856,2.0856,2.0919,2.1102,2.1102,2.1102,2.1102,2.1102,2.1102,2.1102,2.1102,2.1102,2.1102,2.1292,2.1425,2.1607,2.1915,2.2167,2.2355,2.2675,2.2856,2.2863,2.3043,2.3106,2.3106,2.3106,2.3106,2.3106,2.3106,2.3106,2.3106,2.323,2.3362,2.3355,2.3487,0.0,0.0,0.0,0.0,0.0,0.0,0.0,0.0,0.0,0.0,2.4836,2.4813,2.4859,2.4811,2.4857,2.4919,2.5103,2.5103,2.505,2.4857,2.4865,2.4795,2.461,2.461,2.4672,2.4857,2.4857,2.4857,2.4857,2.4857,2.498,2.528,2.5341,2.5525,2.5867,2.5452,2.5039,2.486,2.4023,2.3499,2.3292,2.3344,2.3472,2.3464,2.3689,2.3906,2.4135,2.4073,2.4062,2.441,2.4479,2.4666,2.4878,2.5534,2.5998,2.6075,2.6319,2.6554,2.651,2.6022,2.5594,2.5594,2.5349,2.5103,2.5103,2.5103,2.5059,2.4875,2.5007,2.5241,1.986,2.002,1.9719,1.9812,2.0093,1.9865,1.9884,2.0261,0.0,0.0,0.0,2.0949,2.0955,2.0955,2.0955,2.0955,2.0955,2.0955,2.0982,2.1029,2.1036,2.1062,2.1166,2.1481,2.167,2.1796,2.2299,2.2613,2.2668,2.2981,2.3106,2.3106,2.3106,2.3106,2.3106,2.3106,2.3113,2.3168,2.3168,2.3168,2.3168,2.3487,2.3673,2.3673,2.3984,2.4115,2.4177,2.4445,2.4523,2.4332,2.4839,2.498,2.4812,2.5039,2.5188,2.5168,2.5199,2.5236,2.5296,2.5288,2.5357,2.541,2.5418,2.541,2.5296,2.5288,2.5288,2.5418,2.5357,2.5296,2.541,2.5288,2.5288,2.5357,2.5296,2.5533,2.6075,2.6136,2.6258,2.665,2.6121,2.5596,2.5326,2.4389,2.3607,2.353,2.3406,2.3392,2.3843,2.398,2.4119,2.4293,2.4392,2.4637,2.506,2.5012,2.4854,2.5277,2.5823,2.6258,2.6319,2.6692,2.6935,2.6753,2.6327,2.5953,2.59,2.5472,2.5173,2.5234,2.5288,2.5392,2.5845,2.5997,2.6191,1.9459,1.9492,1.9434,1.9639,1.986,1.98,1.994,2.018,2.0321,2.0293,2.0293,2.0354,2.0354,2.0354,2.0361,2.0354,2.0361,2.0361,2.0494,2.0735,2.0735,2.1056,2.1538,2.1607,2.1915,2.2425,2.2543,2.2731,2.2981,2.3113,2.3106,2.3106,2.3106,2.3106,2.3106,2.3106,2.3238,2.3479,2.3549,2.3549,2.3542,2.386,2.4053,2.4046,2.4108,2.4232,2.4479,2.4595,2.4719,2.4926,2.5083,2.5217,2.5431,2.5478,2.5549,2.5509,2.5501,2.5678,2.5917,2.5961,2.6197,2.6692,2.6753,2.6501,2.6014,2.5953,2.6189,2.6631,2.6258,2.6197,2.6631,2.6266,2.6083,2.6336,2.6144,2.6136,2.6441,2.6258,2.6136,2.6311,2.6164,2.5679,2.5004,2.4596,2.4166,2.3763,2.381,2.4187,2.4244,2.4358,2.4367,2.4392,2.4517,2.4607,2.486,2.4971,2.5253,2.5884,2.6441,2.6813,2.6813,2.6874,2.6874,2.6388,2.5831,2.541,2.5349,2.5173,2.5349,2.577,2.5892,2.6191,2.698,2.7423,2.7549,1.9424,1.9424,1.9424,1.9439,1.9566,1.9566,1.9633,1.976,1.976,2.004,2.0441,2.0307,2.0321,2.0454,2.0301,2.0173,2.0241,2.0401,2.0548,2.0681,2.0835,2.1171,2.1601,2.1803,2.2104,2.2613,2.2793,2.2926,2.3106,2.3106,2.3106,2.3106,2.3106,2.3106,2.3106,2.3106,2.323,2.3611,2.3611,2.3673,2.386,2.4533,2.4895,2.4895,2.5394,2.577,2.5892,2.5892,2.5831,2.5647,2.5647,2.5544,2.5334,2.5287,2.5349,2.5349,2.5652,2.5949,2.6083,2.638,2.6805,2.7228,2.7108,2.7056,2.7108,2.6805,2.6684,2.6995,2.6744,2.6692,2.6935,2.6744,2.6631,2.6813,2.6388,2.6319,2.6631,2.638,2.625,2.6501,2.6319,2.5948,2.5489,2.494,2.4499,2.4134,2.4252,2.4274,2.4274,2.4386,2.4499,2.4531,2.4559,2.4876,2.5303,2.5526,2.5884,2.6501,2.6805,2.7004,2.7004,2.7004,2.6874,2.6631,2.6075,2.5709,2.5656,2.5656,2.5831,2.6014,2.638,2.6827,2.7482,2.8057,2.8324,1.9424,1.9424,1.9424,1.9424,1.9424,1.9424,1.9424,1.9424,1.943,1.982,2.0481,2.0267,2.0294,2.0535,2.0267,2.0174,2.0193,2.0401,2.0548,2.0695,2.0909,2.1231,2.1601,2.1922,2.2292,2.2613,2.2918,2.3106,2.3106,2.3106,2.3106,2.3106,2.3106,2.3106,2.3106,2.3175,2.3355,2.3736,2.3914,2.4162,2.4479,2.5272,2.5762,2.5945,2.6623,2.7004,2.7004,2.7004,2.6692,2.6136,2.6075,2.577,2.5173,2.5173,2.5234,2.5296,2.5839,2.6319,2.6554,2.7168,2.7659,2.7822,2.765,2.7779,2.814,2.7779,2.747,2.7418,2.7358,2.7297,2.7418,2.7297,2.7246,2.7306,2.6865,2.6805,2.7177,2.6874,2.6684,2.7108,2.6805,2.6501,2.6208,2.5533,2.4908,2.4599,2.4392,2.4249,2.4273,2.4476,2.4682,2.4698,2.4698,2.4976,2.5721,2.5823,2.6075,2.6684,2.6753,2.6753,2.6753,2.6753,2.6692,2.6449,2.6136,2.5892,2.6014,2.6075,2.6197,2.6562,2.6987,2.7418,2.8035,2.8551,2.8844,1.9424,1.9424,1.9424,1.9424,1.9424,1.9424,1.9424,1.9424,1.9424,1.9706,2.0234,1.9967,2.002,2.0207,1.9987,2.0,2.0201,1.9987,2.018,2.0648,2.0702,2.1043,2.1594,2.1922,2.2292,2.2606,2.2918,2.3106,2.3106,2.3106,2.3106,2.3106,2.3106,2.3106,2.3106,2.3417,2.3728,2.4046,2.4964,2.5448,2.5517,2.5815,2.6319,2.6874,2.6926,2.7004,2.7056,2.7004,2.6744,2.6136,2.6136,2.5831,2.5226,2.5426,2.5549,2.5602,2.6214,2.6935,2.7771,2.8728,2.9094,2.8916,2.9035,2.9094,2.8916,2.8806,2.8806,2.8677,2.8199,2.8131,2.8677,2.825,2.802,2.8208,2.796,2.796,2.8148,2.8029,2.784,2.7891,2.7659,2.759,2.6857,2.6261,2.5582,2.4727,2.4587,2.4531,2.4555,2.4785,2.5,2.5032,2.5048,2.5109,2.5288,2.5234,2.5656,2.6136,2.6197,2.6258,2.6258,2.6197,2.6014,2.5717,2.5472,2.5594,2.5892,2.6136,2.6562,2.7349,2.7797,2.8195,2.9089,2.9376,2.9288,1.9424,1.9424,1.9424,1.9424,1.9424,1.9424,1.9424,1.9424,1.9424,1.9693,2.012,2.0107,2.0214,2.0474,2.0187,2.006,2.0227,2.0287,2.0441,2.0688,2.0848,2.1303,2.1853,2.2048,2.2362,2.2863,2.305,2.3106,2.3106,2.3106,2.3106,2.3106,2.3106,2.3106,2.3113,2.3417,2.3914,2.4649,2.4903,2.5456,2.6371,2.6926,2.7349,2.753,2.7599,2.7599,2.7599,2.7599,2.7108,2.625,2.6805,2.6744,2.577,2.6153,2.6457,2.6449,2.7056,2.7831,2.8797,2.9094,2.9203,2.9263,2.9213,2.9153,2.9044,2.8984,2.8984,2.8984,2.8746,2.8737,2.8916,2.8737,2.8618,2.8687,2.8319,2.808,2.8208,2.7728,2.7418,2.7418,2.7418,2.7358,2.6995,2.6501,2.5766,2.5088,2.4889,2.4934,2.4897,2.5024,2.5087,2.5103,2.5103,2.5288,2.5533,2.5647,2.5961,2.6319,2.6311,2.6136,2.6014,2.5709,2.541,2.5111,2.541,2.5717,2.6014,2.6805,2.747,2.8011,2.8439,2.875,2.9195,2.9104,2.8861,1.9539,1.9586,1.9519,1.9446,1.9424,1.9424,1.9424,1.9424,1.9424,1.9693,2.0207,2.0173,2.0441,2.0722,2.0488,2.0388,2.0481,2.0615,2.0722,2.0808,2.1078,2.1481,2.1922,2.2174,2.248,2.2926,2.305,2.3106,2.3106,2.3106,2.3106,2.3106,2.3106,2.323,2.3549,2.3852,2.4402,2.5141,2.521,2.577,2.6692,2.7418,2.7719,2.7719,2.7719,2.7711,2.7719,2.7728,2.7228,2.6197,2.7168,2.7228,2.6197,2.6744,2.7228,2.7427,2.784,2.8507,2.9331,2.9213,2.9213,2.9331,2.9213,2.9094,2.9044,2.8984,2.8984,2.8984,2.8984,2.8984,2.8984,2.8984,2.8984,2.8984,2.8558,2.8259,2.8268,2.7779,2.759,2.753,2.7771,2.7478,2.7297,2.6926,2.6424,2.5823,2.5639,2.5533,2.541,2.541,2.5357,2.5111,2.5103,2.5288,2.5709,2.5709,2.6083,2.6205,2.6022,2.577,2.5831,2.5349,2.5111,2.5173,2.5709,2.6197,2.6501,2.7289,2.79,2.802,2.8259,2.8507,2.8304,2.8337,2.8497,1.994,2.0127,1.99,1.9633,1.9437,1.945,1.9437,1.9457,1.945,1.9713,2.0194,2.0247,2.0555,2.1042,2.0775,2.0808,2.0989,2.0802,2.0835,2.1112,2.1411,2.1607,2.167,2.2237,2.2613,2.2738,2.2988,2.3106,2.3106,2.3106,2.3106,2.3106,2.3106,2.3549,2.4293,2.471,2.5194,2.557,2.6258,2.6571,2.625,2.6744,2.6995,2.7056,2.7056,2.7056,2.7056,2.7056,2.6744,2.6136,2.6805,2.6813,2.625,2.6969,2.7771,2.8337,2.8457,2.8636,2.8975,2.9272,2.9331,2.9153,2.9272,2.9331,2.9044,2.8984,2.8984,2.8984,2.8984,2.8984,2.8984,2.8984,2.8984,2.8984,2.8984,2.8925,2.8925,2.8806,2.8865,2.8806,2.8737,2.8439,2.796,2.796,2.7409,2.6874,2.6813,2.651,2.5953,2.5953,2.5647,2.5226,2.5103,2.5103,2.5173,2.5288,2.5296,2.5418,2.5533,2.5234,2.5173,2.5111,2.5111,2.5226,2.5831,2.638,2.6926,2.7358,2.7719,2.784,2.7539,2.7539,2.784,2.7891,2.8041,1.9967,2.0221,2.012,2.0013,1.9927,1.992,1.9813,1.9666,1.984,2.0034,2.0247,2.0428,2.0735,2.1102,2.1002,2.1009,2.1089,2.0995,2.1141,2.1418,2.1544,2.1796,2.2237,2.2487,2.2731,2.2918,2.3043,2.3106,2.3106,2.3106,2.3106,2.3106,2.3106,2.3417,2.3922,2.4286,2.4833,2.5509,2.577,2.59,2.6075,2.59,2.5961,2.6371,2.6441,2.6623,2.7004,2.7004,2.6753,2.6136,2.7478,2.7779,2.6926,2.7771,2.8558,2.8806,2.8806,2.8865,2.8975,2.9103,2.9163,2.9044,2.9103,2.9163,2.9044,2.8984,2.8984,2.8984,2.8984,2.8984,2.8984,2.8984,2.8984,2.8984,2.8984,2.9044,2.8984,2.8984,2.8984,2.8984,2.8984,2.8737,2.814,2.7659,2.7116,2.6501,2.6083,2.5778,2.5594,2.5472,2.541,2.5173,2.5103,2.5103,2.5103,2.5103,2.5111,2.5111,2.5103,2.5103,2.5111,2.5111,2.5103,2.5226,2.5831,2.638,2.6865,2.6935,2.7358,2.7366,2.7116,2.7202,2.7659,2.779,2.7998,2.0274,2.0368,2.0374,2.0314,2.018,2.0173,2.0067,1.9967,2.0087,2.0281,2.0408,2.0588,2.0835,2.1076,2.1102,2.1102,2.1102,2.1102,2.1299,2.1607,2.1734,2.2041,2.255,2.2731,2.2863,2.3043,2.3106,2.3106,2.3106,2.3106,2.3106,2.3106,2.3106,2.3355,2.386,2.4232,2.4833,2.5456,2.5464,2.5594,2.5778,2.5525,2.5656,2.6075,2.625,2.6562,2.7004,2.7004,2.6813,2.6684,2.784,2.8379,2.784,2.8498,2.8984,2.8984,2.8984,2.8984,2.8984,2.8984,2.8984,2.8984,2.8984,2.8984,2.8984,2.8984,2.8984,2.8984,2.8984,2.9044,2.9153,2.9163,2.9163,2.9153,2.9213,2.9213,2.9163,2.9153,2.9035,2.8865,2.8815,2.8567,2.8089,2.753,2.7047,2.6614,2.6075,2.5725,2.548,2.541,2.5288,2.5165,2.5103,2.5103,2.5103,2.5103,2.5103,2.5103,2.5103,2.5103,2.5103,2.5103,2.5165,2.5288,2.5709,2.6258,2.6562,2.6631,2.67,2.6778,2.6678,2.661,2.7224,2.7835,2.8167,2.0915,2.0695,2.0681,2.0528,2.0334,2.026,2.0267,2.0247,2.022,2.0448,2.0621,2.0688,2.0869,2.1062,2.1102,2.1102,2.1102,2.1109,2.1355,2.167,2.1985,2.2299,2.2668,2.2918,2.3043,2.3106,2.3106,2.3106,2.3106,2.3106,2.3106,2.3106,2.3106,2.3542,2.4548,2.471,2.5133,2.5509,2.5762,2.5778,2.5288,2.577,2.6136,2.6319,2.6753,2.7056,2.7116,2.7125,2.7116,2.7108,2.7719,2.8388,2.8797,2.8984,2.8984,2.8984,2.8984,2.8984,2.8984,2.9044,2.9044,2.8984,2.8984,2.9044,2.8984,2.8984,2.8984,2.8984,2.8984,2.9103,2.9331,2.944,2.9499,2.9499,2.9627,2.9627,2.9509,2.945,2.9213,2.8687,2.8517,2.8337,2.802,2.7659,2.7289,2.7159,2.6865,2.6388,2.59,2.577,2.5709,2.5288,2.5103,2.5103,2.5103,2.5103,2.5103,2.5103,2.5103,2.5103,2.5103,2.5103,2.5103,2.5226,2.541,2.5961,2.6413,2.643,2.633,2.638,2.6183,2.662,2.7424,2.8253,2.8729,2.1056,2.0975,2.0975,2.0922,2.0842,2.0835,2.0728,2.0568,2.0742,2.0775,2.0728,2.0889,2.1022,2.1089,2.1102,2.1102,2.1102,2.1362,2.1607,2.1985,2.2299,2.2606,2.2926,2.305,2.3106,2.3106,2.3106,2.3106,2.3106,2.3106,2.3106,2.3106,2.3106,2.3362,2.3922,2.4224,2.4595,2.4964,2.5709,2.5953,2.5831,2.6388,2.6926,2.7349,2.759,2.7891,2.8319,2.796,2.7831,2.8002,2.8668,2.9153,2.9272,2.9094,2.8984,2.8984,2.8984,2.8984,2.9044,2.9222,2.9213,2.9094,2.9213,2.9213,2.9044,2.8984,2.8984,2.8984,2.8984,2.9044,2.9213,2.9568,2.9745,2.9813,2.9686,2.9618,2.9499,2.9103,2.8746,2.8517,2.8328,2.814,2.796,2.7599,2.7177,2.6865,2.6449,2.5908,2.5594,2.5464,2.541,2.5111,2.5111,2.5103,2.5103,2.5103,2.5103,2.5103,2.5103,2.5103,2.5103,2.5103,2.5103,2.5189,2.5365,2.5651,2.6105,2.6273,2.6158,2.6554,2.6956,2.7528,2.831,2.8842,2.935,2.1102,2.1102,2.1102,2.1102,2.1102,2.1102,2.1009,2.0875,2.1029,2.1002,2.0902,2.1022,2.1102,2.1102,2.1102,2.1102,2.1172,2.1607,2.1922,2.2111,2.2418,2.2801,2.3043,2.3106,2.3106,2.3106,2.3106,2.3106,2.3106,2.3106,2.3106,2.3106,2.3106,2.3293,2.3611,2.3922,2.4355,2.4972,2.5709,2.6197,2.6501,2.7047,2.753,2.796,2.8259,2.8558,2.8925,2.8558,2.8498,2.8668,2.9094,2.9331,2.945,2.9222,2.8984,2.8984,2.8984,2.8984,2.9044,2.9272,2.945,2.9272,2.9381,2.9381,2.9213,2.9103,2.8984,2.8984,2.8984,2.9044,2.9213,2.9509,2.9804,2.9922,2.9922,2.9736,2.9499,2.9044,2.8636,2.8517,2.8337,2.8089,2.7779,2.7427,2.6943,2.6449,2.597,2.5488,2.5234,2.5103,2.5111,2.5173,2.5103,2.5103,2.5103,2.5103,2.5103,2.5103,2.5103,2.5103,2.5103,2.5103,2.5111,2.5183,2.533,2.5498,2.5918,2.6036,2.6142,2.6865,2.7676,2.8162,2.8743,2.9506,3.0057,2.1102,2.1102,2.1102,2.1102,2.1102,2.1102,2.1096,2.1096,2.1102,2.1096,2.1089,2.1096,2.1102,2.1102,2.1102,2.1102,2.1229,2.167,2.1985,2.2174,2.248,2.2801,2.3043,2.3106,2.3106,2.3106,2.3106,2.3106,2.3106,2.3106,2.3106,2.3106,2.323,2.33,2.3673,2.3984,2.4718,2.5448,2.5953,2.651,2.7056,2.7719,2.808,2.814,2.8618,2.8916,2.8984,2.8925,2.8984,2.9044,2.9094,2.9272,2.939,2.9163,2.8984,2.8984,2.8984,2.8984,2.9035,2.9331,2.9499,2.945,2.944,2.9509,2.945,2.9163,2.8984,2.8984,2.8984,2.9103,2.9331,2.9509,2.9627,2.9863,2.9981,2.9922,2.9509,2.9094,2.8815,2.8517,2.8466,2.8277,2.7702,2.7358,2.6935,2.6501,2.6083,2.5839,2.5541,2.5533,2.5288,2.5349,2.5533,2.5472,2.5594,2.5472,2.541,2.5103,2.5111,2.5119,2.5167,2.5191,2.523,2.5294,2.5445,2.5588,2.581,2.6104,2.6647,2.7438,2.8052,2.8537,2.9287,3.0207,3.0591,2.1102,2.1102,2.1102,2.1102,2.1102,2.1102,2.1102,2.1102,2.1102,2.1102,2.1102,2.1102,2.1102,2.1102,2.1102,2.1102,2.1229,2.1544,2.1922,2.2104,2.248,2.2801,2.3043,2.3106,2.3106,2.3106,2.3106,2.3106,2.3106,2.3106,2.3106,2.3113,2.3798,2.3984,2.3798,2.4718,2.5264,2.5692,2.638,2.7108,2.7711,2.8379,2.8746,2.8737,2.8925,2.8984,2.8984,2.8984,2.9163,2.9331,2.939,2.939,2.944,2.9213,2.8984,2.8984,2.8984,2.8984,2.9035,2.9331,2.9509,2.9509,2.9509,2.9509,2.9499,2.9222,2.9044,2.8984,2.8984,2.9044,2.9163,2.9331,2.9509,2.9558,2.9677,2.9627,2.9222,2.8865,2.8576,2.8457,2.8337,2.808,2.796,2.7779,2.7539,2.7159,2.6918,2.6744,2.6327,2.6266,2.6205,2.6388,2.651,2.6258,2.6075,2.5953,2.5656,2.5226,2.5119,2.5143,2.5246,2.5373,2.5453,2.554,2.5818,2.6001,2.6376,2.6681,2.7412,2.8131,2.8931,2.9625,3.0332,3.1157,3.1084,2.1102,2.1102,2.1102,2.1102,2.1102,2.1102,2.1102,2.1102,2.1102,2.1102,2.1102,2.1102,2.1102,2.1102,2.1102,2.1102,2.1109,2.1425,2.179,2.2174,2.2613,2.2926,2.3043,2.3106,2.3106,2.3106,2.3106,2.3106,2.3106,2.3106,2.3238,2.3611,2.4232,2.4602,2.4841,2.5456,2.625,2.6614,2.7168,2.7711,2.8379,2.8797,2.8925,2.8984,2.8984,2.8984,2.8984,2.8984,2.9153,2.939,2.939,2.9331,2.944,2.9163,2.8984,2.8984,2.8984,2.8984,2.9044,2.9331,2.9558,2.9627,2.9568,2.9558,2.9568,2.9281,2.8984,2.8984,2.8984,2.8984,2.9044,2.9213,2.9263,2.9263,2.9272,2.9213,2.9053,2.8865,2.8755,2.8687,2.8567,2.8328,2.8268,2.8208,2.796,2.7642,2.7401,2.7228,2.6995,2.7056,2.7064,2.7056,2.6874,2.6441,2.6031,2.5855,2.5761,2.5338,2.5421,2.5389,2.5485,2.5643,2.5818,2.5985,2.6256,2.6592,2.6995,2.7514,2.8232,2.9042,2.9891,3.0511,3.1046,3.1377,3.1377,2.1102,2.1102,2.1102,2.1102,2.1102,2.1102,2.1102,2.1102,2.1102,2.1102,2.1102,2.1102,2.1102,2.1102,2.1102,2.1102,2.1102,2.1362,2.1734,2.2174,2.2675,2.3106,2.3106,2.3106,2.3106,2.3106,2.3106,2.3106,2.3106,2.3106,2.3479,2.3984,2.4479,2.5157,2.5762,2.638,2.7108,2.765,2.7771,2.8199,2.8746,2.8984,2.8984,2.8984,2.8984,2.8984,2.8984,2.8984,2.9163,2.944,2.9153,2.9153,2.939,2.9163,2.9044,2.8984,2.8984,2.8984,2.9044,2.9272,2.9568,2.9686,2.9568,2.9568,2.9627,2.9281,2.8984,2.8984,2.8984,2.8984,2.8984,2.9044,2.9044,2.9035,2.9044,2.8984,2.8984,2.8984,2.8984,2.8984,2.8984,2.8815,2.8636,2.8517,2.8328,2.8131,2.8011,2.7891,2.7779,2.7719,2.7539,2.7297,2.6935,2.6441,2.6039,2.5704,2.5641,2.5443,2.5747,2.5866,2.5906,2.6096,2.6264,2.6496,2.6931,2.7393,2.7922,2.8488,2.9139,2.9648,3.0325,3.0788,3.1184,3.1377,3.1377,2.1102,2.1102,2.1102,2.1102,2.1102,2.1102,2.1102,2.1102,2.1102,2.1102,2.1102,2.1102,2.1102,2.1102,2.1102,2.1102,2.1102,2.1235,2.1544,2.2167,2.2801,2.3043,2.3106,2.3106,2.3106,2.3106,2.3106,2.3106,2.3106,2.3168,2.3417,2.417,2.4964,2.5639,2.6189,2.6978,2.747,2.796,2.802,2.8388,2.8865,2.8984,2.8984,2.8984,2.8984,2.8984,2.8984,2.8984,2.9044,2.9103,2.9044,2.9044,2.9103,2.9044,2.8984,2.8984,2.8984,2.8984,2.8984,2.9103,2.9281,2.9509,2.94,2.9272,2.9509,2.9281,2.9044,2.8984,2.8984,2.8984,2.8984,2.8984,2.8984,2.8984,2.8984,2.8984,2.8984,2.8984,2.8984,2.8984,2.8984,2.8984,2.8865,2.8865,2.8746,2.8677,2.8618,2.8618,2.8498,2.8319,2.7951,2.7539,2.7047,2.6587,2.6273,2.601,2.5925,2.5802,2.6057,2.6335,2.6374,2.6681,2.6915,2.7263,2.7728,2.8203,2.8669,2.9266,2.9944,3.0343,3.0741,3.1055,3.1313,3.1377,3.1377,2.1102,2.1102,2.1102,2.1102,2.1102,2.1102,2.1102,2.1102,2.1102,2.1102,2.1102,2.1102,2.1102,2.1102,2.1102,2.1102,2.1166,2.1488,2.1859,2.2355,2.2856,2.3106,2.3106,2.3106,2.3106,2.3106,2.3106,2.3106,2.3106,2.3168,2.3611,2.4541,2.5264,2.6128,2.6926,2.759,2.814,2.8439,2.8507,2.8687,2.8925,2.8984,2.8984,2.8984,2.8984,2.8984,2.8984,2.8984,2.8984,2.8984,2.8984,2.8984,2.8984,2.8984,2.8984,2.8984,2.8984,2.8984,2.8984,2.8984,2.9163,2.945,2.9222,2.9272,2.9331,2.9213,2.9044,2.8984,2.8984,2.8984,2.8984,2.8984,2.8984,2.8984,2.8984,2.8984,2.8984,2.8984,2.8984,2.8984,2.8984,2.8984,2.8984,2.8984,2.8984,2.8806,2.8797,2.8797,2.8448,2.8268,2.8011,2.759,2.7168,2.6776,2.6521,2.6349,2.6335,2.632,2.6406,2.6668,2.6819,2.7196,2.7638,2.7999,2.8319,2.8886,2.9361,3.0026,3.0555,3.087,3.112,3.1313,3.1377,3.1313,3.1377,2.1102,2.1102,2.1102,2.1102,2.1102,2.1102,2.1102,2.1102,2.1102,2.1102,2.1102,2.1102,2.1102,2.1102,2.1102,2.1102,2.1355,2.1796,2.2237,2.2543,2.2918,2.3106,2.3106,2.3106,2.3106,2.3106,2.3106,2.3106,2.3106,2.3168,2.3798,2.4911,2.5394,2.6371,2.765,2.8328,2.8576,2.8856,2.8865,2.8925,2.8984,2.8984,2.8984,2.8984,2.8984,2.8984,2.8984,2.8984,2.8984,2.8984,2.8984,2.8984,2.8984,2.8984,2.8984,2.8984,2.8984,2.8984,2.8984,2.8984,2.9103,2.939,2.9163,2.9163,2.9272,2.9153,2.9044,2.8984,2.8984,2.8984,2.8984,2.8984,2.8984,2.8984,2.8984,2.8984,2.8984,2.8984,2.8984,2.8984,2.8984,2.8984,2.8984,2.8984,2.8984,2.8934,2.8984,2.8865,2.8517,2.8253,2.8013,2.7696,2.7261,2.6914,2.6624,2.6565,2.6608,2.689,2.696,2.7162,2.7437,2.7949,2.8328,2.8452,2.8831,2.9438,2.9952,3.0473,3.0926,3.1313,3.1184,3.0991,3.1055,3.1249,3.1249,2.1102,2.1102,2.1102,2.1102,2.1102,2.1102,2.1102,2.1102,2.1102,2.1102,2.1102,2.1102,2.1102,2.1102,2.1102,2.1235,2.1544,2.1922,2.2299,2.2606,2.2918,2.3106,2.3106,2.3106,2.3106,2.3106,2.3106,2.3106,2.3106,2.3168,2.3914,2.4911,2.5525,2.6493,2.765,2.8337,2.8636,2.8925,2.8984,2.8984,2.8984,2.8984,2.8984,2.8984,2.8984,2.8984,2.8984,2.8984,2.8984,2.8984,2.8984,2.8984,2.8984,2.8984,2.8984,2.8984,2.8984,2.8984,2.8984,2.8984,2.9044,2.9044,2.9044,2.8984,2.9044,2.9044,2.8984,2.8984,2.8984,2.8984,2.8984,2.8984,2.8984,2.8984,2.8984,2.8984,2.8984,2.8984,2.8984,2.8984,2.8984,2.8984,2.8984,2.8925,2.8815,2.8746,2.8746,2.8498,2.814,2.8057,2.8025,2.7687,2.7297,2.7,2.6737,2.6753,2.688,2.7409,2.7694,2.7949,2.8287,2.8765,2.9053,2.9185,2.9504,3.0148,3.0602,3.0991,3.1055,3.1184,3.087,3.0555,3.0676,3.0806,3.0806,2.1102,2.1102,2.1102,2.1102,2.1102,2.1102,2.1102,2.1102,2.1102,2.1102,2.1102,2.1102,2.1102,2.1102,2.1102,2.1355,2.1796,2.1978,2.2418,2.2793,2.3043,2.3106,2.3106,2.3106,2.3106,2.3106,2.3106,2.3106,2.3168,2.3479,2.4108,2.4972,2.5709,2.6744,2.7779,2.8337,2.8696,2.8925,2.8984,2.8984,2.8984,2.8984,2.8984,2.8984,2.8984,2.8984,2.8984,2.8984,2.8984,2.8984,2.8984,2.8984,2.8984,2.8984,2.8984,2.8984,2.8984,2.8984,2.8984,2.8984,2.8984,2.8984,2.8984,2.8984,2.8984,2.8984,2.8984,2.8984,2.8984,2.8984,2.8984,2.8984,2.8984,2.8984,2.8984,2.8984,2.8984,2.8984,2.8984,2.8984,2.8984,2.8984,2.8925,2.8865,2.8696,2.8567,2.8507,2.8166,2.7815,2.7765,2.7826,2.7565,2.7232,2.7369,2.7206,2.7393,2.7532,2.8007,2.8386,2.8716,2.9045,2.9438,2.97,2.9831,3.0278,3.0732,3.0991,3.1249,3.112,3.0926,3.0611,3.0352,3.0352,3.0352,3.0417,2.1102,2.1102,2.1102,2.1102,2.1102,2.1102,2.1102,2.1102,2.1102,2.1102,2.1102,2.1102,2.1102,2.1102,2.1229,2.1544,2.2104,2.2167,2.2543,2.2981,2.3113,2.3106,2.3106,2.3106,2.3106,2.3106,2.3106,2.3106,2.3238,2.3728,2.4425,2.5226,2.6144,2.7116,2.79,2.8457,2.8755,2.8865,2.8984,2.8984,2.8984,2.8984,2.8984,2.8984,2.8984,2.8984,2.8984,2.8984,2.8984,2.8984,2.8984,2.9035,2.9094,2.9044,2.9044,2.9094,2.9035,2.8984,2.8984,2.8984,2.8984,2.8984,2.8984,2.8984,2.8984,2.8984,2.8984,2.8984,2.8984,2.8984,2.8984,2.8984,2.8984,2.8984,2.8984,2.8984,2.8984,2.8984,2.8984,2.8984,2.8925,2.8925,2.8865,2.8746,2.8517,2.8376,2.8255,2.7904,2.7591,2.755,2.7506,2.7247,2.7194,2.7587,2.7802,2.8261,2.8377,2.8715,2.9111,2.9438,2.9765,3.0091,3.0287,3.0408,3.0602,3.0926,3.1184,3.1184,3.0861,3.0538,3.0287,3.0091,2.9896,3.0157,3.0417,2.1102,2.1102,2.1102,2.1102,2.1102,2.1102,2.1102,2.1102,2.1102,2.1102,2.1102,2.1102,2.1102,2.1172,2.1425,2.1734,2.2048,2.2418,2.2668,2.3043,2.3106,2.3106,2.3106,2.3106,2.3168,2.323,2.3168,2.3106,2.3425,2.3922,2.4479,2.5288,2.6432,2.7332,2.796,2.8567,2.8916,2.8984,2.8984,2.8984,2.8984,2.8984,2.8984,2.8984,2.8984,2.8984,2.8984,2.8984,2.8984,2.8984,2.8984,2.9153,2.9331,2.9153,2.9222,2.9272,2.9213,2.8984,2.8984,2.8984,2.8984,2.8984,2.8984,2.8984,2.8984,2.8984,2.8984,2.8984,2.8984,2.8984,2.8984,2.8984,2.8984,2.8984,2.8984,2.8984,2.8984,2.8984,2.8984,2.8865,2.8746,2.8806,2.8797,2.8627,2.8415,2.8222,2.7974,2.7634,2.7523,2.7482,2.7549,2.7422,2.7764,2.8202,2.8555,2.8977,2.9273,2.9569,2.9887,3.0213,3.0408,3.0602,3.0861,3.0991,3.1055,3.0926,3.1055,3.0861,3.0546,3.0222,2.9896,2.9635,2.9438,2.9765,3.0352,2.1102,2.1102,2.1102,2.1102,2.1102,2.1102,2.1102,2.1102,2.1102,2.1102,2.1102,2.1102,2.1102,2.1172,2.1481,2.179,2.2104,2.248,2.2793,2.3043,2.3106,2.3106,2.3106,2.3106,2.323,2.3542,2.3728,2.4046,2.417,2.4487,2.4988,2.5709,2.6857,2.7642,2.8011,2.8677,2.8925,2.8984,2.8984,2.8984,2.8984,2.8984,2.8984,2.8984,2.8984,2.8984,2.8984,2.8984,2.8984,2.8984,2.8984,2.9153,2.939,2.939,2.939,2.944,2.939,2.9222,2.9044,2.8984,2.8984,2.8984,2.8984,2.8984,2.8984,2.8984,2.8984,2.8984,2.8984,2.8984,2.8984,2.8984,2.8984,2.8984,2.8984,2.8984,2.8984,2.8984,2.8984,2.8746,2.8585,2.8603,2.8493,2.8151,2.8007,2.794,2.7737,2.7438,2.7487,2.7718,2.7804,2.7892,2.8458,2.9108,2.9444,2.9822,3.013,3.0408,3.0667,3.0926,3.0926,3.112,3.112,3.0926,3.0676,3.0611,3.0741,3.0546,3.0222,2.9896,2.9504,2.9569,2.9635,2.9961,3.0482,2.1102,2.1102,2.1102,2.1102,2.1102,2.1102,2.1102,2.1102,2.1102,2.1102,2.1102,2.1102,2.1109,2.1299,2.1607,2.1915,2.2237,2.255,2.2863,2.3043,2.3106,2.3106,2.3106,2.3168,2.3362,2.3867,2.3673,2.4046,2.4487,2.4857,2.5103,2.6022,2.6987,2.765,2.7951,2.8379,2.8746,2.8984,2.8984,2.8984,2.8984,2.8984,2.8984,2.8984,2.8984,2.8984,2.8984,2.8984,2.8984,2.8984,2.8984,2.9153,2.939,2.939,2.939,2.939,2.9331,2.9213,2.9044,2.8984,2.8984,2.8984,2.8984,2.8984,2.8984,2.8984,2.8984,2.8984,2.8984,2.8984,2.8984,2.8984,2.8984,2.8984,2.8984,2.8984,2.8984,2.8984,2.8865,2.8636,2.8433,2.8273,2.811,2.7696,2.7521,2.7569,2.7418,2.7294,2.7585,2.8031,2.8305,2.8567,2.9117,2.97,2.9961,3.0352,3.0806,3.112,3.1313,3.1377,3.1313,3.0991,3.0797,3.0546,3.0352,3.0157,3.0157,3.0091,3.0026,2.9896,2.9896,2.9896,3.0026,3.0352,3.0602,2.1102,2.1102,2.1102,2.1102,2.1102,2.1102,2.1102,2.1102,2.1102,2.1102,2.1102,2.1102,2.1299,2.1544,2.1922,2.223,2.2543,2.2926,2.3043,2.3043,2.3106,2.3106,2.3106,2.3113,2.3175,2.33,2.3487,2.3798,2.4108,2.4548,2.4919,2.5664,2.6631,2.7168,2.759,2.796,2.8567,2.8865,2.8984,2.8984,2.8984,2.8984,2.8984,2.8984,2.8984,2.8984,2.8984,2.8984,2.8984,2.8984,2.8984,2.9163,2.939,2.9331,2.9331,2.939,2.9331,2.9153,2.9103,2.9044,2.8984,2.8984,2.8984,2.8984,2.8984,2.8984,2.8984,2.8984,2.8984,2.8984,2.8984,2.8984,2.8984,2.8984,2.8984,2.8984,2.8984,2.8984,2.8865,2.8517,2.8376,2.8295,2.8254,2.7964,2.7856,2.7892,2.8031,2.7908,2.8294,2.8751,2.9062,2.9347,2.987,3.0222,3.0352,3.0741,3.112,3.1249,3.1377,3.1377,3.1377,3.1055,3.0797,3.0482,3.0287,2.9905,2.9709,2.9839,3.0026,3.0157,3.0222,3.0222,3.0482,3.0797,3.0991,2.1102,2.1102,2.1102,2.1102,2.1102,2.1102,2.1102,2.1102,2.1102,2.1102,2.1102,2.1292,2.1488,2.1734,2.2174,2.248,2.2606,2.2926,2.3043,2.3106,2.3106,2.3106,2.3106,2.3175,2.33,2.3549,2.3736,2.4046,2.4672,2.4487,2.4803,2.548,2.6083,2.6571,2.6995,2.7659,2.8319,2.8806,2.8984,2.8984,2.8984,2.8984,2.8984,2.8984,2.8984,2.8984,2.8984,2.8984,2.8984,2.8984,2.8984,2.9222,2.939,2.9272,2.9331,2.9509,2.9331,2.9331,2.9272,2.9163,2.8984,2.8984,2.8984,2.8984,2.8984,2.8984,2.8984,2.8984,2.8984,2.8984,2.8984,2.8984,2.8984,2.8984,2.8984,2.8984,2.9012,2.9021,2.8961,2.8742,2.8662,2.8587,2.8517,2.8438,2.8381,2.8311,2.8407,2.8605,2.8977,2.9438,2.9765,3.0018,3.0473,3.0732,3.087,3.112,3.1377,3.1377,3.1313,3.1249,3.1249,3.1377,3.1055,3.0676,3.0287,3.01,2.997,2.9961,3.0091,3.0417,3.0482,3.0482,3.0806,3.1184,3.1313,2.1102,2.1102,2.1102,2.1102,2.1102,2.1102,2.1102,2.1102,2.1102,2.1102,2.1102,2.1425,2.167,2.1922,2.2299,2.2668,2.2793,2.2988,2.3043,2.3106,2.3106,2.3106,2.3106,2.3168,2.33,2.3736,2.379,2.4038,2.4293,2.4487,2.4548,2.4795,2.5288,2.5709,2.6562,2.7237,2.8148,2.8806,2.8567,2.8737,2.8856,2.8746,2.8865,2.8925,2.8984,2.8984,2.8984,2.8984,2.8984,2.8984,2.9044,2.9103,2.9272,2.939,2.939,2.945,2.9509,2.9558,2.9509,2.9331,2.9153,2.9213,2.9044,2.9044,2.8984,2.8984,2.8984,2.8984,2.8984,2.8984,2.8984,2.8984,2.8984,2.8984,2.8984,2.8993,2.9076,2.9122,2.9134,2.8994,2.9009,2.9057,2.9234,2.9226,2.9165,2.9107,2.9232,2.9409,2.9648,3.0091,3.0538,3.0732,3.0991,3.1184,3.1377,3.1377,3.1313,3.0861,3.0861,3.0935,3.0935,3.112,3.1055,3.0546,3.0287,3.0287,3.0352,3.0417,3.0482,3.0667,3.0732,3.0861,3.0991,3.1313,3.1313,2.1102,2.1102,2.1102,2.1102,2.1102,2.1102,2.1102,2.1102,2.1102,2.1102,2.1166,2.1481,2.1796,2.2111,2.2487,2.2793,2.2981,2.3043,2.3106,2.3106,2.3106,2.3106,2.3106,2.3106,2.3175,2.3106,2.323,2.3355,2.3362,2.3487,2.3736,2.4232,2.4726,2.5272,2.6128,2.6744,2.7719,2.8627,2.7788,2.8199,2.8618,2.8558,2.8687,2.8865,2.8984,2.8984,2.8984,2.8984,2.8984,2.8984,2.8984,2.9044,2.9103,2.9103,2.9222,2.945,2.9509,2.9627,2.9804,2.9627,2.9509,2.939,2.9153,2.8984,2.8984,2.8984,2.8984,2.8984,2.8984,2.8984,2.8984,2.8984,2.8984,2.8984,2.8984,2.9076,2.9159,2.9278,2.9289,2.9558,2.9661,2.9753,3.0013,3.0143,3.0045,3.0012,3.0121,3.0222,3.0352,3.0602,3.1055,3.112,3.1249,3.1313,3.1377,3.1377,3.1249,3.0667,3.0546,3.0806,3.0741,3.0667,3.0538,3.0352,3.0482,3.0667,3.0732,3.087,3.0926,3.1055,3.1184,3.1313,3.1377,3.1377,3.1377,2.1102,2.1102,2.1102,2.1102,2.1102,2.1102,2.1102,2.1102,2.1102,2.1235,2.1481,2.1796,2.2111,2.2425,2.2731,2.2981,2.3043,2.3106,2.3106,2.3106,2.3106,2.3106,2.3106,2.3106,2.3106,2.3106,2.3106,2.3106,2.3168,2.3106,2.3479,2.4046,2.5087,2.5892,2.6684,2.7349,2.8199,2.8806,2.8627,2.8627,2.8916,2.8737,2.8746,2.8984,2.8984,2.8984,2.8984,2.8984,2.8984,2.8984,2.8984,2.8984,2.8984,2.8984,2.9153,2.945,2.9509,2.9745,3.0039,3.0098,2.9912,2.9618,2.9272,2.9044,2.8984,2.8984,2.8984,2.8984,2.8984,2.8984,2.8984,2.8984,2.8984,2.8984,2.903,2.9195,2.9314,2.9452,2.962,3.0054,3.0293,3.0402,3.0582,3.0791,3.0743,3.0806,3.087,3.0861,3.0991,3.1055,3.1313,3.1313,3.1377,3.1377,3.1377,3.1377,3.1313,3.0861,3.0926,3.1184,3.0926,3.0473,3.0667,3.0861,3.0991,3.1046,3.112,3.112,3.1249,3.1377,3.1442,3.1442,3.1506,3.1442,3.1377,2.1102,2.1102,2.1102,2.1102,2.1102,2.1102,2.1102,2.1102,2.1235,2.1425,2.1677,2.2048,2.2362,2.2613,2.2918,2.3106,2.3106,2.3106,2.3106,2.3106,2.3106,2.3106,2.3106,2.3106,2.3106,2.3106,2.3106,2.3106,2.3106,2.3106,2.3666,2.4649,2.5961,2.6907,2.747,2.7782,2.802,2.8498,2.8507,2.8379,2.8677,2.8797,2.8737,2.8925,2.8984,2.8984,2.8984,2.8984,2.8984,2.8984,2.8984,2.8984,2.8984,2.9044,2.9153,2.939,2.9804,3.0039,3.046,3.0392,3.0157,2.9912,2.944,2.9153,2.9044,2.8984,2.8984,2.8984,2.8984,2.9044,2.9044,2.9044,2.9131,2.914,2.9393,2.9568,2.9925,3.0064,3.0454,3.0895,3.1092,3.1176,3.1185,3.1332,3.1442,3.1515,3.1644,3.158,3.1506,3.1506,3.1506,3.1506,3.1442,3.1442,3.1442,3.1377,3.1249,3.1055,3.112,3.1249,3.0926,3.0482,3.0926,3.1377,3.1249,3.124,3.1313,3.1377,3.1442,3.1442,3.157,3.158,3.158,3.1635,3.1635,2.1102,2.1102,2.1102,2.1102,2.1102,2.1102,2.1102,2.1172,2.1418,2.1607,2.1734,2.2355,2.2613,2.2675,2.2981,2.3106,2.3106,2.3106,2.3106,2.3106,2.3106,2.3106,2.3106,2.3106,2.323,2.3168,2.323,2.3355,2.3168,2.3638,2.4254,2.5405,2.7053,2.7887,2.8149,2.8139,2.8291,2.8694,2.8406,2.8397,2.8797,2.8558,2.8687,2.8865,2.8984,2.8984,2.8984,2.8984,2.8984,2.8984,2.8984,2.8984,2.8984,2.8984,2.9213,2.9568,3.0098,3.046,3.0704,3.0577,3.045,3.0206,2.9795,2.939,2.9153,2.9044,2.9044,2.9094,2.9094,2.9103,2.9103,2.9268,2.9383,2.96,2.9934,3.0311,3.0691,3.1054,3.1417,3.175,3.1995,3.2036,3.1809,3.1901,3.1901,3.1965,3.1974,3.1901,3.1836,3.1699,3.1699,3.1708,3.1635,3.1506,3.1506,3.1506,3.1313,3.1184,3.0935,3.0935,3.0611,3.0611,3.0991,3.1313,3.1377,3.1377,3.1377,3.1442,3.1442,3.1515,3.1708,3.1782,3.1782,3.2038,3.2166,2.1102,2.1102,2.1102,2.1102,2.1102,2.1362,2.1488,2.1481,2.1544,2.1796,2.2362,2.255,2.2738,2.2988,2.305,2.3106,2.3106,2.3106,2.3106,2.3106,2.3106,2.3106,2.3106,2.3106,2.3362,2.3611,2.3736,2.3673,2.3975,2.4338,2.5475,2.6966,2.807,2.8738,2.8932,2.8867,2.9116,2.9083,2.8628,2.8645,2.8865,2.8737,2.8865,2.8925,2.8984,2.8984,2.8984,2.8984,2.8984,2.8984,2.8984,2.8984,2.8984,2.9044,2.9222,2.9745,3.0157,3.0518,3.082,3.083,3.0645,3.0392,3.0039,2.9686,2.939,2.9213,2.9094,2.9153,2.9281,2.929,2.9539,2.9742,2.9974,3.031,3.0624,3.1039,3.1422,3.1689,3.2108,3.2327,3.2511,3.2447,3.2294,3.223,3.2294,3.2294,3.2294,3.2284,3.2157,3.2029,3.1965,3.1965,3.1965,3.1836,3.1772,3.1782,3.1515,3.1258,3.1064,3.0935,3.0991,3.112,3.1184,3.1313,3.1377,3.1377,3.1377,3.1442,3.1515,3.1772,3.1974,3.1983,3.2047,3.2367,3.2549,2.1102,2.1102,2.1102,2.1172,2.1299,2.1481,2.1734,2.1985,2.1992,2.2237,2.2613,2.2738,2.2926,2.3043,2.3106,2.3106,2.3106,2.3106,2.3106,2.3106,2.3106,2.3106,2.3106,2.3168,2.3487,2.386,2.3922,2.3736,2.4347,2.5332,2.6467,2.7472,2.8756,2.9395,2.9707,2.9757,2.9852,2.9745,2.941,2.9104,2.8993,2.9003,2.8984,2.8984,2.8984,2.8984,2.8984,2.8984,2.8984,2.9044,2.9103,2.9222,2.9213,2.9331,2.9568,3.0039,3.0274,3.0577,3.082,3.0889,3.0762,3.0528,3.0195,2.9863,2.9568,2.9331,2.9222,2.9163,2.9418,2.9643,2.9958,3.0335,3.0654,3.0975,3.1388,3.1813,3.2085,3.2349,3.257,3.2717,3.274,3.2667,3.2613,3.2613,3.2613,3.2667,3.2731,3.2848,3.2667,3.2412,3.2284,3.223,3.223,3.223,3.2175,3.2047,3.1782,3.158,3.1377,3.1313,3.1442,3.1377,3.1313,3.1377,3.1377,3.1442,3.1442,3.158,3.1717,3.1974,3.2284,3.2422,3.2549,3.274,3.2858,2.1102,2.1102,2.1102,2.1299,2.1614,2.1607,2.1985,2.2543,2.2613,2.2668,2.2738,2.2926,2.3113,2.3106,2.3106,2.3106,2.3106,2.3106,2.3106,2.3106,2.3106,2.3106,2.3106,2.3168,2.3479,2.3673,2.386,2.3976,2.468,2.5625,2.6772,2.7753,2.9099,2.9928,3.032,3.0299,3.0279,3.0101,2.9651,2.925,2.9122,2.9058,2.9003,2.8984,2.8984,2.8984,2.8984,2.8984,2.9053,2.9153,2.9272,2.945,2.9602,2.9739,3.0026,3.0298,3.0443,3.064,3.0906,3.1034,3.1034,3.0809,3.0409,3.0211,2.9961,2.9378,2.9172,2.9388,2.9632,3.0109,3.0436,3.0952,3.1302,3.1706,3.2137,3.244,3.2666,3.2894,3.2957,3.3111,3.3048,3.2985,3.2921,3.2921,3.2921,3.2975,3.3038,3.3228,3.3165,3.2858,3.2731,3.2613,3.2676,3.2676,3.2485,3.2294,3.2038,3.1836,3.1635,3.1442,3.1442,3.1442,3.1377,3.1377,3.1377,3.1442,3.1515,3.1653,3.191,3.223,3.2476,3.2794,3.2975,3.3111,3.3175,2.1102,2.1102,2.1102,2.1299,2.1607,2.1859,2.2237,2.2606,2.2856,2.2981,2.2988,2.3043,2.3106,2.3106,2.3106,2.3106,2.3106,2.3106,2.3106,2.3106,2.3106,2.3106,2.3106,2.3106,2.3479,2.386,2.4108,2.4479,2.5504,2.6384,2.7461,2.9075,3.0027,3.0555,3.06,3.0556,3.0528,3.0348,3.0082,2.9672,2.9461,2.9379,2.9333,2.9113,2.8984,2.8984,2.8984,2.8984,2.9163,2.9331,2.944,2.9667,2.9966,3.0036,3.0274,3.0541,3.0653,3.0806,3.0997,3.1159,3.1279,3.1286,3.1076,3.0863,3.0433,2.9526,2.9223,2.9624,3.0069,3.0517,3.1005,3.1484,3.1979,3.2405,3.2805,3.3004,3.3203,3.3281,3.3379,3.3355,3.3292,3.3292,3.3228,3.3228,3.3292,3.3292,3.3292,3.3355,3.3355,3.3165,3.3102,3.3048,3.3102,3.3111,3.2858,3.2613,3.2358,3.2102,3.1836,3.1644,3.1451,3.1442,3.1377,3.1377,3.1442,3.1515,3.1653,3.1855,3.2047,3.2422,3.2667,3.2985,3.3165,3.3292,3.3355,2.1102,2.1109,2.1229,2.1607,2.2048,2.2237,2.2487,2.2793,2.3043,2.3106,2.3106,2.3106,2.3106,2.3106,2.3106,2.3106,2.3106,2.3106,2.3106,2.3106,2.3106,2.3106,2.3106,2.3106,2.3549,2.3984,2.4293,2.4988,2.6158,2.6924,2.7837,2.9555,3.0391,3.0774,3.0707,3.0947,3.0829,3.0519,3.05,3.0241,2.9837,2.9654,2.9379,2.9104,2.8984,2.8984,2.8984,2.8984,2.9103,2.9424,2.9686,3.0153,3.0496,3.0727,3.0804,3.0884,3.0879,3.0926,3.1139,3.1351,3.1545,3.1554,3.1375,3.1098,3.1201,3.0442,2.9971,3.0279,3.055,3.0992,3.1427,3.1846,3.2204,3.2607,3.2799,3.2887,3.2988,3.3018,3.3213,3.3355,3.3355,3.3355,3.3355,3.3355,3.3355,3.3355,3.3355,3.3418,3.3418,3.3418,3.3418,3.3418,3.3418,3.3355,3.3175,3.2921,3.2667,3.2422,3.2102,3.1772,3.1515,3.1442,3.1377,3.1442,3.158,3.1717,3.1855,3.2047,3.2358,3.2667,3.2921,3.3175,3.3292,3.3418,3.3418,2.1172,2.1235,2.1481,2.1985,2.255,2.2613,2.2793,2.3043,2.3106,2.3106,2.3106,2.3106,2.3106,2.3106,2.3106,2.3106,2.3106,2.3106,2.3106,2.3106,2.3106,2.3106,2.3106,2.3168,2.3549,2.3922,2.4355,2.5159,2.6093,2.6991,2.8164,2.9618,3.0382,3.0956,3.1212,3.135,3.1249,3.1066,3.091,3.0561,3.0185,2.9791,2.9388,2.9122,2.8984,2.8984,2.8984,2.8984,2.8984,2.9531,3.0133,3.0638,3.1009,3.1317,3.1314,3.1341,3.1355,3.1388,3.1394,3.1565,3.1703,3.1707,3.1437,3.1479,3.1673,3.1535,3.0997,3.0898,3.1172,3.1323,3.176,3.2037,3.2368,3.2581,3.2672,3.2812,3.2812,3.2822,3.3076,3.3359,3.3418,3.3418,3.3418,3.3418,3.3418,3.3418,3.3418,3.3418,3.3418,3.3418,3.3418,3.3418,3.3418,3.3355,3.3355,3.3228,3.2985,3.2731,3.2412,3.1965,3.158,3.1506,3.1506,3.157,3.1644,3.1855,3.2166,3.2485,3.2731,3.2985,3.3111,3.3301,3.3355,3.3418,3.3418,2.1488,2.1488,2.1607,2.1985,2.255,2.2613,2.2801,2.3043,2.3106,2.3106,2.3106,2.3106,2.3106,2.3106,2.3106,2.3106,2.3106,2.3106,2.3106,2.3106,2.3106,2.3106,2.3106,2.3168,2.3355,2.3798,2.4448,2.5493,2.6404,2.7414,2.8659,3.0009,3.0499,3.0827,3.0919,3.1093,3.1277,3.1139,3.0901,3.0525,3.0149,2.9755,2.9379,2.914,2.8984,2.8984,2.8984,2.8984,2.9366,2.9911,3.0578,3.1162,3.1522,3.1765,3.1778,3.1803,3.1869,3.1942,3.1986,3.2102,3.2262,3.2426,3.2315,3.2373,3.2464,3.2503,3.2133,3.1827,3.1913,3.1592,3.1853,3.1935,3.2176,3.2231,3.2238,3.2555,3.2725,3.2822,3.2998,3.3242,3.3418,3.3418,3.3418,3.3418,3.3418,3.3418,3.3418,3.3418,3.3418,3.3418,3.3418,3.3418,3.3418,3.3418,3.3355,3.3355,3.3165,3.2985,3.2667,3.223,3.1836,3.1515,3.1515,3.1644,3.1846,3.2111,3.2422,3.2794,3.2985,3.3165,3.3292,3.3355,3.3418,3.3418,3.3418]}]]